<?xml version="1.0" encoding="UTF-8" standalone="no" ?>
<gpx xmlns="http://www.topografix.com/GPX/1/1" xmlns:xsi="http://www.w3.org/2001/XMLSchema-instance" xsi:schemaLocation="http://www.topografix.com/GPX/1/1 http://www.topografix.com/GPX/1/1/gpx.xsd" version="1.1" creator="VisuGPX - https://www.visugpx.com">
  <metadata>
    <name>VTT - Vers Aouste sur Sye</name>
    <desc><![CDATA[Belle rando avec des beaux points de vue et de beaux singles en descente.]]></desc>
  </metadata>
  <trk>
    <name><![CDATA[23-AOU-16 16:27:26]]></name>
    <trkseg>
      <trkpt lat="44.71948" lon="5.06076">
        <ele>169.81</ele>
        <time>2016-08-23T11:41:43Z</time>
      </trkpt>
      <trkpt lat="44.71949" lon="5.06076">
        <ele>170.77</ele>
        <time>2016-08-23T11:41:49Z</time>
      </trkpt>
      <trkpt lat="44.71947" lon="5.06068">
        <ele>174.62</ele>
        <time>2016-08-23T11:42:05Z</time>
      </trkpt>
      <trkpt lat="44.71946" lon="5.06068">
        <ele>178.46</ele>
        <time>2016-08-23T11:42:07Z</time>
      </trkpt>
      <trkpt lat="44.71946" lon="5.06068">
        <ele>182.79</ele>
        <time>2016-08-23T11:42:10Z</time>
      </trkpt>
      <trkpt lat="44.71945" lon="5.06069">
        <ele>184.71</ele>
        <time>2016-08-23T11:42:12Z</time>
      </trkpt>
      <trkpt lat="44.71945" lon="5.06069">
        <ele>189.04</ele>
        <time>2016-08-23T11:42:14Z</time>
      </trkpt>
      <trkpt lat="44.71945" lon="5.06069">
        <ele>189.04</ele>
        <time>2016-08-23T11:42:15Z</time>
      </trkpt>
      <trkpt lat="44.71958" lon="5.06087">
        <ele>170.29</ele>
        <time>2016-08-23T11:43:10Z</time>
      </trkpt>
      <trkpt lat="44.71959" lon="5.06088">
        <ele>170.77</ele>
        <time>2016-08-23T11:43:11Z</time>
      </trkpt>
      <trkpt lat="44.71979" lon="5.06093">
        <ele>170.77</ele>
        <time>2016-08-23T11:43:23Z</time>
      </trkpt>
      <trkpt lat="44.72024" lon="5.06155">
        <ele>172.21</ele>
        <time>2016-08-23T11:43:40Z</time>
      </trkpt>
      <trkpt lat="44.72035" lon="5.06163">
        <ele>172.69</ele>
        <time>2016-08-23T11:43:43Z</time>
      </trkpt>
      <trkpt lat="44.72039" lon="5.06165">
        <ele>172.69</ele>
        <time>2016-08-23T11:43:44Z</time>
      </trkpt>
      <trkpt lat="44.72043" lon="5.06167">
        <ele>172.69</ele>
        <time>2016-08-23T11:43:45Z</time>
      </trkpt>
      <trkpt lat="44.72047" lon="5.06168">
        <ele>172.69</ele>
        <time>2016-08-23T11:43:46Z</time>
      </trkpt>
      <trkpt lat="44.72051" lon="5.06168">
        <ele>172.69</ele>
        <time>2016-08-23T11:43:47Z</time>
      </trkpt>
      <trkpt lat="44.72082" lon="5.06176">
        <ele>173.66</ele>
        <time>2016-08-23T11:43:54Z</time>
      </trkpt>
      <trkpt lat="44.72086" lon="5.06178">
        <ele>173.66</ele>
        <time>2016-08-23T11:43:55Z</time>
      </trkpt>
      <trkpt lat="44.7209" lon="5.06181">
        <ele>174.14</ele>
        <time>2016-08-23T11:43:56Z</time>
      </trkpt>
      <trkpt lat="44.72128" lon="5.06209">
        <ele>175.58</ele>
        <time>2016-08-23T11:44:06Z</time>
      </trkpt>
      <trkpt lat="44.72196" lon="5.06254">
        <ele>177.5</ele>
        <time>2016-08-23T11:44:23Z</time>
      </trkpt>
      <trkpt lat="44.72257" lon="5.06289">
        <ele>179.9</ele>
        <time>2016-08-23T11:44:38Z</time>
      </trkpt>
      <trkpt lat="44.72305" lon="5.06309">
        <ele>182.79</ele>
        <time>2016-08-23T11:44:51Z</time>
      </trkpt>
      <trkpt lat="44.72358" lon="5.06304">
        <ele>185.67</ele>
        <time>2016-08-23T11:45:05Z</time>
      </trkpt>
      <trkpt lat="44.72424" lon="5.06283">
        <ele>187.11</ele>
        <time>2016-08-23T11:45:22Z</time>
      </trkpt>
      <trkpt lat="44.725" lon="5.06292">
        <ele>189.04</ele>
        <time>2016-08-23T11:45:40Z</time>
      </trkpt>
      <trkpt lat="44.72574" lon="5.06319">
        <ele>191.44</ele>
        <time>2016-08-23T11:45:57Z</time>
      </trkpt>
      <trkpt lat="44.72646" lon="5.0634">
        <ele>191.44</ele>
        <time>2016-08-23T11:46:12Z</time>
      </trkpt>
      <trkpt lat="44.72652" lon="5.06343">
        <ele>191.44</ele>
        <time>2016-08-23T11:46:13Z</time>
      </trkpt>
      <trkpt lat="44.72656" lon="5.06347">
        <ele>191.44</ele>
        <time>2016-08-23T11:46:14Z</time>
      </trkpt>
      <trkpt lat="44.72735" lon="5.06422">
        <ele>192.88</ele>
        <time>2016-08-23T11:46:32Z</time>
      </trkpt>
      <trkpt lat="44.72796" lon="5.06483">
        <ele>194.8</ele>
        <time>2016-08-23T11:46:47Z</time>
      </trkpt>
      <trkpt lat="44.72862" lon="5.06546">
        <ele>198.17</ele>
        <time>2016-08-23T11:47:04Z</time>
      </trkpt>
      <trkpt lat="44.72928" lon="5.06611">
        <ele>201.05</ele>
        <time>2016-08-23T11:47:21Z</time>
      </trkpt>
      <trkpt lat="44.72997" lon="5.06677">
        <ele>202.49</ele>
        <time>2016-08-23T11:47:37Z</time>
      </trkpt>
      <trkpt lat="44.73082" lon="5.06737">
        <ele>204.9</ele>
        <time>2016-08-23T11:47:55Z</time>
      </trkpt>
      <trkpt lat="44.7317" lon="5.06798">
        <ele>206.34</ele>
        <time>2016-08-23T11:48:14Z</time>
      </trkpt>
      <trkpt lat="44.7321" lon="5.06811">
        <ele>207.3</ele>
        <time>2016-08-23T11:48:22Z</time>
      </trkpt>
      <trkpt lat="44.73274" lon="5.06816">
        <ele>210.67</ele>
        <time>2016-08-23T11:48:36Z</time>
      </trkpt>
      <trkpt lat="44.73353" lon="5.06825">
        <ele>213.07</ele>
        <time>2016-08-23T11:48:54Z</time>
      </trkpt>
      <trkpt lat="44.73428" lon="5.06825">
        <ele>214.99</ele>
        <time>2016-08-23T11:49:10Z</time>
      </trkpt>
      <trkpt lat="44.73521" lon="5.06814">
        <ele>217.4</ele>
        <time>2016-08-23T11:49:29Z</time>
      </trkpt>
      <trkpt lat="44.73597" lon="5.06803">
        <ele>219.8</ele>
        <time>2016-08-23T11:49:45Z</time>
      </trkpt>
      <trkpt lat="44.73671" lon="5.06785">
        <ele>222.68</ele>
        <time>2016-08-23T11:50:01Z</time>
      </trkpt>
      <trkpt lat="44.73708" lon="5.06766">
        <ele>224.61</ele>
        <time>2016-08-23T11:50:10Z</time>
      </trkpt>
      <trkpt lat="44.73712" lon="5.06763">
        <ele>224.61</ele>
        <time>2016-08-23T11:50:11Z</time>
      </trkpt>
      <trkpt lat="44.73716" lon="5.06761">
        <ele>224.61</ele>
        <time>2016-08-23T11:50:12Z</time>
      </trkpt>
      <trkpt lat="44.7372" lon="5.06759">
        <ele>224.61</ele>
        <time>2016-08-23T11:50:13Z</time>
      </trkpt>
      <trkpt lat="44.73724" lon="5.06757">
        <ele>225.57</ele>
        <time>2016-08-23T11:50:14Z</time>
      </trkpt>
      <trkpt lat="44.73795" lon="5.06717">
        <ele>227.49</ele>
        <time>2016-08-23T11:50:31Z</time>
      </trkpt>
      <trkpt lat="44.73864" lon="5.06676">
        <ele>230.85</ele>
        <time>2016-08-23T11:50:48Z</time>
      </trkpt>
      <trkpt lat="44.73927" lon="5.06654">
        <ele>231.33</ele>
        <time>2016-08-23T11:51:02Z</time>
      </trkpt>
      <trkpt lat="44.74008" lon="5.06651">
        <ele>232.3</ele>
        <time>2016-08-23T11:51:18Z</time>
      </trkpt>
      <trkpt lat="44.74099" lon="5.0665">
        <ele>233.26</ele>
        <time>2016-08-23T11:51:36Z</time>
      </trkpt>
      <trkpt lat="44.74188" lon="5.0665">
        <ele>235.18</ele>
        <time>2016-08-23T11:51:54Z</time>
      </trkpt>
      <trkpt lat="44.74263" lon="5.0665">
        <ele>237.1</ele>
        <time>2016-08-23T11:52:09Z</time>
      </trkpt>
      <trkpt lat="44.74354" lon="5.06648">
        <ele>240.47</ele>
        <time>2016-08-23T11:52:28Z</time>
      </trkpt>
      <trkpt lat="44.74418" lon="5.06658">
        <ele>241.91</ele>
        <time>2016-08-23T11:52:42Z</time>
      </trkpt>
      <trkpt lat="44.74446" lon="5.06666">
        <ele>242.87</ele>
        <time>2016-08-23T11:52:48Z</time>
      </trkpt>
      <trkpt lat="44.74519" lon="5.06696">
        <ele>244.79</ele>
        <time>2016-08-23T11:53:04Z</time>
      </trkpt>
      <trkpt lat="44.74602" lon="5.06753">
        <ele>246.23</ele>
        <time>2016-08-23T11:53:22Z</time>
      </trkpt>
      <trkpt lat="44.74682" lon="5.06813">
        <ele>247.68</ele>
        <time>2016-08-23T11:53:39Z</time>
      </trkpt>
      <trkpt lat="44.7477" lon="5.06879">
        <ele>248.16</ele>
        <time>2016-08-23T11:53:57Z</time>
      </trkpt>
      <trkpt lat="44.74845" lon="5.06936">
        <ele>249.6</ele>
        <time>2016-08-23T11:54:13Z</time>
      </trkpt>
      <trkpt lat="44.74931" lon="5.07002">
        <ele>251.04</ele>
        <time>2016-08-23T11:54:31Z</time>
      </trkpt>
      <trkpt lat="44.75004" lon="5.07033">
        <ele>252.96</ele>
        <time>2016-08-23T11:54:46Z</time>
      </trkpt>
      <trkpt lat="44.75024" lon="5.0704">
        <ele>253.44</ele>
        <time>2016-08-23T11:54:50Z</time>
      </trkpt>
      <trkpt lat="44.75029" lon="5.07041">
        <ele>253.44</ele>
        <time>2016-08-23T11:54:51Z</time>
      </trkpt>
      <trkpt lat="44.75091" lon="5.07061">
        <ele>256.81</ele>
        <time>2016-08-23T11:55:04Z</time>
      </trkpt>
      <trkpt lat="44.75164" lon="5.07086">
        <ele>258.25</ele>
        <time>2016-08-23T11:55:20Z</time>
      </trkpt>
      <trkpt lat="44.75231" lon="5.07133">
        <ele>261.14</ele>
        <time>2016-08-23T11:55:36Z</time>
      </trkpt>
      <trkpt lat="44.75236" lon="5.07136">
        <ele>261.62</ele>
        <time>2016-08-23T11:55:37Z</time>
      </trkpt>
      <trkpt lat="44.75308" lon="5.07188">
        <ele>263.06</ele>
        <time>2016-08-23T11:55:54Z</time>
      </trkpt>
      <trkpt lat="44.75379" lon="5.07241">
        <ele>264.5</ele>
        <time>2016-08-23T11:56:11Z</time>
      </trkpt>
      <trkpt lat="44.75409" lon="5.07262">
        <ele>265.94</ele>
        <time>2016-08-23T11:56:18Z</time>
      </trkpt>
      <trkpt lat="44.75413" lon="5.07265">
        <ele>265.94</ele>
        <time>2016-08-23T11:56:19Z</time>
      </trkpt>
      <trkpt lat="44.75472" lon="5.07309">
        <ele>267.86</ele>
        <time>2016-08-23T11:56:33Z</time>
      </trkpt>
      <trkpt lat="44.7553" lon="5.07351">
        <ele>268.83</ele>
        <time>2016-08-23T11:56:47Z</time>
      </trkpt>
      <trkpt lat="44.75564" lon="5.07375">
        <ele>269.79</ele>
        <time>2016-08-23T11:56:55Z</time>
      </trkpt>
      <trkpt lat="44.75568" lon="5.07378">
        <ele>269.79</ele>
        <time>2016-08-23T11:56:56Z</time>
      </trkpt>
      <trkpt lat="44.75573" lon="5.07381">
        <ele>269.31</ele>
        <time>2016-08-23T11:56:57Z</time>
      </trkpt>
      <trkpt lat="44.75577" lon="5.07385">
        <ele>269.79</ele>
        <time>2016-08-23T11:56:58Z</time>
      </trkpt>
      <trkpt lat="44.75582" lon="5.07389">
        <ele>269.79</ele>
        <time>2016-08-23T11:56:59Z</time>
      </trkpt>
      <trkpt lat="44.75645" lon="5.07436">
        <ele>270.75</ele>
        <time>2016-08-23T11:57:14Z</time>
      </trkpt>
      <trkpt lat="44.75715" lon="5.0749">
        <ele>272.19</ele>
        <time>2016-08-23T11:57:31Z</time>
      </trkpt>
      <trkpt lat="44.75797" lon="5.07539">
        <ele>275.07</ele>
        <time>2016-08-23T11:57:51Z</time>
      </trkpt>
      <trkpt lat="44.75801" lon="5.07541">
        <ele>275.07</ele>
        <time>2016-08-23T11:57:52Z</time>
      </trkpt>
      <trkpt lat="44.75805" lon="5.07544">
        <ele>275.07</ele>
        <time>2016-08-23T11:57:53Z</time>
      </trkpt>
      <trkpt lat="44.75808" lon="5.07548">
        <ele>275.07</ele>
        <time>2016-08-23T11:57:54Z</time>
      </trkpt>
      <trkpt lat="44.75824" lon="5.07568">
        <ele>273.15</ele>
        <time>2016-08-23T11:57:58Z</time>
      </trkpt>
      <trkpt lat="44.75826" lon="5.07574">
        <ele>273.15</ele>
        <time>2016-08-23T11:57:59Z</time>
      </trkpt>
      <trkpt lat="44.75829" lon="5.0758">
        <ele>273.15</ele>
        <time>2016-08-23T11:58:00Z</time>
      </trkpt>
      <trkpt lat="44.75833" lon="5.07591">
        <ele>273.63</ele>
        <time>2016-08-23T11:58:02Z</time>
      </trkpt>
      <trkpt lat="44.75835" lon="5.07596">
        <ele>273.63</ele>
        <time>2016-08-23T11:58:03Z</time>
      </trkpt>
      <trkpt lat="44.75846" lon="5.07628">
        <ele>273.63</ele>
        <time>2016-08-23T11:58:10Z</time>
      </trkpt>
      <trkpt lat="44.75848" lon="5.07633">
        <ele>273.63</ele>
        <time>2016-08-23T11:58:11Z</time>
      </trkpt>
      <trkpt lat="44.75851" lon="5.07638">
        <ele>273.63</ele>
        <time>2016-08-23T11:58:12Z</time>
      </trkpt>
      <trkpt lat="44.75862" lon="5.07655">
        <ele>273.15</ele>
        <time>2016-08-23T11:58:16Z</time>
      </trkpt>
      <trkpt lat="44.75862" lon="5.07661">
        <ele>273.15</ele>
        <time>2016-08-23T11:58:17Z</time>
      </trkpt>
      <trkpt lat="44.75861" lon="5.07666">
        <ele>273.15</ele>
        <time>2016-08-23T11:58:18Z</time>
      </trkpt>
      <trkpt lat="44.75857" lon="5.0767">
        <ele>273.15</ele>
        <time>2016-08-23T11:58:19Z</time>
      </trkpt>
      <trkpt lat="44.75853" lon="5.07672">
        <ele>272.67</ele>
        <time>2016-08-23T11:58:20Z</time>
      </trkpt>
      <trkpt lat="44.75849" lon="5.07673">
        <ele>272.67</ele>
        <time>2016-08-23T11:58:21Z</time>
      </trkpt>
      <trkpt lat="44.75844" lon="5.07672">
        <ele>272.67</ele>
        <time>2016-08-23T11:58:22Z</time>
      </trkpt>
      <trkpt lat="44.75839" lon="5.07671">
        <ele>272.67</ele>
        <time>2016-08-23T11:58:23Z</time>
      </trkpt>
      <trkpt lat="44.75816" lon="5.07664">
        <ele>272.19</ele>
        <time>2016-08-23T11:58:28Z</time>
      </trkpt>
      <trkpt lat="44.75812" lon="5.07665">
        <ele>272.67</ele>
        <time>2016-08-23T11:58:29Z</time>
      </trkpt>
      <trkpt lat="44.75808" lon="5.07666">
        <ele>272.19</ele>
        <time>2016-08-23T11:58:30Z</time>
      </trkpt>
      <trkpt lat="44.75805" lon="5.0767">
        <ele>272.67</ele>
        <time>2016-08-23T11:58:31Z</time>
      </trkpt>
      <trkpt lat="44.75804" lon="5.07675">
        <ele>272.67</ele>
        <time>2016-08-23T11:58:32Z</time>
      </trkpt>
      <trkpt lat="44.75803" lon="5.0768">
        <ele>272.67</ele>
        <time>2016-08-23T11:58:33Z</time>
      </trkpt>
      <trkpt lat="44.75793" lon="5.07722">
        <ele>276.04</ele>
        <time>2016-08-23T11:58:44Z</time>
      </trkpt>
      <trkpt lat="44.75784" lon="5.07757">
        <ele>279.4</ele>
        <time>2016-08-23T11:58:56Z</time>
      </trkpt>
      <trkpt lat="44.75795" lon="5.07777">
        <ele>282.28</ele>
        <time>2016-08-23T11:59:07Z</time>
      </trkpt>
      <trkpt lat="44.75809" lon="5.07796">
        <ele>285.65</ele>
        <time>2016-08-23T11:59:19Z</time>
      </trkpt>
      <trkpt lat="44.75825" lon="5.07824">
        <ele>288.53</ele>
        <time>2016-08-23T11:59:34Z</time>
      </trkpt>
      <trkpt lat="44.75837" lon="5.07848">
        <ele>291.9</ele>
        <time>2016-08-23T11:59:47Z</time>
      </trkpt>
      <trkpt lat="44.75846" lon="5.07868">
        <ele>294.3</ele>
        <time>2016-08-23T11:59:58Z</time>
      </trkpt>
      <trkpt lat="44.75846" lon="5.07871">
        <ele>294.3</ele>
        <time>2016-08-23T11:59:59Z</time>
      </trkpt>
      <trkpt lat="44.75846" lon="5.07873">
        <ele>294.78</ele>
        <time>2016-08-23T12:00:00Z</time>
      </trkpt>
      <trkpt lat="44.75846" lon="5.07875">
        <ele>294.78</ele>
        <time>2016-08-23T12:00:01Z</time>
      </trkpt>
      <trkpt lat="44.75847" lon="5.07876">
        <ele>295.26</ele>
        <time>2016-08-23T12:00:02Z</time>
      </trkpt>
      <trkpt lat="44.75848" lon="5.07878">
        <ele>295.26</ele>
        <time>2016-08-23T12:00:03Z</time>
      </trkpt>
      <trkpt lat="44.75849" lon="5.07879">
        <ele>295.26</ele>
        <time>2016-08-23T12:00:04Z</time>
      </trkpt>
      <trkpt lat="44.75851" lon="5.0788">
        <ele>295.26</ele>
        <time>2016-08-23T12:00:05Z</time>
      </trkpt>
      <trkpt lat="44.75852" lon="5.07882">
        <ele>295.26</ele>
        <time>2016-08-23T12:00:06Z</time>
      </trkpt>
      <trkpt lat="44.75867" lon="5.07894">
        <ele>296.7</ele>
        <time>2016-08-23T12:00:20Z</time>
      </trkpt>
      <trkpt lat="44.7587" lon="5.07896">
        <ele>297.18</ele>
        <time>2016-08-23T12:00:41Z</time>
      </trkpt>
      <trkpt lat="44.7587" lon="5.07896">
        <ele>297.67</ele>
        <time>2016-08-23T12:01:05Z</time>
      </trkpt>
      <trkpt lat="44.75874" lon="5.079">
        <ele>298.15</ele>
        <time>2016-08-23T12:01:19Z</time>
      </trkpt>
      <trkpt lat="44.75875" lon="5.07902">
        <ele>297.67</ele>
        <time>2016-08-23T12:01:20Z</time>
      </trkpt>
      <trkpt lat="44.75892" lon="5.07916">
        <ele>300.55</ele>
        <time>2016-08-23T12:01:34Z</time>
      </trkpt>
      <trkpt lat="44.75899" lon="5.07919">
        <ele>301.99</ele>
        <time>2016-08-23T12:01:39Z</time>
      </trkpt>
      <trkpt lat="44.759" lon="5.0792">
        <ele>301.99</ele>
        <time>2016-08-23T12:01:40Z</time>
      </trkpt>
      <trkpt lat="44.75919" lon="5.07936">
        <ele>305.36</ele>
        <time>2016-08-23T12:01:53Z</time>
      </trkpt>
      <trkpt lat="44.7592" lon="5.07938">
        <ele>305.36</ele>
        <time>2016-08-23T12:01:54Z</time>
      </trkpt>
      <trkpt lat="44.75921" lon="5.0794">
        <ele>305.84</ele>
        <time>2016-08-23T12:01:55Z</time>
      </trkpt>
      <trkpt lat="44.75922" lon="5.07941">
        <ele>305.84</ele>
        <time>2016-08-23T12:01:56Z</time>
      </trkpt>
      <trkpt lat="44.75918" lon="5.07965">
        <ele>306.32</ele>
        <time>2016-08-23T12:02:06Z</time>
      </trkpt>
      <trkpt lat="44.75902" lon="5.07996">
        <ele>304.39</ele>
        <time>2016-08-23T12:02:14Z</time>
      </trkpt>
      <trkpt lat="44.759" lon="5.08002">
        <ele>304.39</ele>
        <time>2016-08-23T12:02:15Z</time>
      </trkpt>
      <trkpt lat="44.75878" lon="5.0804">
        <ele>304.39</ele>
        <time>2016-08-23T12:02:25Z</time>
      </trkpt>
      <trkpt lat="44.75875" lon="5.08048">
        <ele>303.43</ele>
        <time>2016-08-23T12:02:27Z</time>
      </trkpt>
      <trkpt lat="44.75875" lon="5.08054">
        <ele>302.95</ele>
        <time>2016-08-23T12:02:28Z</time>
      </trkpt>
      <trkpt lat="44.75876" lon="5.08058">
        <ele>302.47</ele>
        <time>2016-08-23T12:02:29Z</time>
      </trkpt>
      <trkpt lat="44.75878" lon="5.08061">
        <ele>302.95</ele>
        <time>2016-08-23T12:02:30Z</time>
      </trkpt>
      <trkpt lat="44.7588" lon="5.08062">
        <ele>302.95</ele>
        <time>2016-08-23T12:02:31Z</time>
      </trkpt>
      <trkpt lat="44.75887" lon="5.08066">
        <ele>304.88</ele>
        <time>2016-08-23T12:02:40Z</time>
      </trkpt>
      <trkpt lat="44.75888" lon="5.08067">
        <ele>304.88</ele>
        <time>2016-08-23T12:02:41Z</time>
      </trkpt>
      <trkpt lat="44.759" lon="5.08072">
        <ele>308.24</ele>
        <time>2016-08-23T12:02:52Z</time>
      </trkpt>
      <trkpt lat="44.75908" lon="5.08081">
        <ele>310.64</ele>
        <time>2016-08-23T12:03:04Z</time>
      </trkpt>
      <trkpt lat="44.75909" lon="5.08082">
        <ele>310.16</ele>
        <time>2016-08-23T12:03:05Z</time>
      </trkpt>
      <trkpt lat="44.75911" lon="5.08082">
        <ele>310.16</ele>
        <time>2016-08-23T12:03:06Z</time>
      </trkpt>
      <trkpt lat="44.75915" lon="5.08079">
        <ele>311.6</ele>
        <time>2016-08-23T12:03:14Z</time>
      </trkpt>
      <trkpt lat="44.75923" lon="5.08079">
        <ele>312.57</ele>
        <time>2016-08-23T12:03:23Z</time>
      </trkpt>
      <trkpt lat="44.75925" lon="5.08079">
        <ele>313.05</ele>
        <time>2016-08-23T12:03:24Z</time>
      </trkpt>
      <trkpt lat="44.75927" lon="5.08078">
        <ele>313.05</ele>
        <time>2016-08-23T12:03:25Z</time>
      </trkpt>
      <trkpt lat="44.75928" lon="5.08078">
        <ele>313.53</ele>
        <time>2016-08-23T12:03:26Z</time>
      </trkpt>
      <trkpt lat="44.7593" lon="5.08079">
        <ele>313.53</ele>
        <time>2016-08-23T12:03:27Z</time>
      </trkpt>
      <trkpt lat="44.75932" lon="5.08079">
        <ele>314.01</ele>
        <time>2016-08-23T12:03:28Z</time>
      </trkpt>
      <trkpt lat="44.75934" lon="5.0808">
        <ele>314.01</ele>
        <time>2016-08-23T12:03:29Z</time>
      </trkpt>
      <trkpt lat="44.75935" lon="5.0808">
        <ele>314.49</ele>
        <time>2016-08-23T12:03:30Z</time>
      </trkpt>
      <trkpt lat="44.75937" lon="5.08081">
        <ele>314.49</ele>
        <time>2016-08-23T12:03:31Z</time>
      </trkpt>
      <trkpt lat="44.75939" lon="5.08082">
        <ele>314.97</ele>
        <time>2016-08-23T12:03:32Z</time>
      </trkpt>
      <trkpt lat="44.75941" lon="5.08083">
        <ele>314.97</ele>
        <time>2016-08-23T12:03:33Z</time>
      </trkpt>
      <trkpt lat="44.75943" lon="5.08084">
        <ele>315.45</ele>
        <time>2016-08-23T12:03:34Z</time>
      </trkpt>
      <trkpt lat="44.75944" lon="5.08084">
        <ele>315.45</ele>
        <time>2016-08-23T12:03:35Z</time>
      </trkpt>
      <trkpt lat="44.75951" lon="5.08088">
        <ele>316.89</ele>
        <time>2016-08-23T12:03:41Z</time>
      </trkpt>
      <trkpt lat="44.75953" lon="5.08089">
        <ele>317.37</ele>
        <time>2016-08-23T12:03:42Z</time>
      </trkpt>
      <trkpt lat="44.75954" lon="5.0809">
        <ele>317.37</ele>
        <time>2016-08-23T12:03:43Z</time>
      </trkpt>
      <trkpt lat="44.75962" lon="5.08091">
        <ele>318.81</ele>
        <time>2016-08-23T12:03:52Z</time>
      </trkpt>
      <trkpt lat="44.75977" lon="5.08098">
        <ele>321.7</ele>
        <time>2016-08-23T12:04:04Z</time>
      </trkpt>
      <trkpt lat="44.75984" lon="5.08104">
        <ele>322.18</ele>
        <time>2016-08-23T12:04:11Z</time>
      </trkpt>
      <trkpt lat="44.75985" lon="5.08105">
        <ele>322.66</ele>
        <time>2016-08-23T12:04:12Z</time>
      </trkpt>
      <trkpt lat="44.75988" lon="5.08111">
        <ele>323.14</ele>
        <time>2016-08-23T12:04:15Z</time>
      </trkpt>
      <trkpt lat="44.75996" lon="5.08128">
        <ele>324.58</ele>
        <time>2016-08-23T12:04:24Z</time>
      </trkpt>
      <trkpt lat="44.75996" lon="5.0813">
        <ele>325.06</ele>
        <time>2016-08-23T12:04:25Z</time>
      </trkpt>
      <trkpt lat="44.75997" lon="5.08133">
        <ele>325.06</ele>
        <time>2016-08-23T12:04:26Z</time>
      </trkpt>
      <trkpt lat="44.75998" lon="5.08135">
        <ele>325.06</ele>
        <time>2016-08-23T12:04:27Z</time>
      </trkpt>
      <trkpt lat="44.76" lon="5.08138">
        <ele>325.06</ele>
        <time>2016-08-23T12:04:28Z</time>
      </trkpt>
      <trkpt lat="44.76001" lon="5.0814">
        <ele>325.06</ele>
        <time>2016-08-23T12:04:29Z</time>
      </trkpt>
      <trkpt lat="44.76002" lon="5.08141">
        <ele>325.06</ele>
        <time>2016-08-23T12:04:30Z</time>
      </trkpt>
      <trkpt lat="44.76004" lon="5.08142">
        <ele>325.54</ele>
        <time>2016-08-23T12:04:31Z</time>
      </trkpt>
      <trkpt lat="44.76006" lon="5.08142">
        <ele>325.54</ele>
        <time>2016-08-23T12:04:32Z</time>
      </trkpt>
      <trkpt lat="44.76008" lon="5.08143">
        <ele>325.54</ele>
        <time>2016-08-23T12:04:33Z</time>
      </trkpt>
      <trkpt lat="44.7601" lon="5.08144">
        <ele>326.02</ele>
        <time>2016-08-23T12:04:34Z</time>
      </trkpt>
      <trkpt lat="44.76011" lon="5.08145">
        <ele>326.02</ele>
        <time>2016-08-23T12:04:35Z</time>
      </trkpt>
      <trkpt lat="44.76013" lon="5.08146">
        <ele>326.02</ele>
        <time>2016-08-23T12:04:36Z</time>
      </trkpt>
      <trkpt lat="44.76014" lon="5.08148">
        <ele>326.5</ele>
        <time>2016-08-23T12:04:37Z</time>
      </trkpt>
      <trkpt lat="44.76035" lon="5.08176">
        <ele>328.91</ele>
        <time>2016-08-23T12:04:52Z</time>
      </trkpt>
      <trkpt lat="44.76043" lon="5.08184">
        <ele>330.83</ele>
        <time>2016-08-23T12:04:58Z</time>
      </trkpt>
      <trkpt lat="44.76047" lon="5.08188">
        <ele>331.31</ele>
        <time>2016-08-23T12:05:01Z</time>
      </trkpt>
      <trkpt lat="44.76064" lon="5.08219">
        <ele>333.71</ele>
        <time>2016-08-23T12:05:16Z</time>
      </trkpt>
      <trkpt lat="44.76067" lon="5.08223">
        <ele>334.68</ele>
        <time>2016-08-23T12:05:19Z</time>
      </trkpt>
      <trkpt lat="44.76068" lon="5.08225">
        <ele>334.68</ele>
        <time>2016-08-23T12:05:20Z</time>
      </trkpt>
      <trkpt lat="44.76069" lon="5.08227">
        <ele>335.16</ele>
        <time>2016-08-23T12:05:21Z</time>
      </trkpt>
      <trkpt lat="44.7607" lon="5.08229">
        <ele>335.64</ele>
        <time>2016-08-23T12:05:22Z</time>
      </trkpt>
      <trkpt lat="44.7607" lon="5.08231">
        <ele>335.64</ele>
        <time>2016-08-23T12:05:23Z</time>
      </trkpt>
      <trkpt lat="44.7607" lon="5.08239">
        <ele>337.56</ele>
        <time>2016-08-23T12:05:33Z</time>
      </trkpt>
      <trkpt lat="44.76071" lon="5.0825">
        <ele>338.52</ele>
        <time>2016-08-23T12:05:44Z</time>
      </trkpt>
      <trkpt lat="44.76071" lon="5.0825">
        <ele>338.52</ele>
        <time>2016-08-23T12:05:47Z</time>
      </trkpt>
      <trkpt lat="44.76071" lon="5.08252">
        <ele>338.52</ele>
        <time>2016-08-23T12:05:48Z</time>
      </trkpt>
      <trkpt lat="44.76071" lon="5.08255">
        <ele>339</ele>
        <time>2016-08-23T12:05:49Z</time>
      </trkpt>
      <trkpt lat="44.76071" lon="5.08257">
        <ele>339</ele>
        <time>2016-08-23T12:05:50Z</time>
      </trkpt>
      <trkpt lat="44.76072" lon="5.0826">
        <ele>339</ele>
        <time>2016-08-23T12:05:51Z</time>
      </trkpt>
      <trkpt lat="44.76072" lon="5.08262">
        <ele>339</ele>
        <time>2016-08-23T12:05:52Z</time>
      </trkpt>
      <trkpt lat="44.76084" lon="5.08284">
        <ele>341.41</ele>
        <time>2016-08-23T12:06:04Z</time>
      </trkpt>
      <trkpt lat="44.76092" lon="5.08297">
        <ele>343.81</ele>
        <time>2016-08-23T12:06:12Z</time>
      </trkpt>
      <trkpt lat="44.76095" lon="5.08304">
        <ele>344.77</ele>
        <time>2016-08-23T12:06:16Z</time>
      </trkpt>
      <trkpt lat="44.76096" lon="5.0833">
        <ele>346.69</ele>
        <time>2016-08-23T12:06:28Z</time>
      </trkpt>
      <trkpt lat="44.76097" lon="5.08336">
        <ele>348.13</ele>
        <time>2016-08-23T12:06:37Z</time>
      </trkpt>
      <trkpt lat="44.76097" lon="5.08336">
        <ele>347.65</ele>
        <time>2016-08-23T12:06:38Z</time>
      </trkpt>
      <trkpt lat="44.76099" lon="5.08348">
        <ele>348.62</ele>
        <time>2016-08-23T12:06:44Z</time>
      </trkpt>
      <trkpt lat="44.761" lon="5.0835">
        <ele>348.62</ele>
        <time>2016-08-23T12:06:45Z</time>
      </trkpt>
      <trkpt lat="44.76111" lon="5.08364">
        <ele>351.02</ele>
        <time>2016-08-23T12:06:56Z</time>
      </trkpt>
      <trkpt lat="44.76115" lon="5.08369">
        <ele>351.98</ele>
        <time>2016-08-23T12:07:00Z</time>
      </trkpt>
      <trkpt lat="44.76116" lon="5.0837">
        <ele>351.98</ele>
        <time>2016-08-23T12:07:01Z</time>
      </trkpt>
      <trkpt lat="44.76118" lon="5.0837">
        <ele>352.46</ele>
        <time>2016-08-23T12:07:02Z</time>
      </trkpt>
      <trkpt lat="44.76129" lon="5.08377">
        <ele>354.38</ele>
        <time>2016-08-23T12:07:12Z</time>
      </trkpt>
      <trkpt lat="44.76131" lon="5.08384">
        <ele>355.83</ele>
        <time>2016-08-23T12:07:24Z</time>
      </trkpt>
      <trkpt lat="44.76132" lon="5.0839">
        <ele>357.27</ele>
        <time>2016-08-23T12:07:41Z</time>
      </trkpt>
      <trkpt lat="44.76135" lon="5.08395">
        <ele>357.27</ele>
        <time>2016-08-23T12:07:45Z</time>
      </trkpt>
      <trkpt lat="44.76137" lon="5.08401">
        <ele>359.19</ele>
        <time>2016-08-23T12:07:50Z</time>
      </trkpt>
      <trkpt lat="44.76143" lon="5.08415">
        <ele>361.59</ele>
        <time>2016-08-23T12:08:03Z</time>
      </trkpt>
      <trkpt lat="44.76147" lon="5.08421">
        <ele>362.07</ele>
        <time>2016-08-23T12:08:08Z</time>
      </trkpt>
      <trkpt lat="44.76147" lon="5.08422">
        <ele>362.55</ele>
        <time>2016-08-23T12:08:10Z</time>
      </trkpt>
      <trkpt lat="44.76148" lon="5.08423">
        <ele>363.04</ele>
        <time>2016-08-23T12:08:11Z</time>
      </trkpt>
      <trkpt lat="44.76148" lon="5.08428">
        <ele>363.52</ele>
        <time>2016-08-23T12:08:15Z</time>
      </trkpt>
      <trkpt lat="44.76146" lon="5.08441">
        <ele>364.48</ele>
        <time>2016-08-23T12:08:28Z</time>
      </trkpt>
      <trkpt lat="44.76146" lon="5.08442">
        <ele>364.48</ele>
        <time>2016-08-23T12:08:29Z</time>
      </trkpt>
      <trkpt lat="44.76145" lon="5.08445">
        <ele>364.48</ele>
        <time>2016-08-23T12:08:31Z</time>
      </trkpt>
      <trkpt lat="44.76139" lon="5.08474">
        <ele>363.04</ele>
        <time>2016-08-23T12:08:38Z</time>
      </trkpt>
      <trkpt lat="44.76139" lon="5.0848">
        <ele>362.55</ele>
        <time>2016-08-23T12:08:39Z</time>
      </trkpt>
      <trkpt lat="44.76137" lon="5.08509">
        <ele>361.59</ele>
        <time>2016-08-23T12:08:44Z</time>
      </trkpt>
      <trkpt lat="44.76139" lon="5.086">
        <ele>359.19</ele>
        <time>2016-08-23T12:08:57Z</time>
      </trkpt>
      <trkpt lat="44.76137" lon="5.08608">
        <ele>358.71</ele>
        <time>2016-08-23T12:08:58Z</time>
      </trkpt>
      <trkpt lat="44.76136" lon="5.08615">
        <ele>358.71</ele>
        <time>2016-08-23T12:08:59Z</time>
      </trkpt>
      <trkpt lat="44.76134" lon="5.08623">
        <ele>358.23</ele>
        <time>2016-08-23T12:09:00Z</time>
      </trkpt>
      <trkpt lat="44.76131" lon="5.0863">
        <ele>358.23</ele>
        <time>2016-08-23T12:09:01Z</time>
      </trkpt>
      <trkpt lat="44.76127" lon="5.08637">
        <ele>357.27</ele>
        <time>2016-08-23T12:09:02Z</time>
      </trkpt>
      <trkpt lat="44.76111" lon="5.08671">
        <ele>356.79</ele>
        <time>2016-08-23T12:09:07Z</time>
      </trkpt>
      <trkpt lat="44.76108" lon="5.08679">
        <ele>356.31</ele>
        <time>2016-08-23T12:09:08Z</time>
      </trkpt>
      <trkpt lat="44.76095" lon="5.08722">
        <ele>356.79</ele>
        <time>2016-08-23T12:09:14Z</time>
      </trkpt>
      <trkpt lat="44.76093" lon="5.08725">
        <ele>356.79</ele>
        <time>2016-08-23T12:09:15Z</time>
      </trkpt>
      <trkpt lat="44.76092" lon="5.08726">
        <ele>357.75</ele>
        <time>2016-08-23T12:09:23Z</time>
      </trkpt>
      <trkpt lat="44.76092" lon="5.08726">
        <ele>357.75</ele>
        <time>2016-08-23T12:09:52Z</time>
      </trkpt>
      <trkpt lat="44.7609" lon="5.0873">
        <ele>358.23</ele>
        <time>2016-08-23T12:09:57Z</time>
      </trkpt>
      <trkpt lat="44.76089" lon="5.08731">
        <ele>358.23</ele>
        <time>2016-08-23T12:09:58Z</time>
      </trkpt>
      <trkpt lat="44.76088" lon="5.08733">
        <ele>358.23</ele>
        <time>2016-08-23T12:09:59Z</time>
      </trkpt>
      <trkpt lat="44.76086" lon="5.08736">
        <ele>358.23</ele>
        <time>2016-08-23T12:10:00Z</time>
      </trkpt>
      <trkpt lat="44.76084" lon="5.08739">
        <ele>358.23</ele>
        <time>2016-08-23T12:10:01Z</time>
      </trkpt>
      <trkpt lat="44.76048" lon="5.08779">
        <ele>360.15</ele>
        <time>2016-08-23T12:10:16Z</time>
      </trkpt>
      <trkpt lat="44.76025" lon="5.08798">
        <ele>360.15</ele>
        <time>2016-08-23T12:10:26Z</time>
      </trkpt>
      <trkpt lat="44.76013" lon="5.08807">
        <ele>361.11</ele>
        <time>2016-08-23T12:10:31Z</time>
      </trkpt>
      <trkpt lat="44.76013" lon="5.08808">
        <ele>361.11</ele>
        <time>2016-08-23T12:10:40Z</time>
      </trkpt>
      <trkpt lat="44.76016" lon="5.08808">
        <ele>360.63</ele>
        <time>2016-08-23T12:10:42Z</time>
      </trkpt>
      <trkpt lat="44.76017" lon="5.08806">
        <ele>360.63</ele>
        <time>2016-08-23T12:10:43Z</time>
      </trkpt>
      <trkpt lat="44.76018" lon="5.08803">
        <ele>360.63</ele>
        <time>2016-08-23T12:10:44Z</time>
      </trkpt>
      <trkpt lat="44.76019" lon="5.08801">
        <ele>360.63</ele>
        <time>2016-08-23T12:10:45Z</time>
      </trkpt>
      <trkpt lat="44.7602" lon="5.088">
        <ele>360.63</ele>
        <time>2016-08-23T12:10:46Z</time>
      </trkpt>
      <trkpt lat="44.7602" lon="5.08799">
        <ele>360.63</ele>
        <time>2016-08-23T12:10:57Z</time>
      </trkpt>
      <trkpt lat="44.76021" lon="5.08799">
        <ele>360.63</ele>
        <time>2016-08-23T12:11:02Z</time>
      </trkpt>
      <trkpt lat="44.7602" lon="5.08798">
        <ele>360.63</ele>
        <time>2016-08-23T12:11:13Z</time>
      </trkpt>
      <trkpt lat="44.7602" lon="5.08798">
        <ele>361.11</ele>
        <time>2016-08-23T12:11:45Z</time>
      </trkpt>
      <trkpt lat="44.7602" lon="5.08801">
        <ele>361.11</ele>
        <time>2016-08-23T12:11:54Z</time>
      </trkpt>
      <trkpt lat="44.7602" lon="5.08803">
        <ele>361.11</ele>
        <time>2016-08-23T12:11:55Z</time>
      </trkpt>
      <trkpt lat="44.7602" lon="5.08805">
        <ele>361.11</ele>
        <time>2016-08-23T12:11:56Z</time>
      </trkpt>
      <trkpt lat="44.7602" lon="5.08808">
        <ele>361.11</ele>
        <time>2016-08-23T12:11:57Z</time>
      </trkpt>
      <trkpt lat="44.76021" lon="5.08811">
        <ele>361.11</ele>
        <time>2016-08-23T12:11:58Z</time>
      </trkpt>
      <trkpt lat="44.76022" lon="5.08815">
        <ele>360.63</ele>
        <time>2016-08-23T12:11:59Z</time>
      </trkpt>
      <trkpt lat="44.76023" lon="5.08819">
        <ele>359.67</ele>
        <time>2016-08-23T12:12:00Z</time>
      </trkpt>
      <trkpt lat="44.76025" lon="5.08823">
        <ele>359.67</ele>
        <time>2016-08-23T12:12:01Z</time>
      </trkpt>
      <trkpt lat="44.7604" lon="5.08865">
        <ele>357.75</ele>
        <time>2016-08-23T12:12:08Z</time>
      </trkpt>
      <trkpt lat="44.76043" lon="5.08871">
        <ele>357.75</ele>
        <time>2016-08-23T12:12:09Z</time>
      </trkpt>
      <trkpt lat="44.76047" lon="5.08877">
        <ele>357.27</ele>
        <time>2016-08-23T12:12:10Z</time>
      </trkpt>
      <trkpt lat="44.76051" lon="5.08882">
        <ele>357.27</ele>
        <time>2016-08-23T12:12:11Z</time>
      </trkpt>
      <trkpt lat="44.76055" lon="5.08887">
        <ele>356.79</ele>
        <time>2016-08-23T12:12:12Z</time>
      </trkpt>
      <trkpt lat="44.76058" lon="5.08892">
        <ele>356.79</ele>
        <time>2016-08-23T12:12:13Z</time>
      </trkpt>
      <trkpt lat="44.76061" lon="5.08898">
        <ele>356.79</ele>
        <time>2016-08-23T12:12:14Z</time>
      </trkpt>
      <trkpt lat="44.76063" lon="5.08904">
        <ele>356.79</ele>
        <time>2016-08-23T12:12:15Z</time>
      </trkpt>
      <trkpt lat="44.76066" lon="5.08916">
        <ele>356.31</ele>
        <time>2016-08-23T12:12:17Z</time>
      </trkpt>
      <trkpt lat="44.76069" lon="5.08921">
        <ele>356.31</ele>
        <time>2016-08-23T12:12:18Z</time>
      </trkpt>
      <trkpt lat="44.76088" lon="5.0897">
        <ele>356.79</ele>
        <time>2016-08-23T12:12:31Z</time>
      </trkpt>
      <trkpt lat="44.76099" lon="5.09007">
        <ele>358.71</ele>
        <time>2016-08-23T12:12:43Z</time>
      </trkpt>
      <trkpt lat="44.76113" lon="5.09044">
        <ele>360.63</ele>
        <time>2016-08-23T12:12:55Z</time>
      </trkpt>
      <trkpt lat="44.76122" lon="5.0906">
        <ele>362.07</ele>
        <time>2016-08-23T12:13:06Z</time>
      </trkpt>
      <trkpt lat="44.76123" lon="5.0906">
        <ele>362.55</ele>
        <time>2016-08-23T12:13:07Z</time>
      </trkpt>
      <trkpt lat="44.76129" lon="5.09064">
        <ele>364</ele>
        <time>2016-08-23T12:13:13Z</time>
      </trkpt>
      <trkpt lat="44.7613" lon="5.0907">
        <ele>364.48</ele>
        <time>2016-08-23T12:13:20Z</time>
      </trkpt>
      <trkpt lat="44.76129" lon="5.09111">
        <ele>365.92</ele>
        <time>2016-08-23T12:13:32Z</time>
      </trkpt>
      <trkpt lat="44.7611" lon="5.09161">
        <ele>368.8</ele>
        <time>2016-08-23T12:13:45Z</time>
      </trkpt>
      <trkpt lat="44.76091" lon="5.09228">
        <ele>371.21</ele>
        <time>2016-08-23T12:14:01Z</time>
      </trkpt>
      <trkpt lat="44.7609" lon="5.09285">
        <ele>372.65</ele>
        <time>2016-08-23T12:14:14Z</time>
      </trkpt>
      <trkpt lat="44.76051" lon="5.09291">
        <ele>374.09</ele>
        <time>2016-08-23T12:14:25Z</time>
      </trkpt>
      <trkpt lat="44.76046" lon="5.09307">
        <ele>376.01</ele>
        <time>2016-08-23T12:14:30Z</time>
      </trkpt>
      <trkpt lat="44.76058" lon="5.09322">
        <ele>378.42</ele>
        <time>2016-08-23T12:14:38Z</time>
      </trkpt>
      <trkpt lat="44.76082" lon="5.09318">
        <ele>381.3</ele>
        <time>2016-08-23T12:14:53Z</time>
      </trkpt>
      <trkpt lat="44.76088" lon="5.09318">
        <ele>382.26</ele>
        <time>2016-08-23T12:14:56Z</time>
      </trkpt>
      <trkpt lat="44.7609" lon="5.09341">
        <ele>384.66</ele>
        <time>2016-08-23T12:15:09Z</time>
      </trkpt>
      <trkpt lat="44.76064" lon="5.09366">
        <ele>387.55</ele>
        <time>2016-08-23T12:15:27Z</time>
      </trkpt>
      <trkpt lat="44.76038" lon="5.09396">
        <ele>390.91</ele>
        <time>2016-08-23T12:15:46Z</time>
      </trkpt>
      <trkpt lat="44.76017" lon="5.09419">
        <ele>393.8</ele>
        <time>2016-08-23T12:16:02Z</time>
      </trkpt>
      <trkpt lat="44.76014" lon="5.09424">
        <ele>394.28</ele>
        <time>2016-08-23T12:16:05Z</time>
      </trkpt>
      <trkpt lat="44.75995" lon="5.09453">
        <ele>397.64</ele>
        <time>2016-08-23T12:16:22Z</time>
      </trkpt>
      <trkpt lat="44.7598" lon="5.09478">
        <ele>401.01</ele>
        <time>2016-08-23T12:16:36Z</time>
      </trkpt>
      <trkpt lat="44.75969" lon="5.09509">
        <ele>403.41</ele>
        <time>2016-08-23T12:16:51Z</time>
      </trkpt>
      <trkpt lat="44.75976" lon="5.09518">
        <ele>404.85</ele>
        <time>2016-08-23T12:16:57Z</time>
      </trkpt>
      <trkpt lat="44.75992" lon="5.0951">
        <ele>407.26</ele>
        <time>2016-08-23T12:17:08Z</time>
      </trkpt>
      <trkpt lat="44.75999" lon="5.095">
        <ele>407.74</ele>
        <time>2016-08-23T12:17:14Z</time>
      </trkpt>
      <trkpt lat="44.76013" lon="5.095">
        <ele>409.66</ele>
        <time>2016-08-23T12:17:23Z</time>
      </trkpt>
      <trkpt lat="44.76012" lon="5.09517">
        <ele>411.58</ele>
        <time>2016-08-23T12:17:31Z</time>
      </trkpt>
      <trkpt lat="44.75988" lon="5.09542">
        <ele>413.98</ele>
        <time>2016-08-23T12:17:48Z</time>
      </trkpt>
      <trkpt lat="44.75966" lon="5.09571">
        <ele>416.87</ele>
        <time>2016-08-23T12:18:05Z</time>
      </trkpt>
      <trkpt lat="44.75941" lon="5.09605">
        <ele>419.75</ele>
        <time>2016-08-23T12:18:24Z</time>
      </trkpt>
      <trkpt lat="44.75914" lon="5.09642">
        <ele>421.19</ele>
        <time>2016-08-23T12:18:41Z</time>
      </trkpt>
      <trkpt lat="44.75886" lon="5.09681">
        <ele>420.71</ele>
        <time>2016-08-23T12:18:54Z</time>
      </trkpt>
      <trkpt lat="44.75877" lon="5.09689">
        <ele>419.27</ele>
        <time>2016-08-23T12:18:56Z</time>
      </trkpt>
      <trkpt lat="44.75872" lon="5.09693">
        <ele>418.79</ele>
        <time>2016-08-23T12:18:57Z</time>
      </trkpt>
      <trkpt lat="44.75866" lon="5.09697">
        <ele>417.35</ele>
        <time>2016-08-23T12:18:58Z</time>
      </trkpt>
      <trkpt lat="44.75859" lon="5.097">
        <ele>416.87</ele>
        <time>2016-08-23T12:18:59Z</time>
      </trkpt>
      <trkpt lat="44.75852" lon="5.09703">
        <ele>416.39</ele>
        <time>2016-08-23T12:19:00Z</time>
      </trkpt>
      <trkpt lat="44.75836" lon="5.09712">
        <ele>414.47</ele>
        <time>2016-08-23T12:19:02Z</time>
      </trkpt>
      <trkpt lat="44.75829" lon="5.09717">
        <ele>413.98</ele>
        <time>2016-08-23T12:19:03Z</time>
      </trkpt>
      <trkpt lat="44.75822" lon="5.09724">
        <ele>413.98</ele>
        <time>2016-08-23T12:19:04Z</time>
      </trkpt>
      <trkpt lat="44.75817" lon="5.09733">
        <ele>413.02</ele>
        <time>2016-08-23T12:19:05Z</time>
      </trkpt>
      <trkpt lat="44.75812" lon="5.09744">
        <ele>412.06</ele>
        <time>2016-08-23T12:19:06Z</time>
      </trkpt>
      <trkpt lat="44.75807" lon="5.09755">
        <ele>411.1</ele>
        <time>2016-08-23T12:19:07Z</time>
      </trkpt>
      <trkpt lat="44.75803" lon="5.09766">
        <ele>410.62</ele>
        <time>2016-08-23T12:19:08Z</time>
      </trkpt>
      <trkpt lat="44.75798" lon="5.09777">
        <ele>409.66</ele>
        <time>2016-08-23T12:19:09Z</time>
      </trkpt>
      <trkpt lat="44.75792" lon="5.09786">
        <ele>409.18</ele>
        <time>2016-08-23T12:19:10Z</time>
      </trkpt>
      <trkpt lat="44.75785" lon="5.09793">
        <ele>408.22</ele>
        <time>2016-08-23T12:19:11Z</time>
      </trkpt>
      <trkpt lat="44.75777" lon="5.09798">
        <ele>407.74</ele>
        <time>2016-08-23T12:19:12Z</time>
      </trkpt>
      <trkpt lat="44.75768" lon="5.09802">
        <ele>407.26</ele>
        <time>2016-08-23T12:19:13Z</time>
      </trkpt>
      <trkpt lat="44.75759" lon="5.09805">
        <ele>406.77</ele>
        <time>2016-08-23T12:19:14Z</time>
      </trkpt>
      <trkpt lat="44.75751" lon="5.09808">
        <ele>406.29</ele>
        <time>2016-08-23T12:19:15Z</time>
      </trkpt>
      <trkpt lat="44.75743" lon="5.09813">
        <ele>405.81</ele>
        <time>2016-08-23T12:19:16Z</time>
      </trkpt>
      <trkpt lat="44.75737" lon="5.09819">
        <ele>405.33</ele>
        <time>2016-08-23T12:19:17Z</time>
      </trkpt>
      <trkpt lat="44.75732" lon="5.09826">
        <ele>404.85</ele>
        <time>2016-08-23T12:19:18Z</time>
      </trkpt>
      <trkpt lat="44.75728" lon="5.09831">
        <ele>404.37</ele>
        <time>2016-08-23T12:19:19Z</time>
      </trkpt>
      <trkpt lat="44.75726" lon="5.09836">
        <ele>404.85</ele>
        <time>2016-08-23T12:19:20Z</time>
      </trkpt>
      <trkpt lat="44.75725" lon="5.09844">
        <ele>404.37</ele>
        <time>2016-08-23T12:19:24Z</time>
      </trkpt>
      <trkpt lat="44.75727" lon="5.09846">
        <ele>404.37</ele>
        <time>2016-08-23T12:19:25Z</time>
      </trkpt>
      <trkpt lat="44.75729" lon="5.09846">
        <ele>404.37</ele>
        <time>2016-08-23T12:19:26Z</time>
      </trkpt>
      <trkpt lat="44.75734" lon="5.09836">
        <ele>406.29</ele>
        <time>2016-08-23T12:19:32Z</time>
      </trkpt>
      <trkpt lat="44.75736" lon="5.09832">
        <ele>406.77</ele>
        <time>2016-08-23T12:19:35Z</time>
      </trkpt>
      <trkpt lat="44.7574" lon="5.09825">
        <ele>407.74</ele>
        <time>2016-08-23T12:19:40Z</time>
      </trkpt>
      <trkpt lat="44.75745" lon="5.09819">
        <ele>408.22</ele>
        <time>2016-08-23T12:19:45Z</time>
      </trkpt>
      <trkpt lat="44.75756" lon="5.09829">
        <ele>411.1</ele>
        <time>2016-08-23T12:19:57Z</time>
      </trkpt>
      <trkpt lat="44.75767" lon="5.0985">
        <ele>414.47</ele>
        <time>2016-08-23T12:20:11Z</time>
      </trkpt>
      <trkpt lat="44.75769" lon="5.09851">
        <ele>414.47</ele>
        <time>2016-08-23T12:20:13Z</time>
      </trkpt>
      <trkpt lat="44.75787" lon="5.09854">
        <ele>417.83</ele>
        <time>2016-08-23T12:20:27Z</time>
      </trkpt>
      <trkpt lat="44.75809" lon="5.09855">
        <ele>420.71</ele>
        <time>2016-08-23T12:20:41Z</time>
      </trkpt>
      <trkpt lat="44.7582" lon="5.09856">
        <ele>422.16</ele>
        <time>2016-08-23T12:20:49Z</time>
      </trkpt>
      <trkpt lat="44.7584" lon="5.09856">
        <ele>425.52</ele>
        <time>2016-08-23T12:21:03Z</time>
      </trkpt>
      <trkpt lat="44.75857" lon="5.09839">
        <ele>428.4</ele>
        <time>2016-08-23T12:21:17Z</time>
      </trkpt>
      <trkpt lat="44.75877" lon="5.09827">
        <ele>430.33</ele>
        <time>2016-08-23T12:21:31Z</time>
      </trkpt>
      <trkpt lat="44.75902" lon="5.09824">
        <ele>433.69</ele>
        <time>2016-08-23T12:21:46Z</time>
      </trkpt>
      <trkpt lat="44.75922" lon="5.09826">
        <ele>436.1</ele>
        <time>2016-08-23T12:21:59Z</time>
      </trkpt>
      <trkpt lat="44.75942" lon="5.09815">
        <ele>438.98</ele>
        <time>2016-08-23T12:22:13Z</time>
      </trkpt>
      <trkpt lat="44.75945" lon="5.09815">
        <ele>439.46</ele>
        <time>2016-08-23T12:22:15Z</time>
      </trkpt>
      <trkpt lat="44.75956" lon="5.09808">
        <ele>440.9</ele>
        <time>2016-08-23T12:22:23Z</time>
      </trkpt>
      <trkpt lat="44.75977" lon="5.09798">
        <ele>444.27</ele>
        <time>2016-08-23T12:22:38Z</time>
      </trkpt>
      <trkpt lat="44.76002" lon="5.09796">
        <ele>446.67</ele>
        <time>2016-08-23T12:22:52Z</time>
      </trkpt>
      <trkpt lat="44.76034" lon="5.09796">
        <ele>446.19</ele>
        <time>2016-08-23T12:23:06Z</time>
      </trkpt>
      <trkpt lat="44.76065" lon="5.09796">
        <ele>444.27</ele>
        <time>2016-08-23T12:23:12Z</time>
      </trkpt>
      <trkpt lat="44.76085" lon="5.09799">
        <ele>443.79</ele>
        <time>2016-08-23T12:23:16Z</time>
      </trkpt>
      <trkpt lat="44.7609" lon="5.098">
        <ele>444.27</ele>
        <time>2016-08-23T12:23:17Z</time>
      </trkpt>
      <trkpt lat="44.76094" lon="5.09802">
        <ele>444.27</ele>
        <time>2016-08-23T12:23:18Z</time>
      </trkpt>
      <trkpt lat="44.76138" lon="5.09826">
        <ele>442.82</ele>
        <time>2016-08-23T12:23:27Z</time>
      </trkpt>
      <trkpt lat="44.76142" lon="5.09829">
        <ele>443.31</ele>
        <time>2016-08-23T12:23:28Z</time>
      </trkpt>
      <trkpt lat="44.76181" lon="5.09849">
        <ele>445.71</ele>
        <time>2016-08-23T12:23:39Z</time>
      </trkpt>
      <trkpt lat="44.76213" lon="5.09866">
        <ele>447.63</ele>
        <time>2016-08-23T12:23:52Z</time>
      </trkpt>
      <trkpt lat="44.7623" lon="5.09872">
        <ele>446.67</ele>
        <time>2016-08-23T12:23:56Z</time>
      </trkpt>
      <trkpt lat="44.76234" lon="5.09873">
        <ele>447.15</ele>
        <time>2016-08-23T12:23:57Z</time>
      </trkpt>
      <trkpt lat="44.76238" lon="5.09872">
        <ele>447.15</ele>
        <time>2016-08-23T12:23:58Z</time>
      </trkpt>
      <trkpt lat="44.76242" lon="5.09872">
        <ele>447.15</ele>
        <time>2016-08-23T12:23:59Z</time>
      </trkpt>
      <trkpt lat="44.76245" lon="5.0987">
        <ele>447.15</ele>
        <time>2016-08-23T12:24:00Z</time>
      </trkpt>
      <trkpt lat="44.76248" lon="5.09868">
        <ele>447.63</ele>
        <time>2016-08-23T12:24:01Z</time>
      </trkpt>
      <trkpt lat="44.76283" lon="5.09852">
        <ele>450.52</ele>
        <time>2016-08-23T12:24:15Z</time>
      </trkpt>
      <trkpt lat="44.76321" lon="5.09858">
        <ele>453.4</ele>
        <time>2016-08-23T12:24:33Z</time>
      </trkpt>
      <trkpt lat="44.76344" lon="5.09869">
        <ele>455.8</ele>
        <time>2016-08-23T12:24:46Z</time>
      </trkpt>
      <trkpt lat="44.76356" lon="5.09875">
        <ele>457.72</ele>
        <time>2016-08-23T12:24:55Z</time>
      </trkpt>
      <trkpt lat="44.76357" lon="5.09875">
        <ele>458.21</ele>
        <time>2016-08-23T12:24:56Z</time>
      </trkpt>
      <trkpt lat="44.76359" lon="5.09875">
        <ele>458.21</ele>
        <time>2016-08-23T12:24:57Z</time>
      </trkpt>
      <trkpt lat="44.7636" lon="5.09875">
        <ele>458.21</ele>
        <time>2016-08-23T12:24:58Z</time>
      </trkpt>
      <trkpt lat="44.76362" lon="5.09876">
        <ele>458.69</ele>
        <time>2016-08-23T12:24:59Z</time>
      </trkpt>
      <trkpt lat="44.76385" lon="5.09883">
        <ele>459.65</ele>
        <time>2016-08-23T12:25:13Z</time>
      </trkpt>
      <trkpt lat="44.76387" lon="5.09884">
        <ele>459.65</ele>
        <time>2016-08-23T12:25:14Z</time>
      </trkpt>
      <trkpt lat="44.76409" lon="5.09883">
        <ele>457.72</ele>
        <time>2016-08-23T12:25:23Z</time>
      </trkpt>
      <trkpt lat="44.76414" lon="5.09884">
        <ele>457.72</ele>
        <time>2016-08-23T12:25:24Z</time>
      </trkpt>
      <trkpt lat="44.76418" lon="5.09884">
        <ele>458.21</ele>
        <time>2016-08-23T12:25:25Z</time>
      </trkpt>
      <trkpt lat="44.76434" lon="5.09881">
        <ele>460.61</ele>
        <time>2016-08-23T12:25:33Z</time>
      </trkpt>
      <trkpt lat="44.76441" lon="5.0988">
        <ele>461.57</ele>
        <time>2016-08-23T12:25:44Z</time>
      </trkpt>
      <trkpt lat="44.76447" lon="5.09878">
        <ele>462.05</ele>
        <time>2016-08-23T12:26:01Z</time>
      </trkpt>
      <trkpt lat="44.76451" lon="5.09877">
        <ele>463.01</ele>
        <time>2016-08-23T12:26:04Z</time>
      </trkpt>
      <trkpt lat="44.76463" lon="5.09877">
        <ele>465.42</ele>
        <time>2016-08-23T12:26:13Z</time>
      </trkpt>
      <trkpt lat="44.76477" lon="5.0988">
        <ele>467.34</ele>
        <time>2016-08-23T12:26:25Z</time>
      </trkpt>
      <trkpt lat="44.76494" lon="5.09883">
        <ele>468.78</ele>
        <time>2016-08-23T12:26:37Z</time>
      </trkpt>
      <trkpt lat="44.765" lon="5.09885">
        <ele>469.26</ele>
        <time>2016-08-23T12:26:41Z</time>
      </trkpt>
      <trkpt lat="44.76514" lon="5.09887">
        <ele>471.18</ele>
        <time>2016-08-23T12:26:51Z</time>
      </trkpt>
      <trkpt lat="44.76516" lon="5.09887">
        <ele>471.18</ele>
        <time>2016-08-23T12:26:52Z</time>
      </trkpt>
      <trkpt lat="44.76531" lon="5.09894">
        <ele>472.63</ele>
        <time>2016-08-23T12:27:03Z</time>
      </trkpt>
      <trkpt lat="44.76533" lon="5.09894">
        <ele>473.11</ele>
        <time>2016-08-23T12:27:04Z</time>
      </trkpt>
      <trkpt lat="44.7655" lon="5.09896">
        <ele>475.03</ele>
        <time>2016-08-23T12:27:16Z</time>
      </trkpt>
      <trkpt lat="44.76569" lon="5.09895">
        <ele>477.43</ele>
        <time>2016-08-23T12:27:28Z</time>
      </trkpt>
      <trkpt lat="44.76578" lon="5.09894">
        <ele>478.87</ele>
        <time>2016-08-23T12:27:36Z</time>
      </trkpt>
      <trkpt lat="44.76595" lon="5.09888">
        <ele>481.28</ele>
        <time>2016-08-23T12:27:49Z</time>
      </trkpt>
      <trkpt lat="44.76608" lon="5.09885">
        <ele>483.2</ele>
        <time>2016-08-23T12:28:00Z</time>
      </trkpt>
      <trkpt lat="44.76623" lon="5.09879">
        <ele>487.05</ele>
        <time>2016-08-23T12:28:12Z</time>
      </trkpt>
      <trkpt lat="44.76635" lon="5.09873">
        <ele>488.97</ele>
        <time>2016-08-23T12:28:22Z</time>
      </trkpt>
      <trkpt lat="44.76649" lon="5.09867">
        <ele>492.33</ele>
        <time>2016-08-23T12:28:34Z</time>
      </trkpt>
      <trkpt lat="44.76651" lon="5.09867">
        <ele>492.81</ele>
        <time>2016-08-23T12:28:36Z</time>
      </trkpt>
      <trkpt lat="44.76676" lon="5.09864">
        <ele>493.29</ele>
        <time>2016-08-23T12:28:52Z</time>
      </trkpt>
      <trkpt lat="44.76682" lon="5.09862">
        <ele>493.77</ele>
        <time>2016-08-23T12:28:56Z</time>
      </trkpt>
      <trkpt lat="44.76694" lon="5.09852">
        <ele>497.14</ele>
        <time>2016-08-23T12:29:08Z</time>
      </trkpt>
      <trkpt lat="44.76707" lon="5.09848">
        <ele>500.02</ele>
        <time>2016-08-23T12:29:20Z</time>
      </trkpt>
      <trkpt lat="44.7671" lon="5.09848">
        <ele>500.5</ele>
        <time>2016-08-23T12:29:23Z</time>
      </trkpt>
      <trkpt lat="44.76732" lon="5.09852">
        <ele>501.95</ele>
        <time>2016-08-23T12:29:38Z</time>
      </trkpt>
      <trkpt lat="44.76736" lon="5.09852">
        <ele>502.43</ele>
        <time>2016-08-23T12:29:40Z</time>
      </trkpt>
      <trkpt lat="44.76749" lon="5.09853">
        <ele>502.91</ele>
        <time>2016-08-23T12:29:49Z</time>
      </trkpt>
      <trkpt lat="44.76752" lon="5.09854">
        <ele>502.43</ele>
        <time>2016-08-23T12:29:51Z</time>
      </trkpt>
      <trkpt lat="44.76769" lon="5.09854">
        <ele>504.35</ele>
        <time>2016-08-23T12:30:02Z</time>
      </trkpt>
      <trkpt lat="44.76771" lon="5.09854">
        <ele>504.35</ele>
        <time>2016-08-23T12:30:04Z</time>
      </trkpt>
      <trkpt lat="44.76777" lon="5.09854">
        <ele>504.83</ele>
        <time>2016-08-23T12:30:08Z</time>
      </trkpt>
      <trkpt lat="44.76791" lon="5.09852">
        <ele>506.27</ele>
        <time>2016-08-23T12:30:18Z</time>
      </trkpt>
      <trkpt lat="44.76801" lon="5.0985">
        <ele>507.23</ele>
        <time>2016-08-23T12:30:24Z</time>
      </trkpt>
      <trkpt lat="44.76813" lon="5.09848">
        <ele>508.67</ele>
        <time>2016-08-23T12:30:32Z</time>
      </trkpt>
      <trkpt lat="44.76842" lon="5.09854">
        <ele>506.75</ele>
        <time>2016-08-23T12:30:44Z</time>
      </trkpt>
      <trkpt lat="44.76862" lon="5.09862">
        <ele>507.71</ele>
        <time>2016-08-23T12:30:52Z</time>
      </trkpt>
      <trkpt lat="44.76883" lon="5.09872">
        <ele>509.16</ele>
        <time>2016-08-23T12:31:03Z</time>
      </trkpt>
      <trkpt lat="44.76889" lon="5.09878">
        <ele>510.12</ele>
        <time>2016-08-23T12:31:07Z</time>
      </trkpt>
      <trkpt lat="44.76894" lon="5.09881">
        <ele>510.12</ele>
        <time>2016-08-23T12:31:10Z</time>
      </trkpt>
      <trkpt lat="44.76898" lon="5.09896">
        <ele>508.19</ele>
        <time>2016-08-23T12:31:14Z</time>
      </trkpt>
      <trkpt lat="44.76915" lon="5.09898">
        <ele>509.16</ele>
        <time>2016-08-23T12:31:24Z</time>
      </trkpt>
      <trkpt lat="44.76917" lon="5.099">
        <ele>508.67</ele>
        <time>2016-08-23T12:31:25Z</time>
      </trkpt>
      <trkpt lat="44.76941" lon="5.09911">
        <ele>509.64</ele>
        <time>2016-08-23T12:31:38Z</time>
      </trkpt>
      <trkpt lat="44.7696" lon="5.09921">
        <ele>510.6</ele>
        <time>2016-08-23T12:31:50Z</time>
      </trkpt>
      <trkpt lat="44.76963" lon="5.09923">
        <ele>511.08</ele>
        <time>2016-08-23T12:31:52Z</time>
      </trkpt>
      <trkpt lat="44.76972" lon="5.09927">
        <ele>511.56</ele>
        <time>2016-08-23T12:31:58Z</time>
      </trkpt>
      <trkpt lat="44.76976" lon="5.0993">
        <ele>512.04</ele>
        <time>2016-08-23T12:32:01Z</time>
      </trkpt>
      <trkpt lat="44.76992" lon="5.09939">
        <ele>513.48</ele>
        <time>2016-08-23T12:32:14Z</time>
      </trkpt>
      <trkpt lat="44.76993" lon="5.09939">
        <ele>513.96</ele>
        <time>2016-08-23T12:32:15Z</time>
      </trkpt>
      <trkpt lat="44.77007" lon="5.09945">
        <ele>516.37</ele>
        <time>2016-08-23T12:32:28Z</time>
      </trkpt>
      <trkpt lat="44.77019" lon="5.09947">
        <ele>517.81</ele>
        <time>2016-08-23T12:32:39Z</time>
      </trkpt>
      <trkpt lat="44.77024" lon="5.09949">
        <ele>518.77</ele>
        <time>2016-08-23T12:32:45Z</time>
      </trkpt>
      <trkpt lat="44.77034" lon="5.09954">
        <ele>519.73</ele>
        <time>2016-08-23T12:32:53Z</time>
      </trkpt>
      <trkpt lat="44.77045" lon="5.0996">
        <ele>520.69</ele>
        <time>2016-08-23T12:33:02Z</time>
      </trkpt>
      <trkpt lat="44.77048" lon="5.09962">
        <ele>521.65</ele>
        <time>2016-08-23T12:33:05Z</time>
      </trkpt>
      <trkpt lat="44.77056" lon="5.09965">
        <ele>523.09</ele>
        <time>2016-08-23T12:33:12Z</time>
      </trkpt>
      <trkpt lat="44.77064" lon="5.09965">
        <ele>523.58</ele>
        <time>2016-08-23T12:33:18Z</time>
      </trkpt>
      <trkpt lat="44.77071" lon="5.09966">
        <ele>525.02</ele>
        <time>2016-08-23T12:33:27Z</time>
      </trkpt>
      <trkpt lat="44.77076" lon="5.09968">
        <ele>525.98</ele>
        <time>2016-08-23T12:33:31Z</time>
      </trkpt>
      <trkpt lat="44.77079" lon="5.0997">
        <ele>526.46</ele>
        <time>2016-08-23T12:33:34Z</time>
      </trkpt>
      <trkpt lat="44.77091" lon="5.09967">
        <ele>528.86</ele>
        <time>2016-08-23T12:33:46Z</time>
      </trkpt>
      <trkpt lat="44.77099" lon="5.09961">
        <ele>530.3</ele>
        <time>2016-08-23T12:34:00Z</time>
      </trkpt>
      <trkpt lat="44.77105" lon="5.0996">
        <ele>530.3</ele>
        <time>2016-08-23T12:34:11Z</time>
      </trkpt>
      <trkpt lat="44.77116" lon="5.09954">
        <ele>530.79</ele>
        <time>2016-08-23T12:34:20Z</time>
      </trkpt>
      <trkpt lat="44.77119" lon="5.09951">
        <ele>531.27</ele>
        <time>2016-08-23T12:34:23Z</time>
      </trkpt>
      <trkpt lat="44.77121" lon="5.09949">
        <ele>531.75</ele>
        <time>2016-08-23T12:34:25Z</time>
      </trkpt>
      <trkpt lat="44.77128" lon="5.09947">
        <ele>532.23</ele>
        <time>2016-08-23T12:34:30Z</time>
      </trkpt>
      <trkpt lat="44.77141" lon="5.09947">
        <ele>533.67</ele>
        <time>2016-08-23T12:34:38Z</time>
      </trkpt>
      <trkpt lat="44.77146" lon="5.09943">
        <ele>534.63</ele>
        <time>2016-08-23T12:34:42Z</time>
      </trkpt>
      <trkpt lat="44.77149" lon="5.09942">
        <ele>534.63</ele>
        <time>2016-08-23T12:34:44Z</time>
      </trkpt>
      <trkpt lat="44.77164" lon="5.09942">
        <ele>536.07</ele>
        <time>2016-08-23T12:34:55Z</time>
      </trkpt>
      <trkpt lat="44.77166" lon="5.09943">
        <ele>536.07</ele>
        <time>2016-08-23T12:34:57Z</time>
      </trkpt>
      <trkpt lat="44.77172" lon="5.09943">
        <ele>536.55</ele>
        <time>2016-08-23T12:35:01Z</time>
      </trkpt>
      <trkpt lat="44.77186" lon="5.09934">
        <ele>538.48</ele>
        <time>2016-08-23T12:35:12Z</time>
      </trkpt>
      <trkpt lat="44.77204" lon="5.0993">
        <ele>539.92</ele>
        <time>2016-08-23T12:35:24Z</time>
      </trkpt>
      <trkpt lat="44.77213" lon="5.09929">
        <ele>540.88</ele>
        <time>2016-08-23T12:35:30Z</time>
      </trkpt>
      <trkpt lat="44.77231" lon="5.09925">
        <ele>542.32</ele>
        <time>2016-08-23T12:35:42Z</time>
      </trkpt>
      <trkpt lat="44.77235" lon="5.09924">
        <ele>542.8</ele>
        <time>2016-08-23T12:35:45Z</time>
      </trkpt>
      <trkpt lat="44.77246" lon="5.09925">
        <ele>544.24</ele>
        <time>2016-08-23T12:35:56Z</time>
      </trkpt>
      <trkpt lat="44.77246" lon="5.09924">
        <ele>544.72</ele>
        <time>2016-08-23T12:36:18Z</time>
      </trkpt>
      <trkpt lat="44.77249" lon="5.09921">
        <ele>544.72</ele>
        <time>2016-08-23T12:36:20Z</time>
      </trkpt>
      <trkpt lat="44.77255" lon="5.09919">
        <ele>545.2</ele>
        <time>2016-08-23T12:36:24Z</time>
      </trkpt>
      <trkpt lat="44.77275" lon="5.09911">
        <ele>547.13</ele>
        <time>2016-08-23T12:36:37Z</time>
      </trkpt>
      <trkpt lat="44.7728" lon="5.09911">
        <ele>547.61</ele>
        <time>2016-08-23T12:36:40Z</time>
      </trkpt>
      <trkpt lat="44.77302" lon="5.09913">
        <ele>549.05</ele>
        <time>2016-08-23T12:36:51Z</time>
      </trkpt>
      <trkpt lat="44.77308" lon="5.09911">
        <ele>549.53</ele>
        <time>2016-08-23T12:36:54Z</time>
      </trkpt>
      <trkpt lat="44.77313" lon="5.09911">
        <ele>549.53</ele>
        <time>2016-08-23T12:36:57Z</time>
      </trkpt>
      <trkpt lat="44.77319" lon="5.09914">
        <ele>549.53</ele>
        <time>2016-08-23T12:37:00Z</time>
      </trkpt>
      <trkpt lat="44.77333" lon="5.09908">
        <ele>550.97</ele>
        <time>2016-08-23T12:37:08Z</time>
      </trkpt>
      <trkpt lat="44.77348" lon="5.09901">
        <ele>551.93</ele>
        <time>2016-08-23T12:37:18Z</time>
      </trkpt>
      <trkpt lat="44.77353" lon="5.09901">
        <ele>552.9</ele>
        <time>2016-08-23T12:37:23Z</time>
      </trkpt>
      <trkpt lat="44.77366" lon="5.09896">
        <ele>553.86</ele>
        <time>2016-08-23T12:37:30Z</time>
      </trkpt>
      <trkpt lat="44.77378" lon="5.09888">
        <ele>555.3</ele>
        <time>2016-08-23T12:37:38Z</time>
      </trkpt>
      <trkpt lat="44.77385" lon="5.09887">
        <ele>556.74</ele>
        <time>2016-08-23T12:37:44Z</time>
      </trkpt>
      <trkpt lat="44.77395" lon="5.09885">
        <ele>558.18</ele>
        <time>2016-08-23T12:37:52Z</time>
      </trkpt>
      <trkpt lat="44.7741" lon="5.09885">
        <ele>559.62</ele>
        <time>2016-08-23T12:38:04Z</time>
      </trkpt>
      <trkpt lat="44.77415" lon="5.09883">
        <ele>560.59</ele>
        <time>2016-08-23T12:38:08Z</time>
      </trkpt>
      <trkpt lat="44.77433" lon="5.09882">
        <ele>562.51</ele>
        <time>2016-08-23T12:38:22Z</time>
      </trkpt>
      <trkpt lat="44.77444" lon="5.09882">
        <ele>563.95</ele>
        <time>2016-08-23T12:38:30Z</time>
      </trkpt>
      <trkpt lat="44.77456" lon="5.09875">
        <ele>565.39</ele>
        <time>2016-08-23T12:38:40Z</time>
      </trkpt>
      <trkpt lat="44.77458" lon="5.09874">
        <ele>565.39</ele>
        <time>2016-08-23T12:38:41Z</time>
      </trkpt>
      <trkpt lat="44.77462" lon="5.09872">
        <ele>565.87</ele>
        <time>2016-08-23T12:38:44Z</time>
      </trkpt>
      <trkpt lat="44.77474" lon="5.09868">
        <ele>566.83</ele>
        <time>2016-08-23T12:38:52Z</time>
      </trkpt>
      <trkpt lat="44.77479" lon="5.09865">
        <ele>567.32</ele>
        <time>2016-08-23T12:38:56Z</time>
      </trkpt>
      <trkpt lat="44.77484" lon="5.0986">
        <ele>567.8</ele>
        <time>2016-08-23T12:39:00Z</time>
      </trkpt>
      <trkpt lat="44.77497" lon="5.0985">
        <ele>569.24</ele>
        <time>2016-08-23T12:39:10Z</time>
      </trkpt>
      <trkpt lat="44.77503" lon="5.09847">
        <ele>569.72</ele>
        <time>2016-08-23T12:39:14Z</time>
      </trkpt>
      <trkpt lat="44.77514" lon="5.09845">
        <ele>570.68</ele>
        <time>2016-08-23T12:39:21Z</time>
      </trkpt>
      <trkpt lat="44.77526" lon="5.09844">
        <ele>572.12</ele>
        <time>2016-08-23T12:39:28Z</time>
      </trkpt>
      <trkpt lat="44.77535" lon="5.09844">
        <ele>572.6</ele>
        <time>2016-08-23T12:39:33Z</time>
      </trkpt>
      <trkpt lat="44.77542" lon="5.09845">
        <ele>573.08</ele>
        <time>2016-08-23T12:39:38Z</time>
      </trkpt>
      <trkpt lat="44.77547" lon="5.09842">
        <ele>573.56</ele>
        <time>2016-08-23T12:39:41Z</time>
      </trkpt>
      <trkpt lat="44.77557" lon="5.0984">
        <ele>574.53</ele>
        <time>2016-08-23T12:39:47Z</time>
      </trkpt>
      <trkpt lat="44.77564" lon="5.09835">
        <ele>575.49</ele>
        <time>2016-08-23T12:39:53Z</time>
      </trkpt>
      <trkpt lat="44.7757" lon="5.09832">
        <ele>575.49</ele>
        <time>2016-08-23T12:39:57Z</time>
      </trkpt>
      <trkpt lat="44.77573" lon="5.09831">
        <ele>575.97</ele>
        <time>2016-08-23T12:39:59Z</time>
      </trkpt>
      <trkpt lat="44.77586" lon="5.09834">
        <ele>577.41</ele>
        <time>2016-08-23T12:40:08Z</time>
      </trkpt>
      <trkpt lat="44.77589" lon="5.09833">
        <ele>577.89</ele>
        <time>2016-08-23T12:40:11Z</time>
      </trkpt>
      <trkpt lat="44.77594" lon="5.09835">
        <ele>578.37</ele>
        <time>2016-08-23T12:40:14Z</time>
      </trkpt>
      <trkpt lat="44.77603" lon="5.09823">
        <ele>580.77</ele>
        <time>2016-08-23T12:40:23Z</time>
      </trkpt>
      <trkpt lat="44.77606" lon="5.09822">
        <ele>581.25</ele>
        <time>2016-08-23T12:40:26Z</time>
      </trkpt>
      <trkpt lat="44.77618" lon="5.09818">
        <ele>582.7</ele>
        <time>2016-08-23T12:40:34Z</time>
      </trkpt>
      <trkpt lat="44.77636" lon="5.09816">
        <ele>584.14</ele>
        <time>2016-08-23T12:40:44Z</time>
      </trkpt>
      <trkpt lat="44.77648" lon="5.09811">
        <ele>585.1</ele>
        <time>2016-08-23T12:40:52Z</time>
      </trkpt>
      <trkpt lat="44.77665" lon="5.0981">
        <ele>586.06</ele>
        <time>2016-08-23T12:41:02Z</time>
      </trkpt>
      <trkpt lat="44.77688" lon="5.09806">
        <ele>587.5</ele>
        <time>2016-08-23T12:41:15Z</time>
      </trkpt>
      <trkpt lat="44.77695" lon="5.09805">
        <ele>588.46</ele>
        <time>2016-08-23T12:41:19Z</time>
      </trkpt>
      <trkpt lat="44.77716" lon="5.09802">
        <ele>589.43</ele>
        <time>2016-08-23T12:41:30Z</time>
      </trkpt>
      <trkpt lat="44.7772" lon="5.09799">
        <ele>590.39</ele>
        <time>2016-08-23T12:41:33Z</time>
      </trkpt>
      <trkpt lat="44.77743" lon="5.09801">
        <ele>592.31</ele>
        <time>2016-08-23T12:41:46Z</time>
      </trkpt>
      <trkpt lat="44.77762" lon="5.09802">
        <ele>595.19</ele>
        <time>2016-08-23T12:41:57Z</time>
      </trkpt>
      <trkpt lat="44.77779" lon="5.09805">
        <ele>596.64</ele>
        <time>2016-08-23T12:42:08Z</time>
      </trkpt>
      <trkpt lat="44.77785" lon="5.09806">
        <ele>597.12</ele>
        <time>2016-08-23T12:42:11Z</time>
      </trkpt>
      <trkpt lat="44.77794" lon="5.09811">
        <ele>598.08</ele>
        <time>2016-08-23T12:42:16Z</time>
      </trkpt>
      <trkpt lat="44.77804" lon="5.09816">
        <ele>598.56</ele>
        <time>2016-08-23T12:42:22Z</time>
      </trkpt>
      <trkpt lat="44.77829" lon="5.09826">
        <ele>600</ele>
        <time>2016-08-23T12:42:36Z</time>
      </trkpt>
      <trkpt lat="44.77846" lon="5.0983">
        <ele>601.92</ele>
        <time>2016-08-23T12:42:46Z</time>
      </trkpt>
      <trkpt lat="44.77848" lon="5.09831">
        <ele>601.92</ele>
        <time>2016-08-23T12:42:47Z</time>
      </trkpt>
      <trkpt lat="44.77858" lon="5.09833">
        <ele>602.88</ele>
        <time>2016-08-23T12:42:52Z</time>
      </trkpt>
      <trkpt lat="44.77864" lon="5.09831">
        <ele>603.85</ele>
        <time>2016-08-23T12:42:56Z</time>
      </trkpt>
      <trkpt lat="44.77885" lon="5.09831">
        <ele>606.73</ele>
        <time>2016-08-23T12:43:09Z</time>
      </trkpt>
      <trkpt lat="44.77889" lon="5.09834">
        <ele>607.21</ele>
        <time>2016-08-23T12:43:12Z</time>
      </trkpt>
      <trkpt lat="44.77896" lon="5.09838">
        <ele>607.69</ele>
        <time>2016-08-23T12:43:16Z</time>
      </trkpt>
      <trkpt lat="44.77915" lon="5.09848">
        <ele>609.13</ele>
        <time>2016-08-23T12:43:28Z</time>
      </trkpt>
      <trkpt lat="44.77924" lon="5.0985">
        <ele>609.61</ele>
        <time>2016-08-23T12:43:33Z</time>
      </trkpt>
      <trkpt lat="44.77942" lon="5.09854">
        <ele>611.06</ele>
        <time>2016-08-23T12:43:45Z</time>
      </trkpt>
      <trkpt lat="44.77949" lon="5.09856">
        <ele>611.54</ele>
        <time>2016-08-23T12:43:49Z</time>
      </trkpt>
      <trkpt lat="44.77963" lon="5.09861">
        <ele>613.46</ele>
        <time>2016-08-23T12:43:57Z</time>
      </trkpt>
      <trkpt lat="44.77971" lon="5.09863">
        <ele>614.42</ele>
        <time>2016-08-23T12:44:02Z</time>
      </trkpt>
      <trkpt lat="44.77976" lon="5.09865">
        <ele>614.9</ele>
        <time>2016-08-23T12:44:05Z</time>
      </trkpt>
      <trkpt lat="44.77978" lon="5.09865">
        <ele>615.38</ele>
        <time>2016-08-23T12:44:07Z</time>
      </trkpt>
      <trkpt lat="44.7799" lon="5.09873">
        <ele>616.82</ele>
        <time>2016-08-23T12:44:15Z</time>
      </trkpt>
      <trkpt lat="44.78005" lon="5.09876">
        <ele>619.71</ele>
        <time>2016-08-23T12:44:26Z</time>
      </trkpt>
      <trkpt lat="44.78014" lon="5.09875">
        <ele>620.19</ele>
        <time>2016-08-23T12:44:32Z</time>
      </trkpt>
      <trkpt lat="44.78035" lon="5.09874">
        <ele>622.11</ele>
        <time>2016-08-23T12:44:45Z</time>
      </trkpt>
      <trkpt lat="44.78049" lon="5.09872">
        <ele>623.55</ele>
        <time>2016-08-23T12:44:53Z</time>
      </trkpt>
      <trkpt lat="44.78067" lon="5.09872">
        <ele>625.47</ele>
        <time>2016-08-23T12:45:05Z</time>
      </trkpt>
      <trkpt lat="44.78087" lon="5.09876">
        <ele>627.4</ele>
        <time>2016-08-23T12:45:17Z</time>
      </trkpt>
      <trkpt lat="44.78097" lon="5.09889">
        <ele>630.76</ele>
        <time>2016-08-23T12:45:28Z</time>
      </trkpt>
      <trkpt lat="44.78099" lon="5.09896">
        <ele>631.24</ele>
        <time>2016-08-23T12:45:32Z</time>
      </trkpt>
      <trkpt lat="44.78103" lon="5.09908">
        <ele>632.68</ele>
        <time>2016-08-23T12:45:42Z</time>
      </trkpt>
      <trkpt lat="44.78103" lon="5.09908">
        <ele>630.28</ele>
        <time>2016-08-23T12:45:45Z</time>
      </trkpt>
      <trkpt lat="44.78115" lon="5.09903">
        <ele>633.65</ele>
        <time>2016-08-23T12:49:08Z</time>
      </trkpt>
      <trkpt lat="44.78113" lon="5.09903">
        <ele>633.65</ele>
        <time>2016-08-23T12:49:09Z</time>
      </trkpt>
      <trkpt lat="44.78108" lon="5.09923">
        <ele>636.05</ele>
        <time>2016-08-23T12:49:26Z</time>
      </trkpt>
      <trkpt lat="44.7811" lon="5.09932">
        <ele>640.38</ele>
        <time>2016-08-23T12:49:30Z</time>
      </trkpt>
      <trkpt lat="44.78111" lon="5.09938">
        <ele>643.74</ele>
        <time>2016-08-23T12:49:36Z</time>
      </trkpt>
      <trkpt lat="44.78113" lon="5.09945">
        <ele>647.59</ele>
        <time>2016-08-23T12:49:42Z</time>
      </trkpt>
      <trkpt lat="44.78114" lon="5.09951">
        <ele>650.95</ele>
        <time>2016-08-23T12:49:47Z</time>
      </trkpt>
      <trkpt lat="44.78115" lon="5.09955">
        <ele>653.83</ele>
        <time>2016-08-23T12:49:52Z</time>
      </trkpt>
      <trkpt lat="44.78116" lon="5.09962">
        <ele>657.2</ele>
        <time>2016-08-23T12:49:58Z</time>
      </trkpt>
      <trkpt lat="44.78117" lon="5.09967">
        <ele>660.08</ele>
        <time>2016-08-23T12:50:04Z</time>
      </trkpt>
      <trkpt lat="44.78118" lon="5.0997">
        <ele>661.04</ele>
        <time>2016-08-23T12:50:17Z</time>
      </trkpt>
      <trkpt lat="44.78118" lon="5.0997">
        <ele>661.52</ele>
        <time>2016-08-23T12:50:28Z</time>
      </trkpt>
      <trkpt lat="44.78115" lon="5.0996">
        <ele>659.6</ele>
        <time>2016-08-23T12:50:31Z</time>
      </trkpt>
      <trkpt lat="44.78114" lon="5.09954">
        <ele>658.16</ele>
        <time>2016-08-23T12:50:32Z</time>
      </trkpt>
      <trkpt lat="44.78113" lon="5.09948">
        <ele>656.72</ele>
        <time>2016-08-23T12:50:33Z</time>
      </trkpt>
      <trkpt lat="44.78111" lon="5.09941">
        <ele>655.28</ele>
        <time>2016-08-23T12:50:34Z</time>
      </trkpt>
      <trkpt lat="44.78111" lon="5.09934">
        <ele>653.35</ele>
        <time>2016-08-23T12:50:35Z</time>
      </trkpt>
      <trkpt lat="44.78111" lon="5.09927">
        <ele>651.91</ele>
        <time>2016-08-23T12:50:36Z</time>
      </trkpt>
      <trkpt lat="44.78112" lon="5.09923">
        <ele>651.43</ele>
        <time>2016-08-23T12:50:37Z</time>
      </trkpt>
      <trkpt lat="44.78113" lon="5.09922">
        <ele>651.91</ele>
        <time>2016-08-23T12:50:38Z</time>
      </trkpt>
      <trkpt lat="44.78131" lon="5.0993">
        <ele>650.47</ele>
        <time>2016-08-23T12:50:46Z</time>
      </trkpt>
      <trkpt lat="44.78135" lon="5.09932">
        <ele>649.99</ele>
        <time>2016-08-23T12:50:47Z</time>
      </trkpt>
      <trkpt lat="44.78167" lon="5.09935">
        <ele>649.03</ele>
        <time>2016-08-23T12:50:56Z</time>
      </trkpt>
      <trkpt lat="44.78204" lon="5.09936">
        <ele>646.62</ele>
        <time>2016-08-23T12:51:06Z</time>
      </trkpt>
      <trkpt lat="44.78209" lon="5.09935">
        <ele>645.18</ele>
        <time>2016-08-23T12:51:07Z</time>
      </trkpt>
      <trkpt lat="44.78214" lon="5.09933">
        <ele>644.7</ele>
        <time>2016-08-23T12:51:08Z</time>
      </trkpt>
      <trkpt lat="44.78219" lon="5.09932">
        <ele>643.74</ele>
        <time>2016-08-23T12:51:09Z</time>
      </trkpt>
      <trkpt lat="44.78224" lon="5.09932">
        <ele>642.78</ele>
        <time>2016-08-23T12:51:10Z</time>
      </trkpt>
      <trkpt lat="44.7823" lon="5.09934">
        <ele>642.3</ele>
        <time>2016-08-23T12:51:11Z</time>
      </trkpt>
      <trkpt lat="44.78248" lon="5.09938">
        <ele>639.41</ele>
        <time>2016-08-23T12:51:15Z</time>
      </trkpt>
      <trkpt lat="44.7827" lon="5.09941">
        <ele>635.57</ele>
        <time>2016-08-23T12:51:19Z</time>
      </trkpt>
      <trkpt lat="44.78288" lon="5.09948">
        <ele>633.17</ele>
        <time>2016-08-23T12:51:22Z</time>
      </trkpt>
      <trkpt lat="44.78301" lon="5.09953">
        <ele>631.72</ele>
        <time>2016-08-23T12:51:24Z</time>
      </trkpt>
      <trkpt lat="44.78308" lon="5.09956">
        <ele>631.24</ele>
        <time>2016-08-23T12:51:25Z</time>
      </trkpt>
      <trkpt lat="44.78313" lon="5.09958">
        <ele>630.28</ele>
        <time>2016-08-23T12:51:26Z</time>
      </trkpt>
      <trkpt lat="44.78322" lon="5.09963">
        <ele>630.28</ele>
        <time>2016-08-23T12:51:28Z</time>
      </trkpt>
      <trkpt lat="44.78325" lon="5.09967">
        <ele>629.32</ele>
        <time>2016-08-23T12:51:29Z</time>
      </trkpt>
      <trkpt lat="44.78328" lon="5.09972">
        <ele>628.36</ele>
        <time>2016-08-23T12:51:30Z</time>
      </trkpt>
      <trkpt lat="44.78329" lon="5.09977">
        <ele>627.88</ele>
        <time>2016-08-23T12:51:31Z</time>
      </trkpt>
      <trkpt lat="44.78329" lon="5.09981">
        <ele>627.88</ele>
        <time>2016-08-23T12:51:32Z</time>
      </trkpt>
      <trkpt lat="44.78327" lon="5.09983">
        <ele>627.4</ele>
        <time>2016-08-23T12:51:33Z</time>
      </trkpt>
      <trkpt lat="44.78325" lon="5.09983">
        <ele>626.92</ele>
        <time>2016-08-23T12:51:34Z</time>
      </trkpt>
      <trkpt lat="44.78322" lon="5.09982">
        <ele>626.44</ele>
        <time>2016-08-23T12:51:35Z</time>
      </trkpt>
      <trkpt lat="44.78319" lon="5.09981">
        <ele>625.47</ele>
        <time>2016-08-23T12:51:36Z</time>
      </trkpt>
      <trkpt lat="44.78316" lon="5.09979">
        <ele>624.51</ele>
        <time>2016-08-23T12:51:37Z</time>
      </trkpt>
      <trkpt lat="44.78311" lon="5.09977">
        <ele>623.55</ele>
        <time>2016-08-23T12:51:38Z</time>
      </trkpt>
      <trkpt lat="44.78305" lon="5.09977">
        <ele>622.59</ele>
        <time>2016-08-23T12:51:39Z</time>
      </trkpt>
      <trkpt lat="44.78289" lon="5.09979">
        <ele>621.63</ele>
        <time>2016-08-23T12:51:42Z</time>
      </trkpt>
      <trkpt lat="44.78284" lon="5.09982">
        <ele>620.67</ele>
        <time>2016-08-23T12:51:43Z</time>
      </trkpt>
      <trkpt lat="44.7828" lon="5.09985">
        <ele>619.71</ele>
        <time>2016-08-23T12:51:44Z</time>
      </trkpt>
      <trkpt lat="44.78271" lon="5.09991">
        <ele>618.26</ele>
        <time>2016-08-23T12:51:46Z</time>
      </trkpt>
      <trkpt lat="44.78266" lon="5.09993">
        <ele>617.3</ele>
        <time>2016-08-23T12:51:47Z</time>
      </trkpt>
      <trkpt lat="44.78262" lon="5.09994">
        <ele>616.82</ele>
        <time>2016-08-23T12:51:48Z</time>
      </trkpt>
      <trkpt lat="44.78259" lon="5.09998">
        <ele>615.86</ele>
        <time>2016-08-23T12:51:49Z</time>
      </trkpt>
      <trkpt lat="44.78255" lon="5.10003">
        <ele>614.42</ele>
        <time>2016-08-23T12:51:50Z</time>
      </trkpt>
      <trkpt lat="44.78251" lon="5.1001">
        <ele>613.94</ele>
        <time>2016-08-23T12:51:51Z</time>
      </trkpt>
      <trkpt lat="44.78243" lon="5.10024">
        <ele>613.94</ele>
        <time>2016-08-23T12:51:53Z</time>
      </trkpt>
      <trkpt lat="44.78231" lon="5.10041">
        <ele>614.42</ele>
        <time>2016-08-23T12:51:56Z</time>
      </trkpt>
      <trkpt lat="44.78227" lon="5.10044">
        <ele>614.9</ele>
        <time>2016-08-23T12:51:57Z</time>
      </trkpt>
      <trkpt lat="44.78223" lon="5.10048">
        <ele>614.9</ele>
        <time>2016-08-23T12:51:58Z</time>
      </trkpt>
      <trkpt lat="44.7822" lon="5.10051">
        <ele>614.9</ele>
        <time>2016-08-23T12:51:59Z</time>
      </trkpt>
      <trkpt lat="44.78216" lon="5.10055">
        <ele>615.38</ele>
        <time>2016-08-23T12:52:00Z</time>
      </trkpt>
      <trkpt lat="44.782" lon="5.1008">
        <ele>615.38</ele>
        <time>2016-08-23T12:52:07Z</time>
      </trkpt>
      <trkpt lat="44.78197" lon="5.10086">
        <ele>614.42</ele>
        <time>2016-08-23T12:52:08Z</time>
      </trkpt>
      <trkpt lat="44.78193" lon="5.10092">
        <ele>613.46</ele>
        <time>2016-08-23T12:52:09Z</time>
      </trkpt>
      <trkpt lat="44.78188" lon="5.10095">
        <ele>612.98</ele>
        <time>2016-08-23T12:52:10Z</time>
      </trkpt>
      <trkpt lat="44.78182" lon="5.10097">
        <ele>612.02</ele>
        <time>2016-08-23T12:52:11Z</time>
      </trkpt>
      <trkpt lat="44.78177" lon="5.10097">
        <ele>611.54</ele>
        <time>2016-08-23T12:52:12Z</time>
      </trkpt>
      <trkpt lat="44.78173" lon="5.10097">
        <ele>611.54</ele>
        <time>2016-08-23T12:52:13Z</time>
      </trkpt>
      <trkpt lat="44.78169" lon="5.10098">
        <ele>611.06</ele>
        <time>2016-08-23T12:52:14Z</time>
      </trkpt>
      <trkpt lat="44.78164" lon="5.10098">
        <ele>609.13</ele>
        <time>2016-08-23T12:52:15Z</time>
      </trkpt>
      <trkpt lat="44.78154" lon="5.10098">
        <ele>608.65</ele>
        <time>2016-08-23T12:52:17Z</time>
      </trkpt>
      <trkpt lat="44.7815" lon="5.101">
        <ele>608.17</ele>
        <time>2016-08-23T12:52:18Z</time>
      </trkpt>
      <trkpt lat="44.78147" lon="5.10105">
        <ele>607.69</ele>
        <time>2016-08-23T12:52:19Z</time>
      </trkpt>
      <trkpt lat="44.78144" lon="5.1011">
        <ele>607.21</ele>
        <time>2016-08-23T12:52:20Z</time>
      </trkpt>
      <trkpt lat="44.78141" lon="5.10115">
        <ele>607.21</ele>
        <time>2016-08-23T12:52:21Z</time>
      </trkpt>
      <trkpt lat="44.78138" lon="5.1012">
        <ele>606.73</ele>
        <time>2016-08-23T12:52:22Z</time>
      </trkpt>
      <trkpt lat="44.78136" lon="5.10124">
        <ele>606.73</ele>
        <time>2016-08-23T12:52:23Z</time>
      </trkpt>
      <trkpt lat="44.78136" lon="5.10126">
        <ele>607.21</ele>
        <time>2016-08-23T12:52:33Z</time>
      </trkpt>
      <trkpt lat="44.78136" lon="5.10126">
        <ele>607.21</ele>
        <time>2016-08-23T12:53:05Z</time>
      </trkpt>
      <trkpt lat="44.78136" lon="5.10126">
        <ele>607.21</ele>
        <time>2016-08-23T12:53:35Z</time>
      </trkpt>
      <trkpt lat="44.7813" lon="5.1014">
        <ele>606.25</ele>
        <time>2016-08-23T12:54:05Z</time>
      </trkpt>
      <trkpt lat="44.78114" lon="5.10171">
        <ele>607.21</ele>
        <time>2016-08-23T12:54:13Z</time>
      </trkpt>
      <trkpt lat="44.78112" lon="5.10173">
        <ele>607.69</ele>
        <time>2016-08-23T12:54:14Z</time>
      </trkpt>
      <trkpt lat="44.78109" lon="5.10175">
        <ele>608.17</ele>
        <time>2016-08-23T12:54:15Z</time>
      </trkpt>
      <trkpt lat="44.78107" lon="5.10179">
        <ele>607.69</ele>
        <time>2016-08-23T12:54:16Z</time>
      </trkpt>
      <trkpt lat="44.781" lon="5.10188">
        <ele>606.25</ele>
        <time>2016-08-23T12:54:18Z</time>
      </trkpt>
      <trkpt lat="44.78085" lon="5.10196">
        <ele>602.4</ele>
        <time>2016-08-23T12:54:21Z</time>
      </trkpt>
      <trkpt lat="44.78079" lon="5.10201">
        <ele>600.96</ele>
        <time>2016-08-23T12:54:22Z</time>
      </trkpt>
      <trkpt lat="44.78072" lon="5.10206">
        <ele>600</ele>
        <time>2016-08-23T12:54:23Z</time>
      </trkpt>
      <trkpt lat="44.78066" lon="5.1021">
        <ele>599.52</ele>
        <time>2016-08-23T12:54:24Z</time>
      </trkpt>
      <trkpt lat="44.78061" lon="5.10211">
        <ele>599.52</ele>
        <time>2016-08-23T12:54:25Z</time>
      </trkpt>
      <trkpt lat="44.78056" lon="5.10215">
        <ele>598.56</ele>
        <time>2016-08-23T12:54:26Z</time>
      </trkpt>
      <trkpt lat="44.78048" lon="5.10225">
        <ele>596.64</ele>
        <time>2016-08-23T12:54:28Z</time>
      </trkpt>
      <trkpt lat="44.78047" lon="5.10228">
        <ele>596.15</ele>
        <time>2016-08-23T12:54:29Z</time>
      </trkpt>
      <trkpt lat="44.78048" lon="5.10232">
        <ele>595.19</ele>
        <time>2016-08-23T12:54:31Z</time>
      </trkpt>
      <trkpt lat="44.78049" lon="5.10235">
        <ele>594.71</ele>
        <time>2016-08-23T12:54:32Z</time>
      </trkpt>
      <trkpt lat="44.7805" lon="5.10236">
        <ele>593.75</ele>
        <time>2016-08-23T12:54:33Z</time>
      </trkpt>
      <trkpt lat="44.78052" lon="5.10237">
        <ele>593.75</ele>
        <time>2016-08-23T12:54:34Z</time>
      </trkpt>
      <trkpt lat="44.7806" lon="5.10241">
        <ele>591.83</ele>
        <time>2016-08-23T12:54:37Z</time>
      </trkpt>
      <trkpt lat="44.78074" lon="5.10244">
        <ele>587.98</ele>
        <time>2016-08-23T12:54:41Z</time>
      </trkpt>
      <trkpt lat="44.78081" lon="5.1025">
        <ele>585.1</ele>
        <time>2016-08-23T12:54:43Z</time>
      </trkpt>
      <trkpt lat="44.78085" lon="5.10253">
        <ele>583.66</ele>
        <time>2016-08-23T12:54:44Z</time>
      </trkpt>
      <trkpt lat="44.78097" lon="5.10264">
        <ele>580.29</ele>
        <time>2016-08-23T12:54:47Z</time>
      </trkpt>
      <trkpt lat="44.78101" lon="5.10268">
        <ele>579.33</ele>
        <time>2016-08-23T12:54:48Z</time>
      </trkpt>
      <trkpt lat="44.78104" lon="5.1027">
        <ele>578.85</ele>
        <time>2016-08-23T12:54:49Z</time>
      </trkpt>
      <trkpt lat="44.78108" lon="5.1027">
        <ele>578.37</ele>
        <time>2016-08-23T12:54:50Z</time>
      </trkpt>
      <trkpt lat="44.78111" lon="5.10267">
        <ele>577.41</ele>
        <time>2016-08-23T12:54:51Z</time>
      </trkpt>
      <trkpt lat="44.78115" lon="5.10265">
        <ele>576.93</ele>
        <time>2016-08-23T12:54:52Z</time>
      </trkpt>
      <trkpt lat="44.78119" lon="5.10261">
        <ele>575.97</ele>
        <time>2016-08-23T12:54:53Z</time>
      </trkpt>
      <trkpt lat="44.78124" lon="5.10256">
        <ele>575.49</ele>
        <time>2016-08-23T12:54:54Z</time>
      </trkpt>
      <trkpt lat="44.78128" lon="5.10251">
        <ele>574.53</ele>
        <time>2016-08-23T12:54:55Z</time>
      </trkpt>
      <trkpt lat="44.78137" lon="5.1024">
        <ele>573.56</ele>
        <time>2016-08-23T12:54:57Z</time>
      </trkpt>
      <trkpt lat="44.78149" lon="5.10223">
        <ele>572.6</ele>
        <time>2016-08-23T12:55:00Z</time>
      </trkpt>
      <trkpt lat="44.78152" lon="5.10217">
        <ele>573.08</ele>
        <time>2016-08-23T12:55:01Z</time>
      </trkpt>
      <trkpt lat="44.78158" lon="5.10206">
        <ele>573.56</ele>
        <time>2016-08-23T12:55:03Z</time>
      </trkpt>
      <trkpt lat="44.78161" lon="5.10201">
        <ele>573.08</ele>
        <time>2016-08-23T12:55:04Z</time>
      </trkpt>
      <trkpt lat="44.78165" lon="5.10199">
        <ele>572.6</ele>
        <time>2016-08-23T12:55:05Z</time>
      </trkpt>
      <trkpt lat="44.78168" lon="5.10199">
        <ele>572.6</ele>
        <time>2016-08-23T12:55:06Z</time>
      </trkpt>
      <trkpt lat="44.78171" lon="5.10202">
        <ele>571.64</ele>
        <time>2016-08-23T12:55:07Z</time>
      </trkpt>
      <trkpt lat="44.78173" lon="5.10207">
        <ele>571.16</ele>
        <time>2016-08-23T12:55:08Z</time>
      </trkpt>
      <trkpt lat="44.78175" lon="5.10212">
        <ele>569.72</ele>
        <time>2016-08-23T12:55:09Z</time>
      </trkpt>
      <trkpt lat="44.78179" lon="5.10224">
        <ele>567.8</ele>
        <time>2016-08-23T12:55:11Z</time>
      </trkpt>
      <trkpt lat="44.78182" lon="5.10228">
        <ele>566.83</ele>
        <time>2016-08-23T12:55:12Z</time>
      </trkpt>
      <trkpt lat="44.78185" lon="5.1023">
        <ele>566.35</ele>
        <time>2016-08-23T12:55:13Z</time>
      </trkpt>
      <trkpt lat="44.78189" lon="5.10231">
        <ele>565.87</ele>
        <time>2016-08-23T12:55:14Z</time>
      </trkpt>
      <trkpt lat="44.78191" lon="5.1023">
        <ele>565.39</ele>
        <time>2016-08-23T12:55:15Z</time>
      </trkpt>
      <trkpt lat="44.78193" lon="5.10229">
        <ele>565.39</ele>
        <time>2016-08-23T12:55:16Z</time>
      </trkpt>
      <trkpt lat="44.78196" lon="5.10229">
        <ele>563.95</ele>
        <time>2016-08-23T12:55:17Z</time>
      </trkpt>
      <trkpt lat="44.78198" lon="5.1023">
        <ele>563.47</ele>
        <time>2016-08-23T12:55:18Z</time>
      </trkpt>
      <trkpt lat="44.78201" lon="5.10231">
        <ele>562.03</ele>
        <time>2016-08-23T12:55:19Z</time>
      </trkpt>
      <trkpt lat="44.78205" lon="5.10232">
        <ele>561.07</ele>
        <time>2016-08-23T12:55:20Z</time>
      </trkpt>
      <trkpt lat="44.78223" lon="5.10232">
        <ele>557.22</ele>
        <time>2016-08-23T12:55:25Z</time>
      </trkpt>
      <trkpt lat="44.78227" lon="5.10234">
        <ele>556.26</ele>
        <time>2016-08-23T12:55:26Z</time>
      </trkpt>
      <trkpt lat="44.78232" lon="5.10236">
        <ele>555.78</ele>
        <time>2016-08-23T12:55:27Z</time>
      </trkpt>
      <trkpt lat="44.78237" lon="5.10237">
        <ele>554.82</ele>
        <time>2016-08-23T12:55:28Z</time>
      </trkpt>
      <trkpt lat="44.78241" lon="5.10238">
        <ele>553.86</ele>
        <time>2016-08-23T12:55:29Z</time>
      </trkpt>
      <trkpt lat="44.78243" lon="5.10239">
        <ele>553.86</ele>
        <time>2016-08-23T12:55:30Z</time>
      </trkpt>
      <trkpt lat="44.78257" lon="5.10242">
        <ele>550.49</ele>
        <time>2016-08-23T12:55:35Z</time>
      </trkpt>
      <trkpt lat="44.78265" lon="5.10249">
        <ele>547.13</ele>
        <time>2016-08-23T12:55:40Z</time>
      </trkpt>
      <trkpt lat="44.78272" lon="5.10252">
        <ele>545.69</ele>
        <time>2016-08-23T12:55:43Z</time>
      </trkpt>
      <trkpt lat="44.78275" lon="5.10255">
        <ele>545.2</ele>
        <time>2016-08-23T12:55:44Z</time>
      </trkpt>
      <trkpt lat="44.78277" lon="5.10257">
        <ele>544.24</ele>
        <time>2016-08-23T12:55:45Z</time>
      </trkpt>
      <trkpt lat="44.78278" lon="5.10261">
        <ele>543.76</ele>
        <time>2016-08-23T12:55:46Z</time>
      </trkpt>
      <trkpt lat="44.78279" lon="5.10265">
        <ele>543.28</ele>
        <time>2016-08-23T12:55:47Z</time>
      </trkpt>
      <trkpt lat="44.78281" lon="5.10269">
        <ele>542.32</ele>
        <time>2016-08-23T12:55:48Z</time>
      </trkpt>
      <trkpt lat="44.78289" lon="5.1028">
        <ele>538.96</ele>
        <time>2016-08-23T12:55:52Z</time>
      </trkpt>
      <trkpt lat="44.78296" lon="5.1029">
        <ele>535.59</ele>
        <time>2016-08-23T12:55:56Z</time>
      </trkpt>
      <trkpt lat="44.78299" lon="5.103">
        <ele>534.15</ele>
        <time>2016-08-23T12:56:09Z</time>
      </trkpt>
      <trkpt lat="44.783" lon="5.10305">
        <ele>533.67</ele>
        <time>2016-08-23T12:56:10Z</time>
      </trkpt>
      <trkpt lat="44.78302" lon="5.10308">
        <ele>533.19</ele>
        <time>2016-08-23T12:56:11Z</time>
      </trkpt>
      <trkpt lat="44.78305" lon="5.1031">
        <ele>532.71</ele>
        <time>2016-08-23T12:56:12Z</time>
      </trkpt>
      <trkpt lat="44.78308" lon="5.10311">
        <ele>531.75</ele>
        <time>2016-08-23T12:56:13Z</time>
      </trkpt>
      <trkpt lat="44.7831" lon="5.10312">
        <ele>531.27</ele>
        <time>2016-08-23T12:56:14Z</time>
      </trkpt>
      <trkpt lat="44.78311" lon="5.10314">
        <ele>530.79</ele>
        <time>2016-08-23T12:56:15Z</time>
      </trkpt>
      <trkpt lat="44.78313" lon="5.10319">
        <ele>528.86</ele>
        <time>2016-08-23T12:56:19Z</time>
      </trkpt>
      <trkpt lat="44.78313" lon="5.10322">
        <ele>528.38</ele>
        <time>2016-08-23T12:56:20Z</time>
      </trkpt>
      <trkpt lat="44.78314" lon="5.10327">
        <ele>527.42</ele>
        <time>2016-08-23T12:56:21Z</time>
      </trkpt>
      <trkpt lat="44.78319" lon="5.10335">
        <ele>525.5</ele>
        <time>2016-08-23T12:56:24Z</time>
      </trkpt>
      <trkpt lat="44.78319" lon="5.10335">
        <ele>530.3</ele>
        <time>2016-08-23T12:56:42Z</time>
      </trkpt>
      <trkpt lat="44.78319" lon="5.10335">
        <ele>525.5</ele>
        <time>2016-08-23T12:56:43Z</time>
      </trkpt>
      <trkpt lat="44.7832" lon="5.10341">
        <ele>525.02</ele>
        <time>2016-08-23T12:56:49Z</time>
      </trkpt>
      <trkpt lat="44.7831" lon="5.10363">
        <ele>523.58</ele>
        <time>2016-08-23T12:56:58Z</time>
      </trkpt>
      <trkpt lat="44.7831" lon="5.10363">
        <ele>524.06</ele>
        <time>2016-08-23T12:57:06Z</time>
      </trkpt>
      <trkpt lat="44.78312" lon="5.10362">
        <ele>524.06</ele>
        <time>2016-08-23T12:57:11Z</time>
      </trkpt>
      <trkpt lat="44.78321" lon="5.10344">
        <ele>525.02</ele>
        <time>2016-08-23T12:57:20Z</time>
      </trkpt>
      <trkpt lat="44.78322" lon="5.10335">
        <ele>525.5</ele>
        <time>2016-08-23T12:57:27Z</time>
      </trkpt>
      <trkpt lat="44.78322" lon="5.10332">
        <ele>525.5</ele>
        <time>2016-08-23T12:57:29Z</time>
      </trkpt>
      <trkpt lat="44.78319" lon="5.10302">
        <ele>525.02</ele>
        <time>2016-08-23T12:57:39Z</time>
      </trkpt>
      <trkpt lat="44.7832" lon="5.10285">
        <ele>525.02</ele>
        <time>2016-08-23T12:57:49Z</time>
      </trkpt>
      <trkpt lat="44.78319" lon="5.10285">
        <ele>525.5</ele>
        <time>2016-08-23T12:58:01Z</time>
      </trkpt>
      <trkpt lat="44.78319" lon="5.10288">
        <ele>525.02</ele>
        <time>2016-08-23T12:58:03Z</time>
      </trkpt>
      <trkpt lat="44.78318" lon="5.10289">
        <ele>525.98</ele>
        <time>2016-08-23T12:58:07Z</time>
      </trkpt>
      <trkpt lat="44.78315" lon="5.10286">
        <ele>526.46</ele>
        <time>2016-08-23T12:58:11Z</time>
      </trkpt>
      <trkpt lat="44.78316" lon="5.10279">
        <ele>525.98</ele>
        <time>2016-08-23T12:58:24Z</time>
      </trkpt>
      <trkpt lat="44.78318" lon="5.10279">
        <ele>525.5</ele>
        <time>2016-08-23T12:58:28Z</time>
      </trkpt>
      <trkpt lat="44.7832" lon="5.10281">
        <ele>525.5</ele>
        <time>2016-08-23T12:58:35Z</time>
      </trkpt>
      <trkpt lat="44.78327" lon="5.10293">
        <ele>524.06</ele>
        <time>2016-08-23T12:58:44Z</time>
      </trkpt>
      <trkpt lat="44.7833" lon="5.10295">
        <ele>523.58</ele>
        <time>2016-08-23T12:58:57Z</time>
      </trkpt>
      <trkpt lat="44.78333" lon="5.10295">
        <ele>523.58</ele>
        <time>2016-08-23T12:59:08Z</time>
      </trkpt>
      <trkpt lat="44.78336" lon="5.10298">
        <ele>523.58</ele>
        <time>2016-08-23T12:59:13Z</time>
      </trkpt>
      <trkpt lat="44.78347" lon="5.10312">
        <ele>525.02</ele>
        <time>2016-08-23T12:59:23Z</time>
      </trkpt>
      <trkpt lat="44.78347" lon="5.10312">
        <ele>525.02</ele>
        <time>2016-08-23T12:59:26Z</time>
      </trkpt>
      <trkpt lat="44.78361" lon="5.10321">
        <ele>525.5</ele>
        <time>2016-08-23T12:59:37Z</time>
      </trkpt>
      <trkpt lat="44.78362" lon="5.10322">
        <ele>525.5</ele>
        <time>2016-08-23T12:59:51Z</time>
      </trkpt>
      <trkpt lat="44.78362" lon="5.10322">
        <ele>525.98</ele>
        <time>2016-08-23T13:00:21Z</time>
      </trkpt>
      <trkpt lat="44.78362" lon="5.10322">
        <ele>525.5</ele>
        <time>2016-08-23T13:00:52Z</time>
      </trkpt>
      <trkpt lat="44.78365" lon="5.10325">
        <ele>525.02</ele>
        <time>2016-08-23T13:01:02Z</time>
      </trkpt>
      <trkpt lat="44.78373" lon="5.10345">
        <ele>523.58</ele>
        <time>2016-08-23T13:01:07Z</time>
      </trkpt>
      <trkpt lat="44.78376" lon="5.10351">
        <ele>522.61</ele>
        <time>2016-08-23T13:01:08Z</time>
      </trkpt>
      <trkpt lat="44.78379" lon="5.10355">
        <ele>521.65</ele>
        <time>2016-08-23T13:01:09Z</time>
      </trkpt>
      <trkpt lat="44.78383" lon="5.1036">
        <ele>520.69</ele>
        <time>2016-08-23T13:01:10Z</time>
      </trkpt>
      <trkpt lat="44.78387" lon="5.10364">
        <ele>518.77</ele>
        <time>2016-08-23T13:01:11Z</time>
      </trkpt>
      <trkpt lat="44.7839" lon="5.10369">
        <ele>517.81</ele>
        <time>2016-08-23T13:01:12Z</time>
      </trkpt>
      <trkpt lat="44.78394" lon="5.10375">
        <ele>516.85</ele>
        <time>2016-08-23T13:01:13Z</time>
      </trkpt>
      <trkpt lat="44.78397" lon="5.10381">
        <ele>516.37</ele>
        <time>2016-08-23T13:01:14Z</time>
      </trkpt>
      <trkpt lat="44.784" lon="5.10385">
        <ele>515.88</ele>
        <time>2016-08-23T13:01:15Z</time>
      </trkpt>
      <trkpt lat="44.78404" lon="5.1039">
        <ele>514.92</ele>
        <time>2016-08-23T13:01:16Z</time>
      </trkpt>
      <trkpt lat="44.78411" lon="5.10406">
        <ele>513</ele>
        <time>2016-08-23T13:01:19Z</time>
      </trkpt>
      <trkpt lat="44.78414" lon="5.1041">
        <ele>512.04</ele>
        <time>2016-08-23T13:01:20Z</time>
      </trkpt>
      <trkpt lat="44.78416" lon="5.10414">
        <ele>511.56</ele>
        <time>2016-08-23T13:01:21Z</time>
      </trkpt>
      <trkpt lat="44.78416" lon="5.10417">
        <ele>511.08</ele>
        <time>2016-08-23T13:01:22Z</time>
      </trkpt>
      <trkpt lat="44.78417" lon="5.10421">
        <ele>510.12</ele>
        <time>2016-08-23T13:01:23Z</time>
      </trkpt>
      <trkpt lat="44.78419" lon="5.10425">
        <ele>509.64</ele>
        <time>2016-08-23T13:01:24Z</time>
      </trkpt>
      <trkpt lat="44.78422" lon="5.10428">
        <ele>508.67</ele>
        <time>2016-08-23T13:01:25Z</time>
      </trkpt>
      <trkpt lat="44.78425" lon="5.1043">
        <ele>508.19</ele>
        <time>2016-08-23T13:01:26Z</time>
      </trkpt>
      <trkpt lat="44.78428" lon="5.1043">
        <ele>507.23</ele>
        <time>2016-08-23T13:01:27Z</time>
      </trkpt>
      <trkpt lat="44.78431" lon="5.10432">
        <ele>507.23</ele>
        <time>2016-08-23T13:01:28Z</time>
      </trkpt>
      <trkpt lat="44.78432" lon="5.10435">
        <ele>506.75</ele>
        <time>2016-08-23T13:01:29Z</time>
      </trkpt>
      <trkpt lat="44.78432" lon="5.10438">
        <ele>506.27</ele>
        <time>2016-08-23T13:01:30Z</time>
      </trkpt>
      <trkpt lat="44.78433" lon="5.1044">
        <ele>505.79</ele>
        <time>2016-08-23T13:01:31Z</time>
      </trkpt>
      <trkpt lat="44.78434" lon="5.10442">
        <ele>505.31</ele>
        <time>2016-08-23T13:01:32Z</time>
      </trkpt>
      <trkpt lat="44.78435" lon="5.10445">
        <ele>505.31</ele>
        <time>2016-08-23T13:01:33Z</time>
      </trkpt>
      <trkpt lat="44.78444" lon="5.10452">
        <ele>503.87</ele>
        <time>2016-08-23T13:01:35Z</time>
      </trkpt>
      <trkpt lat="44.78475" lon="5.10477">
        <ele>503.87</ele>
        <time>2016-08-23T13:01:42Z</time>
      </trkpt>
      <trkpt lat="44.78493" lon="5.105">
        <ele>503.87</ele>
        <time>2016-08-23T13:01:47Z</time>
      </trkpt>
      <trkpt lat="44.78498" lon="5.10509">
        <ele>504.35</ele>
        <time>2016-08-23T13:01:49Z</time>
      </trkpt>
      <trkpt lat="44.78501" lon="5.10513">
        <ele>504.35</ele>
        <time>2016-08-23T13:01:50Z</time>
      </trkpt>
      <trkpt lat="44.78504" lon="5.10517">
        <ele>504.35</ele>
        <time>2016-08-23T13:01:51Z</time>
      </trkpt>
      <trkpt lat="44.78506" lon="5.1052">
        <ele>504.35</ele>
        <time>2016-08-23T13:01:52Z</time>
      </trkpt>
      <trkpt lat="44.78509" lon="5.10523">
        <ele>504.83</ele>
        <time>2016-08-23T13:01:53Z</time>
      </trkpt>
      <trkpt lat="44.78512" lon="5.10527">
        <ele>504.35</ele>
        <time>2016-08-23T13:01:54Z</time>
      </trkpt>
      <trkpt lat="44.78514" lon="5.10529">
        <ele>506.27</ele>
        <time>2016-08-23T13:01:55Z</time>
      </trkpt>
      <trkpt lat="44.7854" lon="5.10563">
        <ele>507.23</ele>
        <time>2016-08-23T13:02:07Z</time>
      </trkpt>
      <trkpt lat="44.78561" lon="5.1058">
        <ele>510.12</ele>
        <time>2016-08-23T13:02:18Z</time>
      </trkpt>
      <trkpt lat="44.78576" lon="5.10596">
        <ele>511.56</ele>
        <time>2016-08-23T13:02:28Z</time>
      </trkpt>
      <trkpt lat="44.78603" lon="5.10611">
        <ele>513</ele>
        <time>2016-08-23T13:02:38Z</time>
      </trkpt>
      <trkpt lat="44.78642" lon="5.10627">
        <ele>514.92</ele>
        <time>2016-08-23T13:02:51Z</time>
      </trkpt>
      <trkpt lat="44.78682" lon="5.10637">
        <ele>513.96</ele>
        <time>2016-08-23T13:03:03Z</time>
      </trkpt>
      <trkpt lat="44.78687" lon="5.10638">
        <ele>513.48</ele>
        <time>2016-08-23T13:03:04Z</time>
      </trkpt>
      <trkpt lat="44.78739" lon="5.10636">
        <ele>512.04</ele>
        <time>2016-08-23T13:03:14Z</time>
      </trkpt>
      <trkpt lat="44.78745" lon="5.10634">
        <ele>512.04</ele>
        <time>2016-08-23T13:03:15Z</time>
      </trkpt>
      <trkpt lat="44.7875" lon="5.10632">
        <ele>511.56</ele>
        <time>2016-08-23T13:03:16Z</time>
      </trkpt>
      <trkpt lat="44.78761" lon="5.10626">
        <ele>512.04</ele>
        <time>2016-08-23T13:03:18Z</time>
      </trkpt>
      <trkpt lat="44.78788" lon="5.10604">
        <ele>510.6</ele>
        <time>2016-08-23T13:03:23Z</time>
      </trkpt>
      <trkpt lat="44.78794" lon="5.10602">
        <ele>510.12</ele>
        <time>2016-08-23T13:03:24Z</time>
      </trkpt>
      <trkpt lat="44.78805" lon="5.10599">
        <ele>510.6</ele>
        <time>2016-08-23T13:03:26Z</time>
      </trkpt>
      <trkpt lat="44.78811" lon="5.10598">
        <ele>510.6</ele>
        <time>2016-08-23T13:03:27Z</time>
      </trkpt>
      <trkpt lat="44.78816" lon="5.10598">
        <ele>511.08</ele>
        <time>2016-08-23T13:03:28Z</time>
      </trkpt>
      <trkpt lat="44.78845" lon="5.10596">
        <ele>513.96</ele>
        <time>2016-08-23T13:03:37Z</time>
      </trkpt>
      <trkpt lat="44.78866" lon="5.10599">
        <ele>517.33</ele>
        <time>2016-08-23T13:03:49Z</time>
      </trkpt>
      <trkpt lat="44.78873" lon="5.106">
        <ele>518.29</ele>
        <time>2016-08-23T13:03:53Z</time>
      </trkpt>
      <trkpt lat="44.78874" lon="5.10599">
        <ele>518.29</ele>
        <time>2016-08-23T13:03:54Z</time>
      </trkpt>
      <trkpt lat="44.78876" lon="5.10599">
        <ele>518.29</ele>
        <time>2016-08-23T13:03:55Z</time>
      </trkpt>
      <trkpt lat="44.78877" lon="5.10599">
        <ele>518.77</ele>
        <time>2016-08-23T13:03:56Z</time>
      </trkpt>
      <trkpt lat="44.78879" lon="5.10599">
        <ele>518.77</ele>
        <time>2016-08-23T13:03:57Z</time>
      </trkpt>
      <trkpt lat="44.7888" lon="5.10599">
        <ele>519.25</ele>
        <time>2016-08-23T13:03:58Z</time>
      </trkpt>
      <trkpt lat="44.78882" lon="5.10598">
        <ele>519.73</ele>
        <time>2016-08-23T13:03:59Z</time>
      </trkpt>
      <trkpt lat="44.78883" lon="5.10597">
        <ele>519.73</ele>
        <time>2016-08-23T13:04:00Z</time>
      </trkpt>
      <trkpt lat="44.78885" lon="5.10597">
        <ele>520.21</ele>
        <time>2016-08-23T13:04:01Z</time>
      </trkpt>
      <trkpt lat="44.78886" lon="5.10598">
        <ele>520.21</ele>
        <time>2016-08-23T13:04:02Z</time>
      </trkpt>
      <trkpt lat="44.78888" lon="5.10598">
        <ele>520.69</ele>
        <time>2016-08-23T13:04:03Z</time>
      </trkpt>
      <trkpt lat="44.78907" lon="5.10606">
        <ele>524.06</ele>
        <time>2016-08-23T13:04:15Z</time>
      </trkpt>
      <trkpt lat="44.78911" lon="5.10609">
        <ele>524.54</ele>
        <time>2016-08-23T13:04:18Z</time>
      </trkpt>
      <trkpt lat="44.78913" lon="5.1061">
        <ele>525.02</ele>
        <time>2016-08-23T13:04:19Z</time>
      </trkpt>
      <trkpt lat="44.78914" lon="5.10611">
        <ele>525.02</ele>
        <time>2016-08-23T13:04:20Z</time>
      </trkpt>
      <trkpt lat="44.78915" lon="5.10612">
        <ele>525.5</ele>
        <time>2016-08-23T13:04:21Z</time>
      </trkpt>
      <trkpt lat="44.78916" lon="5.10613">
        <ele>525.5</ele>
        <time>2016-08-23T13:04:22Z</time>
      </trkpt>
      <trkpt lat="44.78926" lon="5.10625">
        <ele>527.9</ele>
        <time>2016-08-23T13:04:32Z</time>
      </trkpt>
      <trkpt lat="44.78927" lon="5.10626">
        <ele>527.9</ele>
        <time>2016-08-23T13:04:33Z</time>
      </trkpt>
      <trkpt lat="44.78928" lon="5.10627">
        <ele>528.38</ele>
        <time>2016-08-23T13:04:34Z</time>
      </trkpt>
      <trkpt lat="44.7893" lon="5.10628">
        <ele>528.38</ele>
        <time>2016-08-23T13:04:35Z</time>
      </trkpt>
      <trkpt lat="44.78931" lon="5.1063">
        <ele>528.86</ele>
        <time>2016-08-23T13:04:36Z</time>
      </trkpt>
      <trkpt lat="44.78932" lon="5.10632">
        <ele>528.86</ele>
        <time>2016-08-23T13:04:37Z</time>
      </trkpt>
      <trkpt lat="44.78933" lon="5.10633">
        <ele>529.34</ele>
        <time>2016-08-23T13:04:38Z</time>
      </trkpt>
      <trkpt lat="44.78934" lon="5.10635">
        <ele>529.34</ele>
        <time>2016-08-23T13:04:39Z</time>
      </trkpt>
      <trkpt lat="44.78937" lon="5.1064">
        <ele>529.82</ele>
        <time>2016-08-23T13:04:42Z</time>
      </trkpt>
      <trkpt lat="44.7896" lon="5.10653">
        <ele>532.71</ele>
        <time>2016-08-23T13:04:58Z</time>
      </trkpt>
      <trkpt lat="44.78984" lon="5.10662">
        <ele>535.11</ele>
        <time>2016-08-23T13:05:13Z</time>
      </trkpt>
      <trkpt lat="44.79005" lon="5.10673">
        <ele>537.99</ele>
        <time>2016-08-23T13:05:29Z</time>
      </trkpt>
      <trkpt lat="44.79026" lon="5.1068">
        <ele>540.88</ele>
        <time>2016-08-23T13:05:44Z</time>
      </trkpt>
      <trkpt lat="44.79035" lon="5.10681">
        <ele>541.84</ele>
        <time>2016-08-23T13:05:51Z</time>
      </trkpt>
      <trkpt lat="44.79036" lon="5.10681">
        <ele>541.84</ele>
        <time>2016-08-23T13:05:52Z</time>
      </trkpt>
      <trkpt lat="44.79038" lon="5.1068">
        <ele>542.32</ele>
        <time>2016-08-23T13:05:53Z</time>
      </trkpt>
      <trkpt lat="44.79039" lon="5.1068">
        <ele>542.8</ele>
        <time>2016-08-23T13:05:54Z</time>
      </trkpt>
      <trkpt lat="44.7904" lon="5.10679">
        <ele>542.8</ele>
        <time>2016-08-23T13:05:55Z</time>
      </trkpt>
      <trkpt lat="44.79054" lon="5.10675">
        <ele>543.76</ele>
        <time>2016-08-23T13:06:08Z</time>
      </trkpt>
      <trkpt lat="44.7907" lon="5.10663">
        <ele>547.13</ele>
        <time>2016-08-23T13:06:23Z</time>
      </trkpt>
      <trkpt lat="44.79075" lon="5.10657">
        <ele>548.57</ele>
        <time>2016-08-23T13:06:35Z</time>
      </trkpt>
      <trkpt lat="44.79075" lon="5.10657">
        <ele>548.57</ele>
        <time>2016-08-23T13:06:58Z</time>
      </trkpt>
      <trkpt lat="44.79086" lon="5.10646">
        <ele>550.01</ele>
        <time>2016-08-23T13:07:10Z</time>
      </trkpt>
      <trkpt lat="44.79102" lon="5.10635">
        <ele>553.38</ele>
        <time>2016-08-23T13:07:27Z</time>
      </trkpt>
      <trkpt lat="44.79103" lon="5.10634">
        <ele>553.38</ele>
        <time>2016-08-23T13:07:28Z</time>
      </trkpt>
      <trkpt lat="44.79113" lon="5.10624">
        <ele>556.74</ele>
        <time>2016-08-23T13:07:41Z</time>
      </trkpt>
      <trkpt lat="44.79114" lon="5.10622">
        <ele>557.22</ele>
        <time>2016-08-23T13:07:43Z</time>
      </trkpt>
      <trkpt lat="44.7912" lon="5.10602">
        <ele>559.62</ele>
        <time>2016-08-23T13:07:59Z</time>
      </trkpt>
      <trkpt lat="44.7912" lon="5.10599">
        <ele>560.11</ele>
        <time>2016-08-23T13:08:13Z</time>
      </trkpt>
      <trkpt lat="44.79119" lon="5.10597">
        <ele>560.11</ele>
        <time>2016-08-23T13:08:14Z</time>
      </trkpt>
      <trkpt lat="44.79118" lon="5.10595">
        <ele>559.62</ele>
        <time>2016-08-23T13:08:15Z</time>
      </trkpt>
      <trkpt lat="44.79114" lon="5.10587">
        <ele>558.66</ele>
        <time>2016-08-23T13:08:17Z</time>
      </trkpt>
      <trkpt lat="44.79112" lon="5.10582">
        <ele>558.18</ele>
        <time>2016-08-23T13:08:18Z</time>
      </trkpt>
      <trkpt lat="44.7911" lon="5.10576">
        <ele>557.7</ele>
        <time>2016-08-23T13:08:19Z</time>
      </trkpt>
      <trkpt lat="44.79109" lon="5.10569">
        <ele>557.22</ele>
        <time>2016-08-23T13:08:20Z</time>
      </trkpt>
      <trkpt lat="44.79108" lon="5.10561">
        <ele>556.26</ele>
        <time>2016-08-23T13:08:21Z</time>
      </trkpt>
      <trkpt lat="44.79109" lon="5.10551">
        <ele>555.3</ele>
        <time>2016-08-23T13:08:22Z</time>
      </trkpt>
      <trkpt lat="44.7911" lon="5.10539">
        <ele>553.38</ele>
        <time>2016-08-23T13:08:23Z</time>
      </trkpt>
      <trkpt lat="44.79112" lon="5.10527">
        <ele>551.45</ele>
        <time>2016-08-23T13:08:24Z</time>
      </trkpt>
      <trkpt lat="44.79116" lon="5.105">
        <ele>548.57</ele>
        <time>2016-08-23T13:08:26Z</time>
      </trkpt>
      <trkpt lat="44.79118" lon="5.10456">
        <ele>544.24</ele>
        <time>2016-08-23T13:08:29Z</time>
      </trkpt>
      <trkpt lat="44.79127" lon="5.10369">
        <ele>540.88</ele>
        <time>2016-08-23T13:08:35Z</time>
      </trkpt>
      <trkpt lat="44.7913" lon="5.10356">
        <ele>540.4</ele>
        <time>2016-08-23T13:08:36Z</time>
      </trkpt>
      <trkpt lat="44.79133" lon="5.10343">
        <ele>539.92</ele>
        <time>2016-08-23T13:08:37Z</time>
      </trkpt>
      <trkpt lat="44.79138" lon="5.10331">
        <ele>539.92</ele>
        <time>2016-08-23T13:08:38Z</time>
      </trkpt>
      <trkpt lat="44.79143" lon="5.1032">
        <ele>539.44</ele>
        <time>2016-08-23T13:08:39Z</time>
      </trkpt>
      <trkpt lat="44.79149" lon="5.1031">
        <ele>539.44</ele>
        <time>2016-08-23T13:08:40Z</time>
      </trkpt>
      <trkpt lat="44.7916" lon="5.10289">
        <ele>538.96</ele>
        <time>2016-08-23T13:08:42Z</time>
      </trkpt>
      <trkpt lat="44.79164" lon="5.10278">
        <ele>538.96</ele>
        <time>2016-08-23T13:08:43Z</time>
      </trkpt>
      <trkpt lat="44.79167" lon="5.10267">
        <ele>538.96</ele>
        <time>2016-08-23T13:08:44Z</time>
      </trkpt>
      <trkpt lat="44.79168" lon="5.10255">
        <ele>538.96</ele>
        <time>2016-08-23T13:08:45Z</time>
      </trkpt>
      <trkpt lat="44.79168" lon="5.10243">
        <ele>538.48</ele>
        <time>2016-08-23T13:08:46Z</time>
      </trkpt>
      <trkpt lat="44.79167" lon="5.10232">
        <ele>537.99</ele>
        <time>2016-08-23T13:08:47Z</time>
      </trkpt>
      <trkpt lat="44.79165" lon="5.1022">
        <ele>537.99</ele>
        <time>2016-08-23T13:08:48Z</time>
      </trkpt>
      <trkpt lat="44.79161" lon="5.10185">
        <ele>536.07</ele>
        <time>2016-08-23T13:08:51Z</time>
      </trkpt>
      <trkpt lat="44.79161" lon="5.10173">
        <ele>535.11</ele>
        <time>2016-08-23T13:08:52Z</time>
      </trkpt>
      <trkpt lat="44.79162" lon="5.1016">
        <ele>533.67</ele>
        <time>2016-08-23T13:08:53Z</time>
      </trkpt>
      <trkpt lat="44.79165" lon="5.10135">
        <ele>532.71</ele>
        <time>2016-08-23T13:08:55Z</time>
      </trkpt>
      <trkpt lat="44.79172" lon="5.10085">
        <ele>530.79</ele>
        <time>2016-08-23T13:08:59Z</time>
      </trkpt>
      <trkpt lat="44.79188" lon="5.09993">
        <ele>529.82</ele>
        <time>2016-08-23T13:09:07Z</time>
      </trkpt>
      <trkpt lat="44.79192" lon="5.09982">
        <ele>529.34</ele>
        <time>2016-08-23T13:09:08Z</time>
      </trkpt>
      <trkpt lat="44.79197" lon="5.09973">
        <ele>528.86</ele>
        <time>2016-08-23T13:09:09Z</time>
      </trkpt>
      <trkpt lat="44.7922" lon="5.09935">
        <ele>527.42</ele>
        <time>2016-08-23T13:09:13Z</time>
      </trkpt>
      <trkpt lat="44.79224" lon="5.09923">
        <ele>526.46</ele>
        <time>2016-08-23T13:09:14Z</time>
      </trkpt>
      <trkpt lat="44.79224" lon="5.0991">
        <ele>525.5</ele>
        <time>2016-08-23T13:09:15Z</time>
      </trkpt>
      <trkpt lat="44.79221" lon="5.09898">
        <ele>524.54</ele>
        <time>2016-08-23T13:09:16Z</time>
      </trkpt>
      <trkpt lat="44.79215" lon="5.09887">
        <ele>524.06</ele>
        <time>2016-08-23T13:09:17Z</time>
      </trkpt>
      <trkpt lat="44.79209" lon="5.09876">
        <ele>523.58</ele>
        <time>2016-08-23T13:09:18Z</time>
      </trkpt>
      <trkpt lat="44.79204" lon="5.09865">
        <ele>523.09</ele>
        <time>2016-08-23T13:09:19Z</time>
      </trkpt>
      <trkpt lat="44.79197" lon="5.09855">
        <ele>522.13</ele>
        <time>2016-08-23T13:09:20Z</time>
      </trkpt>
      <trkpt lat="44.79189" lon="5.09849">
        <ele>521.17</ele>
        <time>2016-08-23T13:09:21Z</time>
      </trkpt>
      <trkpt lat="44.79181" lon="5.09848">
        <ele>520.21</ele>
        <time>2016-08-23T13:09:22Z</time>
      </trkpt>
      <trkpt lat="44.79173" lon="5.09851">
        <ele>519.73</ele>
        <time>2016-08-23T13:09:23Z</time>
      </trkpt>
      <trkpt lat="44.79165" lon="5.09857">
        <ele>518.29</ele>
        <time>2016-08-23T13:09:24Z</time>
      </trkpt>
      <trkpt lat="44.79157" lon="5.09862">
        <ele>517.81</ele>
        <time>2016-08-23T13:09:25Z</time>
      </trkpt>
      <trkpt lat="44.79149" lon="5.09864">
        <ele>517.33</ele>
        <time>2016-08-23T13:09:26Z</time>
      </trkpt>
      <trkpt lat="44.79143" lon="5.09861">
        <ele>516.85</ele>
        <time>2016-08-23T13:09:27Z</time>
      </trkpt>
      <trkpt lat="44.79137" lon="5.09854">
        <ele>515.88</ele>
        <time>2016-08-23T13:09:28Z</time>
      </trkpt>
      <trkpt lat="44.79134" lon="5.09843">
        <ele>514.92</ele>
        <time>2016-08-23T13:09:29Z</time>
      </trkpt>
      <trkpt lat="44.79133" lon="5.09831">
        <ele>514.44</ele>
        <time>2016-08-23T13:09:30Z</time>
      </trkpt>
      <trkpt lat="44.79136" lon="5.0982">
        <ele>513.96</ele>
        <time>2016-08-23T13:09:31Z</time>
      </trkpt>
      <trkpt lat="44.79139" lon="5.09809">
        <ele>513.48</ele>
        <time>2016-08-23T13:09:32Z</time>
      </trkpt>
      <trkpt lat="44.79144" lon="5.09798">
        <ele>512.52</ele>
        <time>2016-08-23T13:09:33Z</time>
      </trkpt>
      <trkpt lat="44.79154" lon="5.09778">
        <ele>511.08</ele>
        <time>2016-08-23T13:09:35Z</time>
      </trkpt>
      <trkpt lat="44.79161" lon="5.0977">
        <ele>510.6</ele>
        <time>2016-08-23T13:09:36Z</time>
      </trkpt>
      <trkpt lat="44.79169" lon="5.09763">
        <ele>510.12</ele>
        <time>2016-08-23T13:09:37Z</time>
      </trkpt>
      <trkpt lat="44.79201" lon="5.09735">
        <ele>507.71</ele>
        <time>2016-08-23T13:09:41Z</time>
      </trkpt>
      <trkpt lat="44.79216" lon="5.0972">
        <ele>506.75</ele>
        <time>2016-08-23T13:09:43Z</time>
      </trkpt>
      <trkpt lat="44.79224" lon="5.09714">
        <ele>507.23</ele>
        <time>2016-08-23T13:09:44Z</time>
      </trkpt>
      <trkpt lat="44.79232" lon="5.09711">
        <ele>507.23</ele>
        <time>2016-08-23T13:09:45Z</time>
      </trkpt>
      <trkpt lat="44.79241" lon="5.09708">
        <ele>506.75</ele>
        <time>2016-08-23T13:09:46Z</time>
      </trkpt>
      <trkpt lat="44.79249" lon="5.09707">
        <ele>505.79</ele>
        <time>2016-08-23T13:09:47Z</time>
      </trkpt>
      <trkpt lat="44.79258" lon="5.09705">
        <ele>505.31</ele>
        <time>2016-08-23T13:09:48Z</time>
      </trkpt>
      <trkpt lat="44.79334" lon="5.09682">
        <ele>502.43</ele>
        <time>2016-08-23T13:09:57Z</time>
      </trkpt>
      <trkpt lat="44.79342" lon="5.09686">
        <ele>502.43</ele>
        <time>2016-08-23T13:09:58Z</time>
      </trkpt>
      <trkpt lat="44.79348" lon="5.09694">
        <ele>501.95</ele>
        <time>2016-08-23T13:09:59Z</time>
      </trkpt>
      <trkpt lat="44.79351" lon="5.09705">
        <ele>501.46</ele>
        <time>2016-08-23T13:10:00Z</time>
      </trkpt>
      <trkpt lat="44.79353" lon="5.09716">
        <ele>501.46</ele>
        <time>2016-08-23T13:10:01Z</time>
      </trkpt>
      <trkpt lat="44.79359" lon="5.09737">
        <ele>500.5</ele>
        <time>2016-08-23T13:10:03Z</time>
      </trkpt>
      <trkpt lat="44.79365" lon="5.09745">
        <ele>500.02</ele>
        <time>2016-08-23T13:10:04Z</time>
      </trkpt>
      <trkpt lat="44.79372" lon="5.0975">
        <ele>499.54</ele>
        <time>2016-08-23T13:10:05Z</time>
      </trkpt>
      <trkpt lat="44.7938" lon="5.09754">
        <ele>499.54</ele>
        <time>2016-08-23T13:10:06Z</time>
      </trkpt>
      <trkpt lat="44.79387" lon="5.09757">
        <ele>499.06</ele>
        <time>2016-08-23T13:10:07Z</time>
      </trkpt>
      <trkpt lat="44.79395" lon="5.09761">
        <ele>499.06</ele>
        <time>2016-08-23T13:10:08Z</time>
      </trkpt>
      <trkpt lat="44.79402" lon="5.09766">
        <ele>499.06</ele>
        <time>2016-08-23T13:10:09Z</time>
      </trkpt>
      <trkpt lat="44.79423" lon="5.09783">
        <ele>497.62</ele>
        <time>2016-08-23T13:10:12Z</time>
      </trkpt>
      <trkpt lat="44.79431" lon="5.09786">
        <ele>497.62</ele>
        <time>2016-08-23T13:10:13Z</time>
      </trkpt>
      <trkpt lat="44.79439" lon="5.09785">
        <ele>497.14</ele>
        <time>2016-08-23T13:10:14Z</time>
      </trkpt>
      <trkpt lat="44.79448" lon="5.09783">
        <ele>495.7</ele>
        <time>2016-08-23T13:10:15Z</time>
      </trkpt>
      <trkpt lat="44.79455" lon="5.09779">
        <ele>495.7</ele>
        <time>2016-08-23T13:10:16Z</time>
      </trkpt>
      <trkpt lat="44.79512" lon="5.0976">
        <ele>493.29</ele>
        <time>2016-08-23T13:10:23Z</time>
      </trkpt>
      <trkpt lat="44.79579" lon="5.09735">
        <ele>489.93</ele>
        <time>2016-08-23T13:10:31Z</time>
      </trkpt>
      <trkpt lat="44.79601" lon="5.0972">
        <ele>489.45</ele>
        <time>2016-08-23T13:10:34Z</time>
      </trkpt>
      <trkpt lat="44.79608" lon="5.09716">
        <ele>488.49</ele>
        <time>2016-08-23T13:10:35Z</time>
      </trkpt>
      <trkpt lat="44.79616" lon="5.09715">
        <ele>488.97</ele>
        <time>2016-08-23T13:10:36Z</time>
      </trkpt>
      <trkpt lat="44.79624" lon="5.09716">
        <ele>488.49</ele>
        <time>2016-08-23T13:10:37Z</time>
      </trkpt>
      <trkpt lat="44.79631" lon="5.09719">
        <ele>488.49</ele>
        <time>2016-08-23T13:10:38Z</time>
      </trkpt>
      <trkpt lat="44.79639" lon="5.09722">
        <ele>488.01</ele>
        <time>2016-08-23T13:10:39Z</time>
      </trkpt>
      <trkpt lat="44.79655" lon="5.09726">
        <ele>486.56</ele>
        <time>2016-08-23T13:10:41Z</time>
      </trkpt>
      <trkpt lat="44.79663" lon="5.09726">
        <ele>486.56</ele>
        <time>2016-08-23T13:10:42Z</time>
      </trkpt>
      <trkpt lat="44.79671" lon="5.09724">
        <ele>486.08</ele>
        <time>2016-08-23T13:10:43Z</time>
      </trkpt>
      <trkpt lat="44.79721" lon="5.09713">
        <ele>484.16</ele>
        <time>2016-08-23T13:10:49Z</time>
      </trkpt>
      <trkpt lat="44.79729" lon="5.0971">
        <ele>483.68</ele>
        <time>2016-08-23T13:10:50Z</time>
      </trkpt>
      <trkpt lat="44.79738" lon="5.09706">
        <ele>483.68</ele>
        <time>2016-08-23T13:10:51Z</time>
      </trkpt>
      <trkpt lat="44.79753" lon="5.09698">
        <ele>482.72</ele>
        <time>2016-08-23T13:10:53Z</time>
      </trkpt>
      <trkpt lat="44.79762" lon="5.09696">
        <ele>482.72</ele>
        <time>2016-08-23T13:10:54Z</time>
      </trkpt>
      <trkpt lat="44.7977" lon="5.09697">
        <ele>482.72</ele>
        <time>2016-08-23T13:10:55Z</time>
      </trkpt>
      <trkpt lat="44.79813" lon="5.09706">
        <ele>480.32</ele>
        <time>2016-08-23T13:11:00Z</time>
      </trkpt>
      <trkpt lat="44.79862" lon="5.09702">
        <ele>478.87</ele>
        <time>2016-08-23T13:11:06Z</time>
      </trkpt>
      <trkpt lat="44.7987" lon="5.09702">
        <ele>478.87</ele>
        <time>2016-08-23T13:11:12Z</time>
      </trkpt>
      <trkpt lat="44.7987" lon="5.09702">
        <ele>478.87</ele>
        <time>2016-08-23T13:11:34Z</time>
      </trkpt>
      <trkpt lat="44.79873" lon="5.097">
        <ele>478.87</ele>
        <time>2016-08-23T13:12:12Z</time>
      </trkpt>
      <trkpt lat="44.79876" lon="5.097">
        <ele>478.39</ele>
        <time>2016-08-23T13:12:13Z</time>
      </trkpt>
      <trkpt lat="44.79887" lon="5.09699">
        <ele>477.43</ele>
        <time>2016-08-23T13:12:16Z</time>
      </trkpt>
      <trkpt lat="44.79891" lon="5.09698">
        <ele>476.95</ele>
        <time>2016-08-23T13:12:17Z</time>
      </trkpt>
      <trkpt lat="44.79897" lon="5.09697">
        <ele>476.95</ele>
        <time>2016-08-23T13:12:18Z</time>
      </trkpt>
      <trkpt lat="44.79902" lon="5.09695">
        <ele>476.47</ele>
        <time>2016-08-23T13:12:19Z</time>
      </trkpt>
      <trkpt lat="44.79908" lon="5.09693">
        <ele>475.51</ele>
        <time>2016-08-23T13:12:20Z</time>
      </trkpt>
      <trkpt lat="44.79914" lon="5.0969">
        <ele>475.51</ele>
        <time>2016-08-23T13:12:21Z</time>
      </trkpt>
      <trkpt lat="44.79945" lon="5.09672">
        <ele>474.07</ele>
        <time>2016-08-23T13:12:26Z</time>
      </trkpt>
      <trkpt lat="44.79951" lon="5.09665">
        <ele>474.07</ele>
        <time>2016-08-23T13:12:27Z</time>
      </trkpt>
      <trkpt lat="44.79954" lon="5.09655">
        <ele>473.59</ele>
        <time>2016-08-23T13:12:28Z</time>
      </trkpt>
      <trkpt lat="44.79955" lon="5.09646">
        <ele>472.63</ele>
        <time>2016-08-23T13:12:29Z</time>
      </trkpt>
      <trkpt lat="44.79951" lon="5.09636">
        <ele>471.18</ele>
        <time>2016-08-23T13:12:30Z</time>
      </trkpt>
      <trkpt lat="44.79946" lon="5.09627">
        <ele>470.22</ele>
        <time>2016-08-23T13:12:31Z</time>
      </trkpt>
      <trkpt lat="44.79939" lon="5.09617">
        <ele>469.26</ele>
        <time>2016-08-23T13:12:32Z</time>
      </trkpt>
      <trkpt lat="44.79914" lon="5.09575">
        <ele>465.42</ele>
        <time>2016-08-23T13:12:36Z</time>
      </trkpt>
      <trkpt lat="44.79895" lon="5.09542">
        <ele>462.05</ele>
        <time>2016-08-23T13:12:39Z</time>
      </trkpt>
      <trkpt lat="44.79863" lon="5.09487">
        <ele>458.69</ele>
        <time>2016-08-23T13:12:44Z</time>
      </trkpt>
      <trkpt lat="44.7985" lon="5.09467">
        <ele>457.72</ele>
        <time>2016-08-23T13:12:46Z</time>
      </trkpt>
      <trkpt lat="44.79842" lon="5.09459">
        <ele>456.76</ele>
        <time>2016-08-23T13:12:47Z</time>
      </trkpt>
      <trkpt lat="44.79833" lon="5.09453">
        <ele>456.28</ele>
        <time>2016-08-23T13:12:48Z</time>
      </trkpt>
      <trkpt lat="44.79788" lon="5.09423">
        <ele>452.92</ele>
        <time>2016-08-23T13:12:53Z</time>
      </trkpt>
      <trkpt lat="44.79751" lon="5.09389">
        <ele>450.52</ele>
        <time>2016-08-23T13:12:58Z</time>
      </trkpt>
      <trkpt lat="44.79738" lon="5.09372">
        <ele>449.55</ele>
        <time>2016-08-23T13:13:00Z</time>
      </trkpt>
      <trkpt lat="44.79732" lon="5.09366">
        <ele>449.55</ele>
        <time>2016-08-23T13:13:01Z</time>
      </trkpt>
      <trkpt lat="44.79725" lon="5.09361">
        <ele>449.55</ele>
        <time>2016-08-23T13:13:02Z</time>
      </trkpt>
      <trkpt lat="44.79716" lon="5.09353">
        <ele>448.59</ele>
        <time>2016-08-23T13:13:04Z</time>
      </trkpt>
      <trkpt lat="44.79714" lon="5.09347">
        <ele>448.59</ele>
        <time>2016-08-23T13:13:05Z</time>
      </trkpt>
      <trkpt lat="44.79714" lon="5.09341">
        <ele>449.07</ele>
        <time>2016-08-23T13:13:06Z</time>
      </trkpt>
      <trkpt lat="44.79716" lon="5.09336">
        <ele>449.07</ele>
        <time>2016-08-23T13:13:07Z</time>
      </trkpt>
      <trkpt lat="44.79718" lon="5.09332">
        <ele>449.07</ele>
        <time>2016-08-23T13:13:08Z</time>
      </trkpt>
      <trkpt lat="44.79721" lon="5.09328">
        <ele>449.07</ele>
        <time>2016-08-23T13:13:09Z</time>
      </trkpt>
      <trkpt lat="44.79724" lon="5.09323">
        <ele>449.07</ele>
        <time>2016-08-23T13:13:10Z</time>
      </trkpt>
      <trkpt lat="44.79752" lon="5.0927">
        <ele>448.59</ele>
        <time>2016-08-23T13:13:21Z</time>
      </trkpt>
      <trkpt lat="44.79759" lon="5.09252">
        <ele>449.07</ele>
        <time>2016-08-23T13:13:25Z</time>
      </trkpt>
      <trkpt lat="44.79759" lon="5.09248">
        <ele>449.55</ele>
        <time>2016-08-23T13:13:26Z</time>
      </trkpt>
      <trkpt lat="44.79758" lon="5.09244">
        <ele>449.55</ele>
        <time>2016-08-23T13:13:27Z</time>
      </trkpt>
      <trkpt lat="44.79756" lon="5.09239">
        <ele>449.07</ele>
        <time>2016-08-23T13:13:28Z</time>
      </trkpt>
      <trkpt lat="44.79754" lon="5.09236">
        <ele>449.07</ele>
        <time>2016-08-23T13:13:29Z</time>
      </trkpt>
      <trkpt lat="44.79751" lon="5.09231">
        <ele>449.07</ele>
        <time>2016-08-23T13:13:30Z</time>
      </trkpt>
      <trkpt lat="44.79748" lon="5.09227">
        <ele>448.11</ele>
        <time>2016-08-23T13:13:31Z</time>
      </trkpt>
      <trkpt lat="44.79729" lon="5.09196">
        <ele>448.11</ele>
        <time>2016-08-23T13:13:37Z</time>
      </trkpt>
      <trkpt lat="44.79709" lon="5.0915">
        <ele>451</ele>
        <time>2016-08-23T13:13:48Z</time>
      </trkpt>
      <trkpt lat="44.79695" lon="5.09115">
        <ele>453.88</ele>
        <time>2016-08-23T13:14:00Z</time>
      </trkpt>
      <trkpt lat="44.79681" lon="5.09066">
        <ele>457.24</ele>
        <time>2016-08-23T13:14:15Z</time>
      </trkpt>
      <trkpt lat="44.79668" lon="5.0902">
        <ele>459.65</ele>
        <time>2016-08-23T13:14:30Z</time>
      </trkpt>
      <trkpt lat="44.79666" lon="5.09017">
        <ele>460.13</ele>
        <time>2016-08-23T13:14:42Z</time>
      </trkpt>
      <trkpt lat="44.79664" lon="5.09016">
        <ele>460.13</ele>
        <time>2016-08-23T13:14:45Z</time>
      </trkpt>
      <trkpt lat="44.79663" lon="5.09015">
        <ele>459.65</ele>
        <time>2016-08-23T13:14:46Z</time>
      </trkpt>
      <trkpt lat="44.7966" lon="5.09014">
        <ele>459.65</ele>
        <time>2016-08-23T13:14:47Z</time>
      </trkpt>
      <trkpt lat="44.79658" lon="5.09013">
        <ele>459.65</ele>
        <time>2016-08-23T13:14:48Z</time>
      </trkpt>
      <trkpt lat="44.79656" lon="5.09011">
        <ele>459.17</ele>
        <time>2016-08-23T13:14:49Z</time>
      </trkpt>
      <trkpt lat="44.79653" lon="5.09008">
        <ele>459.17</ele>
        <time>2016-08-23T13:14:50Z</time>
      </trkpt>
      <trkpt lat="44.79651" lon="5.09006">
        <ele>459.17</ele>
        <time>2016-08-23T13:14:51Z</time>
      </trkpt>
      <trkpt lat="44.79649" lon="5.09004">
        <ele>459.17</ele>
        <time>2016-08-23T13:14:52Z</time>
      </trkpt>
      <trkpt lat="44.79647" lon="5.09002">
        <ele>459.65</ele>
        <time>2016-08-23T13:14:53Z</time>
      </trkpt>
      <trkpt lat="44.79617" lon="5.0898">
        <ele>461.09</ele>
        <time>2016-08-23T13:15:06Z</time>
      </trkpt>
      <trkpt lat="44.79589" lon="5.08956">
        <ele>463.01</ele>
        <time>2016-08-23T13:15:19Z</time>
      </trkpt>
      <trkpt lat="44.79583" lon="5.08954">
        <ele>462.05</ele>
        <time>2016-08-23T13:15:21Z</time>
      </trkpt>
      <trkpt lat="44.79571" lon="5.08939">
        <ele>461.09</ele>
        <time>2016-08-23T13:15:25Z</time>
      </trkpt>
      <trkpt lat="44.79563" lon="5.08921">
        <ele>460.61</ele>
        <time>2016-08-23T13:15:32Z</time>
      </trkpt>
      <trkpt lat="44.79561" lon="5.0892">
        <ele>460.13</ele>
        <time>2016-08-23T13:15:33Z</time>
      </trkpt>
      <trkpt lat="44.79558" lon="5.0892">
        <ele>459.65</ele>
        <time>2016-08-23T13:15:34Z</time>
      </trkpt>
      <trkpt lat="44.79555" lon="5.08919">
        <ele>458.21</ele>
        <time>2016-08-23T13:15:35Z</time>
      </trkpt>
      <trkpt lat="44.7955" lon="5.08919">
        <ele>457.72</ele>
        <time>2016-08-23T13:15:36Z</time>
      </trkpt>
      <trkpt lat="44.79545" lon="5.08919">
        <ele>456.76</ele>
        <time>2016-08-23T13:15:37Z</time>
      </trkpt>
      <trkpt lat="44.79539" lon="5.08919">
        <ele>455.8</ele>
        <time>2016-08-23T13:15:38Z</time>
      </trkpt>
      <trkpt lat="44.79534" lon="5.0892">
        <ele>454.84</ele>
        <time>2016-08-23T13:15:39Z</time>
      </trkpt>
      <trkpt lat="44.79529" lon="5.08921">
        <ele>454.36</ele>
        <time>2016-08-23T13:15:41Z</time>
      </trkpt>
      <trkpt lat="44.79529" lon="5.08921">
        <ele>453.88</ele>
        <time>2016-08-23T13:15:47Z</time>
      </trkpt>
      <trkpt lat="44.79527" lon="5.08921">
        <ele>453.88</ele>
        <time>2016-08-23T13:15:48Z</time>
      </trkpt>
      <trkpt lat="44.79521" lon="5.0892">
        <ele>452.92</ele>
        <time>2016-08-23T13:15:50Z</time>
      </trkpt>
      <trkpt lat="44.79516" lon="5.0892">
        <ele>451.96</ele>
        <time>2016-08-23T13:15:51Z</time>
      </trkpt>
      <trkpt lat="44.7951" lon="5.0892">
        <ele>451</ele>
        <time>2016-08-23T13:15:52Z</time>
      </trkpt>
      <trkpt lat="44.79505" lon="5.08921">
        <ele>449.55</ele>
        <time>2016-08-23T13:15:53Z</time>
      </trkpt>
      <trkpt lat="44.79499" lon="5.08921">
        <ele>448.59</ele>
        <time>2016-08-23T13:15:54Z</time>
      </trkpt>
      <trkpt lat="44.79492" lon="5.0892">
        <ele>447.63</ele>
        <time>2016-08-23T13:15:55Z</time>
      </trkpt>
      <trkpt lat="44.79487" lon="5.08918">
        <ele>447.15</ele>
        <time>2016-08-23T13:15:56Z</time>
      </trkpt>
      <trkpt lat="44.7947" lon="5.08913">
        <ele>443.31</ele>
        <time>2016-08-23T13:15:59Z</time>
      </trkpt>
      <trkpt lat="44.79461" lon="5.08912">
        <ele>442.34</ele>
        <time>2016-08-23T13:16:01Z</time>
      </trkpt>
      <trkpt lat="44.79457" lon="5.0891">
        <ele>441.86</ele>
        <time>2016-08-23T13:16:02Z</time>
      </trkpt>
      <trkpt lat="44.79453" lon="5.08908">
        <ele>440.9</ele>
        <time>2016-08-23T13:16:03Z</time>
      </trkpt>
      <trkpt lat="44.79449" lon="5.08907">
        <ele>440.42</ele>
        <time>2016-08-23T13:16:04Z</time>
      </trkpt>
      <trkpt lat="44.79445" lon="5.08905">
        <ele>439.94</ele>
        <time>2016-08-23T13:16:05Z</time>
      </trkpt>
      <trkpt lat="44.7944" lon="5.08902">
        <ele>439.46</ele>
        <time>2016-08-23T13:16:06Z</time>
      </trkpt>
      <trkpt lat="44.79426" lon="5.08894">
        <ele>437.54</ele>
        <time>2016-08-23T13:16:09Z</time>
      </trkpt>
      <trkpt lat="44.7942" lon="5.08894">
        <ele>436.58</ele>
        <time>2016-08-23T13:16:10Z</time>
      </trkpt>
      <trkpt lat="44.79414" lon="5.08894">
        <ele>436.1</ele>
        <time>2016-08-23T13:16:11Z</time>
      </trkpt>
      <trkpt lat="44.79408" lon="5.08893">
        <ele>435.13</ele>
        <time>2016-08-23T13:16:12Z</time>
      </trkpt>
      <trkpt lat="44.79402" lon="5.08892">
        <ele>434.65</ele>
        <time>2016-08-23T13:16:13Z</time>
      </trkpt>
      <trkpt lat="44.79397" lon="5.08893">
        <ele>434.17</ele>
        <time>2016-08-23T13:16:14Z</time>
      </trkpt>
      <trkpt lat="44.79391" lon="5.08895">
        <ele>433.69</ele>
        <time>2016-08-23T13:16:15Z</time>
      </trkpt>
      <trkpt lat="44.79386" lon="5.08898">
        <ele>433.21</ele>
        <time>2016-08-23T13:16:16Z</time>
      </trkpt>
      <trkpt lat="44.79381" lon="5.08903">
        <ele>432.25</ele>
        <time>2016-08-23T13:16:17Z</time>
      </trkpt>
      <trkpt lat="44.79376" lon="5.08906">
        <ele>432.25</ele>
        <time>2016-08-23T13:16:18Z</time>
      </trkpt>
      <trkpt lat="44.79372" lon="5.08908">
        <ele>431.77</ele>
        <time>2016-08-23T13:16:19Z</time>
      </trkpt>
      <trkpt lat="44.79368" lon="5.08909">
        <ele>431.77</ele>
        <time>2016-08-23T13:16:20Z</time>
      </trkpt>
      <trkpt lat="44.79365" lon="5.08909">
        <ele>431.77</ele>
        <time>2016-08-23T13:16:21Z</time>
      </trkpt>
      <trkpt lat="44.79362" lon="5.0891">
        <ele>431.77</ele>
        <time>2016-08-23T13:16:22Z</time>
      </trkpt>
      <trkpt lat="44.79359" lon="5.08912">
        <ele>431.77</ele>
        <time>2016-08-23T13:16:23Z</time>
      </trkpt>
      <trkpt lat="44.79355" lon="5.08915">
        <ele>431.29</ele>
        <time>2016-08-23T13:16:24Z</time>
      </trkpt>
      <trkpt lat="44.7935" lon="5.08917">
        <ele>430.81</ele>
        <time>2016-08-23T13:16:25Z</time>
      </trkpt>
      <trkpt lat="44.79345" lon="5.08918">
        <ele>430.33</ele>
        <time>2016-08-23T13:16:26Z</time>
      </trkpt>
      <trkpt lat="44.79339" lon="5.08919">
        <ele>428.89</ele>
        <time>2016-08-23T13:16:27Z</time>
      </trkpt>
      <trkpt lat="44.79333" lon="5.08919">
        <ele>428.89</ele>
        <time>2016-08-23T13:16:28Z</time>
      </trkpt>
      <trkpt lat="44.79316" lon="5.08918">
        <ele>428.4</ele>
        <time>2016-08-23T13:16:31Z</time>
      </trkpt>
      <trkpt lat="44.79307" lon="5.08916">
        <ele>429.37</ele>
        <time>2016-08-23T13:16:35Z</time>
      </trkpt>
      <trkpt lat="44.79306" lon="5.08918">
        <ele>429.37</ele>
        <time>2016-08-23T13:16:36Z</time>
      </trkpt>
      <trkpt lat="44.79307" lon="5.08919">
        <ele>429.37</ele>
        <time>2016-08-23T13:16:37Z</time>
      </trkpt>
      <trkpt lat="44.79308" lon="5.08919">
        <ele>429.37</ele>
        <time>2016-08-23T13:16:38Z</time>
      </trkpt>
      <trkpt lat="44.79309" lon="5.08921">
        <ele>429.37</ele>
        <time>2016-08-23T13:16:39Z</time>
      </trkpt>
      <trkpt lat="44.7931" lon="5.08924">
        <ele>428.89</ele>
        <time>2016-08-23T13:16:40Z</time>
      </trkpt>
      <trkpt lat="44.7931" lon="5.08928">
        <ele>428.89</ele>
        <time>2016-08-23T13:16:41Z</time>
      </trkpt>
      <trkpt lat="44.79309" lon="5.08931">
        <ele>428.89</ele>
        <time>2016-08-23T13:16:42Z</time>
      </trkpt>
      <trkpt lat="44.79308" lon="5.08934">
        <ele>428.89</ele>
        <time>2016-08-23T13:16:43Z</time>
      </trkpt>
      <trkpt lat="44.79306" lon="5.08936">
        <ele>428.89</ele>
        <time>2016-08-23T13:16:44Z</time>
      </trkpt>
      <trkpt lat="44.79305" lon="5.08939">
        <ele>428.89</ele>
        <time>2016-08-23T13:16:45Z</time>
      </trkpt>
      <trkpt lat="44.79302" lon="5.08941">
        <ele>428.4</ele>
        <time>2016-08-23T13:16:47Z</time>
      </trkpt>
      <trkpt lat="44.79307" lon="5.08938">
        <ele>428.89</ele>
        <time>2016-08-23T13:16:50Z</time>
      </trkpt>
      <trkpt lat="44.79312" lon="5.08923">
        <ele>428.89</ele>
        <time>2016-08-23T13:16:56Z</time>
      </trkpt>
      <trkpt lat="44.79314" lon="5.08905">
        <ele>429.85</ele>
        <time>2016-08-23T13:17:03Z</time>
      </trkpt>
      <trkpt lat="44.79316" lon="5.089">
        <ele>430.33</ele>
        <time>2016-08-23T13:17:08Z</time>
      </trkpt>
      <trkpt lat="44.79311" lon="5.089">
        <ele>430.81</ele>
        <time>2016-08-23T13:17:12Z</time>
      </trkpt>
      <trkpt lat="44.79292" lon="5.08908">
        <ele>433.69</ele>
        <time>2016-08-23T13:17:26Z</time>
      </trkpt>
      <trkpt lat="44.79289" lon="5.0891">
        <ele>434.17</ele>
        <time>2016-08-23T13:17:28Z</time>
      </trkpt>
      <trkpt lat="44.79282" lon="5.08909">
        <ele>434.65</ele>
        <time>2016-08-23T13:17:32Z</time>
      </trkpt>
      <trkpt lat="44.79256" lon="5.08906">
        <ele>436.58</ele>
        <time>2016-08-23T13:17:47Z</time>
      </trkpt>
      <trkpt lat="44.79248" lon="5.089">
        <ele>437.54</ele>
        <time>2016-08-23T13:17:53Z</time>
      </trkpt>
      <trkpt lat="44.79236" lon="5.0889">
        <ele>438.98</ele>
        <time>2016-08-23T13:18:03Z</time>
      </trkpt>
      <trkpt lat="44.79235" lon="5.08889">
        <ele>439.46</ele>
        <time>2016-08-23T13:18:04Z</time>
      </trkpt>
      <trkpt lat="44.79224" lon="5.08879">
        <ele>440.9</ele>
        <time>2016-08-23T13:18:13Z</time>
      </trkpt>
      <trkpt lat="44.79215" lon="5.08871">
        <ele>442.82</ele>
        <time>2016-08-23T13:18:21Z</time>
      </trkpt>
      <trkpt lat="44.79202" lon="5.08869">
        <ele>441.38</ele>
        <time>2016-08-23T13:18:32Z</time>
      </trkpt>
      <trkpt lat="44.79192" lon="5.08867">
        <ele>439.94</ele>
        <time>2016-08-23T13:18:34Z</time>
      </trkpt>
      <trkpt lat="44.7918" lon="5.08864">
        <ele>438.5</ele>
        <time>2016-08-23T13:18:36Z</time>
      </trkpt>
      <trkpt lat="44.79174" lon="5.08863">
        <ele>437.06</ele>
        <time>2016-08-23T13:18:37Z</time>
      </trkpt>
      <trkpt lat="44.79155" lon="5.08848">
        <ele>436.58</ele>
        <time>2016-08-23T13:18:44Z</time>
      </trkpt>
      <trkpt lat="44.79146" lon="5.08836">
        <ele>438.5</ele>
        <time>2016-08-23T13:18:55Z</time>
      </trkpt>
      <trkpt lat="44.79146" lon="5.08836">
        <ele>438.5</ele>
        <time>2016-08-23T13:18:56Z</time>
      </trkpt>
      <trkpt lat="44.79144" lon="5.08835">
        <ele>438.5</ele>
        <time>2016-08-23T13:18:57Z</time>
      </trkpt>
      <trkpt lat="44.79142" lon="5.08834">
        <ele>438.02</ele>
        <time>2016-08-23T13:18:58Z</time>
      </trkpt>
      <trkpt lat="44.7914" lon="5.08833">
        <ele>438.02</ele>
        <time>2016-08-23T13:18:59Z</time>
      </trkpt>
      <trkpt lat="44.79137" lon="5.08832">
        <ele>438.02</ele>
        <time>2016-08-23T13:19:00Z</time>
      </trkpt>
      <trkpt lat="44.79135" lon="5.08831">
        <ele>438.02</ele>
        <time>2016-08-23T13:19:01Z</time>
      </trkpt>
      <trkpt lat="44.79132" lon="5.0883">
        <ele>438.02</ele>
        <time>2016-08-23T13:19:02Z</time>
      </trkpt>
      <trkpt lat="44.79101" lon="5.08823">
        <ele>436.58</ele>
        <time>2016-08-23T13:19:11Z</time>
      </trkpt>
      <trkpt lat="44.79097" lon="5.08824">
        <ele>436.1</ele>
        <time>2016-08-23T13:19:12Z</time>
      </trkpt>
      <trkpt lat="44.79093" lon="5.08825">
        <ele>436.1</ele>
        <time>2016-08-23T13:19:13Z</time>
      </trkpt>
      <trkpt lat="44.79078" lon="5.08829">
        <ele>434.65</ele>
        <time>2016-08-23T13:19:16Z</time>
      </trkpt>
      <trkpt lat="44.79071" lon="5.08828">
        <ele>433.69</ele>
        <time>2016-08-23T13:19:17Z</time>
      </trkpt>
      <trkpt lat="44.79052" lon="5.08828">
        <ele>431.77</ele>
        <time>2016-08-23T13:19:20Z</time>
      </trkpt>
      <trkpt lat="44.79047" lon="5.08829">
        <ele>432.25</ele>
        <time>2016-08-23T13:19:21Z</time>
      </trkpt>
      <trkpt lat="44.79039" lon="5.08834">
        <ele>432.25</ele>
        <time>2016-08-23T13:19:25Z</time>
      </trkpt>
      <trkpt lat="44.79038" lon="5.08834">
        <ele>433.69</ele>
        <time>2016-08-23T13:19:26Z</time>
      </trkpt>
      <trkpt lat="44.79035" lon="5.08834">
        <ele>433.21</ele>
        <time>2016-08-23T13:19:27Z</time>
      </trkpt>
      <trkpt lat="44.79033" lon="5.08834">
        <ele>432.73</ele>
        <time>2016-08-23T13:19:28Z</time>
      </trkpt>
      <trkpt lat="44.7903" lon="5.08834">
        <ele>432.73</ele>
        <time>2016-08-23T13:19:29Z</time>
      </trkpt>
      <trkpt lat="44.79027" lon="5.08834">
        <ele>432.25</ele>
        <time>2016-08-23T13:19:30Z</time>
      </trkpt>
      <trkpt lat="44.79023" lon="5.08834">
        <ele>432.25</ele>
        <time>2016-08-23T13:19:31Z</time>
      </trkpt>
      <trkpt lat="44.79018" lon="5.08834">
        <ele>431.77</ele>
        <time>2016-08-23T13:19:32Z</time>
      </trkpt>
      <trkpt lat="44.79014" lon="5.08833">
        <ele>431.29</ele>
        <time>2016-08-23T13:19:33Z</time>
      </trkpt>
      <trkpt lat="44.78981" lon="5.08825">
        <ele>427.92</ele>
        <time>2016-08-23T13:19:39Z</time>
      </trkpt>
      <trkpt lat="44.78975" lon="5.08823">
        <ele>426.96</ele>
        <time>2016-08-23T13:19:40Z</time>
      </trkpt>
      <trkpt lat="44.78961" lon="5.08818">
        <ele>425.04</ele>
        <time>2016-08-23T13:19:42Z</time>
      </trkpt>
      <trkpt lat="44.78953" lon="5.08814">
        <ele>424.08</ele>
        <time>2016-08-23T13:19:43Z</time>
      </trkpt>
      <trkpt lat="44.78947" lon="5.08809">
        <ele>422.64</ele>
        <time>2016-08-23T13:19:44Z</time>
      </trkpt>
      <trkpt lat="44.78941" lon="5.08804">
        <ele>422.16</ele>
        <time>2016-08-23T13:19:45Z</time>
      </trkpt>
      <trkpt lat="44.78935" lon="5.08799">
        <ele>422.16</ele>
        <time>2016-08-23T13:19:46Z</time>
      </trkpt>
      <trkpt lat="44.7893" lon="5.08794">
        <ele>422.16</ele>
        <time>2016-08-23T13:19:47Z</time>
      </trkpt>
      <trkpt lat="44.78925" lon="5.08791">
        <ele>422.16</ele>
        <time>2016-08-23T13:19:48Z</time>
      </trkpt>
      <trkpt lat="44.78919" lon="5.08789">
        <ele>422.16</ele>
        <time>2016-08-23T13:19:49Z</time>
      </trkpt>
      <trkpt lat="44.78914" lon="5.08787">
        <ele>421.68</ele>
        <time>2016-08-23T13:19:50Z</time>
      </trkpt>
      <trkpt lat="44.78908" lon="5.08787">
        <ele>421.68</ele>
        <time>2016-08-23T13:19:51Z</time>
      </trkpt>
      <trkpt lat="44.78903" lon="5.08786">
        <ele>421.68</ele>
        <time>2016-08-23T13:19:52Z</time>
      </trkpt>
      <trkpt lat="44.78898" lon="5.08786">
        <ele>421.19</ele>
        <time>2016-08-23T13:19:53Z</time>
      </trkpt>
      <trkpt lat="44.78884" lon="5.08784">
        <ele>421.19</ele>
        <time>2016-08-23T13:19:57Z</time>
      </trkpt>
      <trkpt lat="44.78883" lon="5.08785">
        <ele>421.68</ele>
        <time>2016-08-23T13:19:58Z</time>
      </trkpt>
      <trkpt lat="44.78882" lon="5.08787">
        <ele>421.68</ele>
        <time>2016-08-23T13:20:07Z</time>
      </trkpt>
      <trkpt lat="44.78879" lon="5.08796">
        <ele>420.71</ele>
        <time>2016-08-23T13:20:21Z</time>
      </trkpt>
      <trkpt lat="44.78876" lon="5.08798">
        <ele>420.23</ele>
        <time>2016-08-23T13:20:31Z</time>
      </trkpt>
      <trkpt lat="44.78869" lon="5.08795">
        <ele>419.27</ele>
        <time>2016-08-23T13:20:43Z</time>
      </trkpt>
      <trkpt lat="44.78868" lon="5.08794">
        <ele>419.27</ele>
        <time>2016-08-23T13:20:44Z</time>
      </trkpt>
      <trkpt lat="44.78867" lon="5.08794">
        <ele>419.27</ele>
        <time>2016-08-23T13:20:45Z</time>
      </trkpt>
      <trkpt lat="44.78866" lon="5.08793">
        <ele>419.27</ele>
        <time>2016-08-23T13:20:46Z</time>
      </trkpt>
      <trkpt lat="44.78865" lon="5.08793">
        <ele>419.27</ele>
        <time>2016-08-23T13:20:47Z</time>
      </trkpt>
      <trkpt lat="44.78864" lon="5.08793">
        <ele>419.27</ele>
        <time>2016-08-23T13:20:48Z</time>
      </trkpt>
      <trkpt lat="44.78863" lon="5.08792">
        <ele>419.27</ele>
        <time>2016-08-23T13:20:49Z</time>
      </trkpt>
      <trkpt lat="44.7886" lon="5.08791">
        <ele>419.27</ele>
        <time>2016-08-23T13:20:52Z</time>
      </trkpt>
      <trkpt lat="44.78858" lon="5.0879">
        <ele>419.27</ele>
        <time>2016-08-23T13:20:53Z</time>
      </trkpt>
      <trkpt lat="44.78851" lon="5.08789">
        <ele>418.79</ele>
        <time>2016-08-23T13:21:05Z</time>
      </trkpt>
      <trkpt lat="44.7885" lon="5.08789">
        <ele>418.79</ele>
        <time>2016-08-23T13:21:06Z</time>
      </trkpt>
      <trkpt lat="44.78848" lon="5.0879">
        <ele>418.79</ele>
        <time>2016-08-23T13:21:07Z</time>
      </trkpt>
      <trkpt lat="44.78846" lon="5.08791">
        <ele>418.31</ele>
        <time>2016-08-23T13:21:09Z</time>
      </trkpt>
      <trkpt lat="44.78845" lon="5.08792">
        <ele>417.83</ele>
        <time>2016-08-23T13:21:10Z</time>
      </trkpt>
      <trkpt lat="44.78843" lon="5.08794">
        <ele>417.83</ele>
        <time>2016-08-23T13:21:11Z</time>
      </trkpt>
      <trkpt lat="44.78832" lon="5.08812">
        <ele>415.43</ele>
        <time>2016-08-23T13:21:17Z</time>
      </trkpt>
      <trkpt lat="44.78831" lon="5.08818">
        <ele>413.98</ele>
        <time>2016-08-23T13:21:18Z</time>
      </trkpt>
      <trkpt lat="44.78831" lon="5.08824">
        <ele>413.5</ele>
        <time>2016-08-23T13:21:19Z</time>
      </trkpt>
      <trkpt lat="44.7883" lon="5.0883">
        <ele>413.02</ele>
        <time>2016-08-23T13:21:20Z</time>
      </trkpt>
      <trkpt lat="44.7883" lon="5.08837">
        <ele>412.06</ele>
        <time>2016-08-23T13:21:21Z</time>
      </trkpt>
      <trkpt lat="44.7883" lon="5.08843">
        <ele>411.1</ele>
        <time>2016-08-23T13:21:22Z</time>
      </trkpt>
      <trkpt lat="44.78827" lon="5.08863">
        <ele>408.22</ele>
        <time>2016-08-23T13:21:26Z</time>
      </trkpt>
      <trkpt lat="44.78823" lon="5.08874">
        <ele>406.29</ele>
        <time>2016-08-23T13:21:28Z</time>
      </trkpt>
      <trkpt lat="44.78817" lon="5.08897">
        <ele>404.37</ele>
        <time>2016-08-23T13:21:31Z</time>
      </trkpt>
      <trkpt lat="44.78812" lon="5.08905">
        <ele>404.85</ele>
        <time>2016-08-23T13:21:33Z</time>
      </trkpt>
      <trkpt lat="44.7881" lon="5.08905">
        <ele>405.33</ele>
        <time>2016-08-23T13:21:34Z</time>
      </trkpt>
      <trkpt lat="44.78786" lon="5.089">
        <ele>403.41</ele>
        <time>2016-08-23T13:21:41Z</time>
      </trkpt>
      <trkpt lat="44.78782" lon="5.08899">
        <ele>402.93</ele>
        <time>2016-08-23T13:21:42Z</time>
      </trkpt>
      <trkpt lat="44.78774" lon="5.08898">
        <ele>403.89</ele>
        <time>2016-08-23T13:21:44Z</time>
      </trkpt>
      <trkpt lat="44.7877" lon="5.08897">
        <ele>403.89</ele>
        <time>2016-08-23T13:21:45Z</time>
      </trkpt>
      <trkpt lat="44.78756" lon="5.08894">
        <ele>403.41</ele>
        <time>2016-08-23T13:21:48Z</time>
      </trkpt>
      <trkpt lat="44.78673" lon="5.08855">
        <ele>400.53</ele>
        <time>2016-08-23T13:22:04Z</time>
      </trkpt>
      <trkpt lat="44.78655" lon="5.08847">
        <ele>399.57</ele>
        <time>2016-08-23T13:22:07Z</time>
      </trkpt>
      <trkpt lat="44.78601" lon="5.0883">
        <ele>397.16</ele>
        <time>2016-08-23T13:22:15Z</time>
      </trkpt>
      <trkpt lat="44.78515" lon="5.0878">
        <ele>394.28</ele>
        <time>2016-08-23T13:22:29Z</time>
      </trkpt>
      <trkpt lat="44.78457" lon="5.08705">
        <ele>393.8</ele>
        <time>2016-08-23T13:22:41Z</time>
      </trkpt>
      <trkpt lat="44.78439" lon="5.0867">
        <ele>394.28</ele>
        <time>2016-08-23T13:22:46Z</time>
      </trkpt>
      <trkpt lat="44.78435" lon="5.08664">
        <ele>394.28</ele>
        <time>2016-08-23T13:22:47Z</time>
      </trkpt>
      <trkpt lat="44.78431" lon="5.08659">
        <ele>394.28</ele>
        <time>2016-08-23T13:22:48Z</time>
      </trkpt>
      <trkpt lat="44.78373" lon="5.08603">
        <ele>395.72</ele>
        <time>2016-08-23T13:23:01Z</time>
      </trkpt>
      <trkpt lat="44.78357" lon="5.08583">
        <ele>395.72</ele>
        <time>2016-08-23T13:23:05Z</time>
      </trkpt>
      <trkpt lat="44.78354" lon="5.08577">
        <ele>395.72</ele>
        <time>2016-08-23T13:23:06Z</time>
      </trkpt>
      <trkpt lat="44.78348" lon="5.08565">
        <ele>394.76</ele>
        <time>2016-08-23T13:23:08Z</time>
      </trkpt>
      <trkpt lat="44.78346" lon="5.08559">
        <ele>395.72</ele>
        <time>2016-08-23T13:23:09Z</time>
      </trkpt>
      <trkpt lat="44.78342" lon="5.08545">
        <ele>395.72</ele>
        <time>2016-08-23T13:23:11Z</time>
      </trkpt>
      <trkpt lat="44.78339" lon="5.08539">
        <ele>395.72</ele>
        <time>2016-08-23T13:23:12Z</time>
      </trkpt>
      <trkpt lat="44.78335" lon="5.08533">
        <ele>395.72</ele>
        <time>2016-08-23T13:23:13Z</time>
      </trkpt>
      <trkpt lat="44.78331" lon="5.08528">
        <ele>395.72</ele>
        <time>2016-08-23T13:23:14Z</time>
      </trkpt>
      <trkpt lat="44.78327" lon="5.08523">
        <ele>395.24</ele>
        <time>2016-08-23T13:23:15Z</time>
      </trkpt>
      <trkpt lat="44.78322" lon="5.08519">
        <ele>394.76</ele>
        <time>2016-08-23T13:23:16Z</time>
      </trkpt>
      <trkpt lat="44.78317" lon="5.08515">
        <ele>394.76</ele>
        <time>2016-08-23T13:23:17Z</time>
      </trkpt>
      <trkpt lat="44.78259" lon="5.08466">
        <ele>390.91</ele>
        <time>2016-08-23T13:23:28Z</time>
      </trkpt>
      <trkpt lat="44.78254" lon="5.08459">
        <ele>390.43</ele>
        <time>2016-08-23T13:23:29Z</time>
      </trkpt>
      <trkpt lat="44.78249" lon="5.08451">
        <ele>389.95</ele>
        <time>2016-08-23T13:23:30Z</time>
      </trkpt>
      <trkpt lat="44.78246" lon="5.08442">
        <ele>389.47</ele>
        <time>2016-08-23T13:23:31Z</time>
      </trkpt>
      <trkpt lat="44.78242" lon="5.08433">
        <ele>388.99</ele>
        <time>2016-08-23T13:23:32Z</time>
      </trkpt>
      <trkpt lat="44.78222" lon="5.08381">
        <ele>385.15</ele>
        <time>2016-08-23T13:23:37Z</time>
      </trkpt>
      <trkpt lat="44.78218" lon="5.08371">
        <ele>385.15</ele>
        <time>2016-08-23T13:23:38Z</time>
      </trkpt>
      <trkpt lat="44.78209" lon="5.08352">
        <ele>385.63</ele>
        <time>2016-08-23T13:23:40Z</time>
      </trkpt>
      <trkpt lat="44.78204" lon="5.08344">
        <ele>386.11</ele>
        <time>2016-08-23T13:23:41Z</time>
      </trkpt>
      <trkpt lat="44.78199" lon="5.08337">
        <ele>385.63</ele>
        <time>2016-08-23T13:23:42Z</time>
      </trkpt>
      <trkpt lat="44.78193" lon="5.08331">
        <ele>386.11</ele>
        <time>2016-08-23T13:23:43Z</time>
      </trkpt>
      <trkpt lat="44.78187" lon="5.08325">
        <ele>386.11</ele>
        <time>2016-08-23T13:23:44Z</time>
      </trkpt>
      <trkpt lat="44.7811" lon="5.08261">
        <ele>385.15</ele>
        <time>2016-08-23T13:23:58Z</time>
      </trkpt>
      <trkpt lat="44.78101" lon="5.08251">
        <ele>385.15</ele>
        <time>2016-08-23T13:24:00Z</time>
      </trkpt>
      <trkpt lat="44.78099" lon="5.08248">
        <ele>385.15</ele>
        <time>2016-08-23T13:24:01Z</time>
      </trkpt>
      <trkpt lat="44.78097" lon="5.08245">
        <ele>385.15</ele>
        <time>2016-08-23T13:24:02Z</time>
      </trkpt>
      <trkpt lat="44.78096" lon="5.08244">
        <ele>385.15</ele>
        <time>2016-08-23T13:24:08Z</time>
      </trkpt>
      <trkpt lat="44.78096" lon="5.0825">
        <ele>385.15</ele>
        <time>2016-08-23T13:24:12Z</time>
      </trkpt>
      <trkpt lat="44.78097" lon="5.08251">
        <ele>385.15</ele>
        <time>2016-08-23T13:24:13Z</time>
      </trkpt>
      <trkpt lat="44.78098" lon="5.08253">
        <ele>385.15</ele>
        <time>2016-08-23T13:24:14Z</time>
      </trkpt>
      <trkpt lat="44.78104" lon="5.0826">
        <ele>385.15</ele>
        <time>2016-08-23T13:24:19Z</time>
      </trkpt>
      <trkpt lat="44.78105" lon="5.08259">
        <ele>385.15</ele>
        <time>2016-08-23T13:24:20Z</time>
      </trkpt>
      <trkpt lat="44.78106" lon="5.08257">
        <ele>385.63</ele>
        <time>2016-08-23T13:24:21Z</time>
      </trkpt>
      <trkpt lat="44.78108" lon="5.08238">
        <ele>387.07</ele>
        <time>2016-08-23T13:24:28Z</time>
      </trkpt>
      <trkpt lat="44.78109" lon="5.08236">
        <ele>387.55</ele>
        <time>2016-08-23T13:24:29Z</time>
      </trkpt>
      <trkpt lat="44.78114" lon="5.08215">
        <ele>388.51</ele>
        <time>2016-08-23T13:24:39Z</time>
      </trkpt>
      <trkpt lat="44.78114" lon="5.08215">
        <ele>388.51</ele>
        <time>2016-08-23T13:24:52Z</time>
      </trkpt>
      <trkpt lat="44.78114" lon="5.08215">
        <ele>388.51</ele>
        <time>2016-08-23T13:24:54Z</time>
      </trkpt>
      <trkpt lat="44.78109" lon="5.08212">
        <ele>388.99</ele>
        <time>2016-08-23T13:25:56Z</time>
      </trkpt>
      <trkpt lat="44.78109" lon="5.08211">
        <ele>388.99</ele>
        <time>2016-08-23T13:25:57Z</time>
      </trkpt>
      <trkpt lat="44.78115" lon="5.08209">
        <ele>388.99</ele>
        <time>2016-08-23T13:26:03Z</time>
      </trkpt>
      <trkpt lat="44.78115" lon="5.08194">
        <ele>390.43</ele>
        <time>2016-08-23T13:26:15Z</time>
      </trkpt>
      <trkpt lat="44.78115" lon="5.08194">
        <ele>390.43</ele>
        <time>2016-08-23T13:26:34Z</time>
      </trkpt>
      <trkpt lat="44.78113" lon="5.08192">
        <ele>390.43</ele>
        <time>2016-08-23T13:27:05Z</time>
      </trkpt>
      <trkpt lat="44.78115" lon="5.08194">
        <ele>390.43</ele>
        <time>2016-08-23T13:27:38Z</time>
      </trkpt>
      <trkpt lat="44.78115" lon="5.08194">
        <ele>390.43</ele>
        <time>2016-08-23T13:28:01Z</time>
      </trkpt>
      <trkpt lat="44.78114" lon="5.08193">
        <ele>390.43</ele>
        <time>2016-08-23T13:28:15Z</time>
      </trkpt>
      <trkpt lat="44.78101" lon="5.08172">
        <ele>393.32</ele>
        <time>2016-08-23T13:28:26Z</time>
      </trkpt>
      <trkpt lat="44.7809" lon="5.0816">
        <ele>395.72</ele>
        <time>2016-08-23T13:28:37Z</time>
      </trkpt>
      <trkpt lat="44.78087" lon="5.08158">
        <ele>396.2</ele>
        <time>2016-08-23T13:28:40Z</time>
      </trkpt>
      <trkpt lat="44.78085" lon="5.08157">
        <ele>396.68</ele>
        <time>2016-08-23T13:28:42Z</time>
      </trkpt>
      <trkpt lat="44.78077" lon="5.08151">
        <ele>399.08</ele>
        <time>2016-08-23T13:28:51Z</time>
      </trkpt>
      <trkpt lat="44.78073" lon="5.08149">
        <ele>400.05</ele>
        <time>2016-08-23T13:28:55Z</time>
      </trkpt>
      <trkpt lat="44.78068" lon="5.08144">
        <ele>401.49</ele>
        <time>2016-08-23T13:29:01Z</time>
      </trkpt>
      <trkpt lat="44.78067" lon="5.08142">
        <ele>401.97</ele>
        <time>2016-08-23T13:29:03Z</time>
      </trkpt>
      <trkpt lat="44.78058" lon="5.08134">
        <ele>403.89</ele>
        <time>2016-08-23T13:29:14Z</time>
      </trkpt>
      <trkpt lat="44.78052" lon="5.08132">
        <ele>405.33</ele>
        <time>2016-08-23T13:29:20Z</time>
      </trkpt>
      <trkpt lat="44.78039" lon="5.08125">
        <ele>408.22</ele>
        <time>2016-08-23T13:29:34Z</time>
      </trkpt>
      <trkpt lat="44.78029" lon="5.0812">
        <ele>410.14</ele>
        <time>2016-08-23T13:29:43Z</time>
      </trkpt>
      <trkpt lat="44.78018" lon="5.08114">
        <ele>413.5</ele>
        <time>2016-08-23T13:29:58Z</time>
      </trkpt>
      <trkpt lat="44.78008" lon="5.08109">
        <ele>415.43</ele>
        <time>2016-08-23T13:30:09Z</time>
      </trkpt>
      <trkpt lat="44.78003" lon="5.08107">
        <ele>416.87</ele>
        <time>2016-08-23T13:30:15Z</time>
      </trkpt>
      <trkpt lat="44.7799" lon="5.08099">
        <ele>420.23</ele>
        <time>2016-08-23T13:30:28Z</time>
      </trkpt>
      <trkpt lat="44.7798" lon="5.08095">
        <ele>421.68</ele>
        <time>2016-08-23T13:30:37Z</time>
      </trkpt>
      <trkpt lat="44.77965" lon="5.08091">
        <ele>425.04</ele>
        <time>2016-08-23T13:30:51Z</time>
      </trkpt>
      <trkpt lat="44.77952" lon="5.08084">
        <ele>427.92</ele>
        <time>2016-08-23T13:31:04Z</time>
      </trkpt>
      <trkpt lat="44.77945" lon="5.08081">
        <ele>429.37</ele>
        <time>2016-08-23T13:31:20Z</time>
      </trkpt>
      <trkpt lat="44.77943" lon="5.08081">
        <ele>429.37</ele>
        <time>2016-08-23T13:31:25Z</time>
      </trkpt>
      <trkpt lat="44.77926" lon="5.08073">
        <ele>432.25</ele>
        <time>2016-08-23T13:31:39Z</time>
      </trkpt>
      <trkpt lat="44.77908" lon="5.08066">
        <ele>435.61</ele>
        <time>2016-08-23T13:31:55Z</time>
      </trkpt>
      <trkpt lat="44.77895" lon="5.08059">
        <ele>438.98</ele>
        <time>2016-08-23T13:32:06Z</time>
      </trkpt>
      <trkpt lat="44.77883" lon="5.08053">
        <ele>442.34</ele>
        <time>2016-08-23T13:32:17Z</time>
      </trkpt>
      <trkpt lat="44.77865" lon="5.08047">
        <ele>444.27</ele>
        <time>2016-08-23T13:32:31Z</time>
      </trkpt>
      <trkpt lat="44.77842" lon="5.08037">
        <ele>446.19</ele>
        <time>2016-08-23T13:32:49Z</time>
      </trkpt>
      <trkpt lat="44.77833" lon="5.08032">
        <ele>448.59</ele>
        <time>2016-08-23T13:32:59Z</time>
      </trkpt>
      <trkpt lat="44.77826" lon="5.08026">
        <ele>450.03</ele>
        <time>2016-08-23T13:33:06Z</time>
      </trkpt>
      <trkpt lat="44.7782" lon="5.08021">
        <ele>451</ele>
        <time>2016-08-23T13:33:11Z</time>
      </trkpt>
      <trkpt lat="44.77814" lon="5.08015">
        <ele>451.96</ele>
        <time>2016-08-23T13:33:17Z</time>
      </trkpt>
      <trkpt lat="44.77804" lon="5.08006">
        <ele>454.36</ele>
        <time>2016-08-23T13:33:27Z</time>
      </trkpt>
      <trkpt lat="44.77785" lon="5.07992">
        <ele>457.72</ele>
        <time>2016-08-23T13:33:42Z</time>
      </trkpt>
      <trkpt lat="44.77781" lon="5.07988">
        <ele>458.21</ele>
        <time>2016-08-23T13:33:45Z</time>
      </trkpt>
      <trkpt lat="44.77762" lon="5.0797">
        <ele>460.61</ele>
        <time>2016-08-23T13:34:02Z</time>
      </trkpt>
      <trkpt lat="44.7775" lon="5.07959">
        <ele>463.01</ele>
        <time>2016-08-23T13:34:11Z</time>
      </trkpt>
      <trkpt lat="44.7773" lon="5.07943">
        <ele>465.42</ele>
        <time>2016-08-23T13:34:26Z</time>
      </trkpt>
      <trkpt lat="44.77704" lon="5.07921">
        <ele>466.86</ele>
        <time>2016-08-23T13:34:42Z</time>
      </trkpt>
      <trkpt lat="44.77684" lon="5.07901">
        <ele>468.78</ele>
        <time>2016-08-23T13:34:55Z</time>
      </trkpt>
      <trkpt lat="44.77667" lon="5.07874">
        <ele>470.7</ele>
        <time>2016-08-23T13:35:10Z</time>
      </trkpt>
      <trkpt lat="44.77666" lon="5.07848">
        <ele>473.11</ele>
        <time>2016-08-23T13:35:21Z</time>
      </trkpt>
      <trkpt lat="44.77663" lon="5.07842">
        <ele>474.07</ele>
        <time>2016-08-23T13:35:24Z</time>
      </trkpt>
      <trkpt lat="44.77638" lon="5.07828">
        <ele>475.51</ele>
        <time>2016-08-23T13:35:40Z</time>
      </trkpt>
      <trkpt lat="44.7762" lon="5.07809">
        <ele>477.91</ele>
        <time>2016-08-23T13:35:53Z</time>
      </trkpt>
      <trkpt lat="44.77606" lon="5.07786">
        <ele>479.84</ele>
        <time>2016-08-23T13:36:05Z</time>
      </trkpt>
      <trkpt lat="44.77599" lon="5.07774">
        <ele>480.32</ele>
        <time>2016-08-23T13:36:11Z</time>
      </trkpt>
      <trkpt lat="44.77591" lon="5.07745">
        <ele>482.72</ele>
        <time>2016-08-23T13:36:25Z</time>
      </trkpt>
      <trkpt lat="44.7759" lon="5.07738">
        <ele>483.68</ele>
        <time>2016-08-23T13:36:29Z</time>
      </trkpt>
      <trkpt lat="44.77588" lon="5.0772">
        <ele>486.08</ele>
        <time>2016-08-23T13:36:38Z</time>
      </trkpt>
      <trkpt lat="44.77584" lon="5.07699">
        <ele>489.45</ele>
        <time>2016-08-23T13:36:51Z</time>
      </trkpt>
      <trkpt lat="44.77582" lon="5.07677">
        <ele>492.81</ele>
        <time>2016-08-23T13:37:02Z</time>
      </trkpt>
      <trkpt lat="44.77581" lon="5.07659">
        <ele>495.7</ele>
        <time>2016-08-23T13:37:13Z</time>
      </trkpt>
      <trkpt lat="44.7758" lon="5.07636">
        <ele>499.06</ele>
        <time>2016-08-23T13:37:26Z</time>
      </trkpt>
      <trkpt lat="44.77585" lon="5.07626">
        <ele>500.02</ele>
        <time>2016-08-23T13:37:40Z</time>
      </trkpt>
      <trkpt lat="44.77585" lon="5.07625">
        <ele>499.54</ele>
        <time>2016-08-23T13:38:03Z</time>
      </trkpt>
      <trkpt lat="44.77586" lon="5.07624">
        <ele>499.54</ele>
        <time>2016-08-23T13:38:06Z</time>
      </trkpt>
      <trkpt lat="44.77592" lon="5.07614">
        <ele>500.5</ele>
        <time>2016-08-23T13:38:19Z</time>
      </trkpt>
      <trkpt lat="44.77592" lon="5.07614">
        <ele>500.5</ele>
        <time>2016-08-23T13:38:20Z</time>
      </trkpt>
      <trkpt lat="44.77597" lon="5.07606">
        <ele>500.5</ele>
        <time>2016-08-23T13:38:28Z</time>
      </trkpt>
      <trkpt lat="44.77593" lon="5.07591">
        <ele>497.14</ele>
        <time>2016-08-23T13:38:34Z</time>
      </trkpt>
      <trkpt lat="44.77581" lon="5.0758">
        <ele>496.18</ele>
        <time>2016-08-23T13:38:43Z</time>
      </trkpt>
      <trkpt lat="44.77572" lon="5.07553">
        <ele>493.77</ele>
        <time>2016-08-23T13:38:52Z</time>
      </trkpt>
      <trkpt lat="44.77564" lon="5.07522">
        <ele>492.33</ele>
        <time>2016-08-23T13:38:57Z</time>
      </trkpt>
      <trkpt lat="44.7756" lon="5.07495">
        <ele>491.85</ele>
        <time>2016-08-23T13:39:02Z</time>
      </trkpt>
      <trkpt lat="44.77553" lon="5.0745">
        <ele>491.37</ele>
        <time>2016-08-23T13:39:11Z</time>
      </trkpt>
      <trkpt lat="44.77552" lon="5.07446">
        <ele>490.89</ele>
        <time>2016-08-23T13:39:12Z</time>
      </trkpt>
      <trkpt lat="44.77552" lon="5.07443">
        <ele>491.37</ele>
        <time>2016-08-23T13:39:13Z</time>
      </trkpt>
      <trkpt lat="44.77551" lon="5.07439">
        <ele>490.89</ele>
        <time>2016-08-23T13:39:14Z</time>
      </trkpt>
      <trkpt lat="44.77551" lon="5.07434">
        <ele>491.37</ele>
        <time>2016-08-23T13:39:15Z</time>
      </trkpt>
      <trkpt lat="44.77551" lon="5.0743">
        <ele>491.37</ele>
        <time>2016-08-23T13:39:16Z</time>
      </trkpt>
      <trkpt lat="44.77551" lon="5.07426">
        <ele>491.37</ele>
        <time>2016-08-23T13:39:17Z</time>
      </trkpt>
      <trkpt lat="44.7755" lon="5.07423">
        <ele>491.85</ele>
        <time>2016-08-23T13:39:18Z</time>
      </trkpt>
      <trkpt lat="44.7755" lon="5.07419">
        <ele>492.33</ele>
        <time>2016-08-23T13:39:19Z</time>
      </trkpt>
      <trkpt lat="44.7755" lon="5.07415">
        <ele>492.33</ele>
        <time>2016-08-23T13:39:20Z</time>
      </trkpt>
      <trkpt lat="44.77549" lon="5.07412">
        <ele>492.33</ele>
        <time>2016-08-23T13:39:21Z</time>
      </trkpt>
      <trkpt lat="44.77549" lon="5.07408">
        <ele>492.81</ele>
        <time>2016-08-23T13:39:22Z</time>
      </trkpt>
      <trkpt lat="44.77548" lon="5.07405">
        <ele>492.81</ele>
        <time>2016-08-23T13:39:23Z</time>
      </trkpt>
      <trkpt lat="44.77547" lon="5.07384">
        <ele>495.22</ele>
        <time>2016-08-23T13:39:32Z</time>
      </trkpt>
      <trkpt lat="44.77542" lon="5.07353">
        <ele>495.7</ele>
        <time>2016-08-23T13:39:43Z</time>
      </trkpt>
      <trkpt lat="44.7754" lon="5.07345">
        <ele>497.14</ele>
        <time>2016-08-23T13:39:46Z</time>
      </trkpt>
      <trkpt lat="44.77539" lon="5.07342">
        <ele>497.62</ele>
        <time>2016-08-23T13:39:47Z</time>
      </trkpt>
      <trkpt lat="44.77538" lon="5.07339">
        <ele>497.62</ele>
        <time>2016-08-23T13:39:48Z</time>
      </trkpt>
      <trkpt lat="44.77537" lon="5.07337">
        <ele>497.62</ele>
        <time>2016-08-23T13:39:49Z</time>
      </trkpt>
      <trkpt lat="44.77536" lon="5.07335">
        <ele>498.1</ele>
        <time>2016-08-23T13:39:50Z</time>
      </trkpt>
      <trkpt lat="44.77535" lon="5.07332">
        <ele>498.58</ele>
        <time>2016-08-23T13:39:51Z</time>
      </trkpt>
      <trkpt lat="44.7753" lon="5.07325">
        <ele>498.58</ele>
        <time>2016-08-23T13:39:54Z</time>
      </trkpt>
      <trkpt lat="44.77529" lon="5.07322">
        <ele>498.58</ele>
        <time>2016-08-23T13:39:55Z</time>
      </trkpt>
      <trkpt lat="44.7751" lon="5.07292">
        <ele>498.1</ele>
        <time>2016-08-23T13:40:05Z</time>
      </trkpt>
      <trkpt lat="44.77489" lon="5.07267">
        <ele>499.54</ele>
        <time>2016-08-23T13:40:17Z</time>
      </trkpt>
      <trkpt lat="44.77479" lon="5.07252">
        <ele>495.7</ele>
        <time>2016-08-23T13:40:21Z</time>
      </trkpt>
      <trkpt lat="44.77476" lon="5.07249">
        <ele>495.22</ele>
        <time>2016-08-23T13:40:22Z</time>
      </trkpt>
      <trkpt lat="44.77473" lon="5.07249">
        <ele>494.74</ele>
        <time>2016-08-23T13:40:23Z</time>
      </trkpt>
      <trkpt lat="44.7747" lon="5.0725">
        <ele>493.77</ele>
        <time>2016-08-23T13:40:24Z</time>
      </trkpt>
      <trkpt lat="44.77467" lon="5.07251">
        <ele>492.81</ele>
        <time>2016-08-23T13:40:25Z</time>
      </trkpt>
      <trkpt lat="44.77463" lon="5.07253">
        <ele>492.81</ele>
        <time>2016-08-23T13:40:26Z</time>
      </trkpt>
      <trkpt lat="44.77459" lon="5.07256">
        <ele>492.81</ele>
        <time>2016-08-23T13:40:27Z</time>
      </trkpt>
      <trkpt lat="44.77455" lon="5.07256">
        <ele>492.81</ele>
        <time>2016-08-23T13:40:28Z</time>
      </trkpt>
      <trkpt lat="44.77449" lon="5.07256">
        <ele>492.33</ele>
        <time>2016-08-23T13:40:29Z</time>
      </trkpt>
      <trkpt lat="44.77442" lon="5.07257">
        <ele>491.37</ele>
        <time>2016-08-23T13:40:30Z</time>
      </trkpt>
      <trkpt lat="44.77436" lon="5.07258">
        <ele>490.41</ele>
        <time>2016-08-23T13:40:31Z</time>
      </trkpt>
      <trkpt lat="44.77429" lon="5.07259">
        <ele>489.45</ele>
        <time>2016-08-23T13:40:32Z</time>
      </trkpt>
      <trkpt lat="44.77424" lon="5.07259">
        <ele>488.97</ele>
        <time>2016-08-23T13:40:33Z</time>
      </trkpt>
      <trkpt lat="44.77414" lon="5.07263">
        <ele>488.97</ele>
        <time>2016-08-23T13:40:35Z</time>
      </trkpt>
      <trkpt lat="44.77409" lon="5.07266">
        <ele>488.49</ele>
        <time>2016-08-23T13:40:36Z</time>
      </trkpt>
      <trkpt lat="44.77405" lon="5.07268">
        <ele>487.53</ele>
        <time>2016-08-23T13:40:37Z</time>
      </trkpt>
      <trkpt lat="44.774" lon="5.07271">
        <ele>487.53</ele>
        <time>2016-08-23T13:40:38Z</time>
      </trkpt>
      <trkpt lat="44.77359" lon="5.07302">
        <ele>485.12</ele>
        <time>2016-08-23T13:40:48Z</time>
      </trkpt>
      <trkpt lat="44.77355" lon="5.07305">
        <ele>484.64</ele>
        <time>2016-08-23T13:40:49Z</time>
      </trkpt>
      <trkpt lat="44.7735" lon="5.07309">
        <ele>484.16</ele>
        <time>2016-08-23T13:40:50Z</time>
      </trkpt>
      <trkpt lat="44.77345" lon="5.07312">
        <ele>483.68</ele>
        <time>2016-08-23T13:40:51Z</time>
      </trkpt>
      <trkpt lat="44.77339" lon="5.07315">
        <ele>483.2</ele>
        <time>2016-08-23T13:40:52Z</time>
      </trkpt>
      <trkpt lat="44.77334" lon="5.07318">
        <ele>482.72</ele>
        <time>2016-08-23T13:40:53Z</time>
      </trkpt>
      <trkpt lat="44.77329" lon="5.0732">
        <ele>482.24</ele>
        <time>2016-08-23T13:40:54Z</time>
      </trkpt>
      <trkpt lat="44.77325" lon="5.07322">
        <ele>481.76</ele>
        <time>2016-08-23T13:40:55Z</time>
      </trkpt>
      <trkpt lat="44.7732" lon="5.07323">
        <ele>481.28</ele>
        <time>2016-08-23T13:40:56Z</time>
      </trkpt>
      <trkpt lat="44.77315" lon="5.07327">
        <ele>480.8</ele>
        <time>2016-08-23T13:40:57Z</time>
      </trkpt>
      <trkpt lat="44.7731" lon="5.0733">
        <ele>479.84</ele>
        <time>2016-08-23T13:40:58Z</time>
      </trkpt>
      <trkpt lat="44.77299" lon="5.07337">
        <ele>478.39</ele>
        <time>2016-08-23T13:41:00Z</time>
      </trkpt>
      <trkpt lat="44.77271" lon="5.07351">
        <ele>475.99</ele>
        <time>2016-08-23T13:41:05Z</time>
      </trkpt>
      <trkpt lat="44.77264" lon="5.07354">
        <ele>475.51</ele>
        <time>2016-08-23T13:41:06Z</time>
      </trkpt>
      <trkpt lat="44.77258" lon="5.07356">
        <ele>475.03</ele>
        <time>2016-08-23T13:41:07Z</time>
      </trkpt>
      <trkpt lat="44.77251" lon="5.07359">
        <ele>474.07</ele>
        <time>2016-08-23T13:41:08Z</time>
      </trkpt>
      <trkpt lat="44.77245" lon="5.07361">
        <ele>474.07</ele>
        <time>2016-08-23T13:41:09Z</time>
      </trkpt>
      <trkpt lat="44.77237" lon="5.07364">
        <ele>473.59</ele>
        <time>2016-08-23T13:41:10Z</time>
      </trkpt>
      <trkpt lat="44.77232" lon="5.07365">
        <ele>473.59</ele>
        <time>2016-08-23T13:41:11Z</time>
      </trkpt>
      <trkpt lat="44.77228" lon="5.07365">
        <ele>474.07</ele>
        <time>2016-08-23T13:41:12Z</time>
      </trkpt>
      <trkpt lat="44.77226" lon="5.07367">
        <ele>475.03</ele>
        <time>2016-08-23T13:41:19Z</time>
      </trkpt>
      <trkpt lat="44.77224" lon="5.07368">
        <ele>475.03</ele>
        <time>2016-08-23T13:41:23Z</time>
      </trkpt>
      <trkpt lat="44.77222" lon="5.07368">
        <ele>474.55</ele>
        <time>2016-08-23T13:41:24Z</time>
      </trkpt>
      <trkpt lat="44.77219" lon="5.07368">
        <ele>474.55</ele>
        <time>2016-08-23T13:41:25Z</time>
      </trkpt>
      <trkpt lat="44.77216" lon="5.07367">
        <ele>474.55</ele>
        <time>2016-08-23T13:41:26Z</time>
      </trkpt>
      <trkpt lat="44.77213" lon="5.07365">
        <ele>474.55</ele>
        <time>2016-08-23T13:41:27Z</time>
      </trkpt>
      <trkpt lat="44.7721" lon="5.07364">
        <ele>474.55</ele>
        <time>2016-08-23T13:41:28Z</time>
      </trkpt>
      <trkpt lat="44.77206" lon="5.07363">
        <ele>474.55</ele>
        <time>2016-08-23T13:41:29Z</time>
      </trkpt>
      <trkpt lat="44.77159" lon="5.0734">
        <ele>476.47</ele>
        <time>2016-08-23T13:41:43Z</time>
      </trkpt>
      <trkpt lat="44.77156" lon="5.07338">
        <ele>476.47</ele>
        <time>2016-08-23T13:41:52Z</time>
      </trkpt>
      <trkpt lat="44.77155" lon="5.07336">
        <ele>476.47</ele>
        <time>2016-08-23T13:42:02Z</time>
      </trkpt>
      <trkpt lat="44.77155" lon="5.07334">
        <ele>476.47</ele>
        <time>2016-08-23T13:42:03Z</time>
      </trkpt>
      <trkpt lat="44.77156" lon="5.07333">
        <ele>476.95</ele>
        <time>2016-08-23T13:42:04Z</time>
      </trkpt>
      <trkpt lat="44.77157" lon="5.07332">
        <ele>476.95</ele>
        <time>2016-08-23T13:42:05Z</time>
      </trkpt>
      <trkpt lat="44.77159" lon="5.07331">
        <ele>476.95</ele>
        <time>2016-08-23T13:42:06Z</time>
      </trkpt>
      <trkpt lat="44.77161" lon="5.07329">
        <ele>476.95</ele>
        <time>2016-08-23T13:42:07Z</time>
      </trkpt>
      <trkpt lat="44.77162" lon="5.07328">
        <ele>477.43</ele>
        <time>2016-08-23T13:42:08Z</time>
      </trkpt>
      <trkpt lat="44.77172" lon="5.073">
        <ele>480.32</ele>
        <time>2016-08-23T13:42:23Z</time>
      </trkpt>
      <trkpt lat="44.77174" lon="5.07293">
        <ele>480.8</ele>
        <time>2016-08-23T13:42:27Z</time>
      </trkpt>
      <trkpt lat="44.77175" lon="5.07291">
        <ele>481.28</ele>
        <time>2016-08-23T13:42:28Z</time>
      </trkpt>
      <trkpt lat="44.77177" lon="5.07287">
        <ele>481.76</ele>
        <time>2016-08-23T13:42:30Z</time>
      </trkpt>
      <trkpt lat="44.77194" lon="5.07271">
        <ele>484.16</ele>
        <time>2016-08-23T13:42:45Z</time>
      </trkpt>
      <trkpt lat="44.77211" lon="5.07271">
        <ele>486.56</ele>
        <time>2016-08-23T13:42:56Z</time>
      </trkpt>
      <trkpt lat="44.77213" lon="5.07271">
        <ele>487.05</ele>
        <time>2016-08-23T13:42:57Z</time>
      </trkpt>
      <trkpt lat="44.77214" lon="5.0727">
        <ele>487.05</ele>
        <time>2016-08-23T13:42:58Z</time>
      </trkpt>
      <trkpt lat="44.77216" lon="5.07269">
        <ele>487.05</ele>
        <time>2016-08-23T13:42:59Z</time>
      </trkpt>
      <trkpt lat="44.77217" lon="5.07269">
        <ele>487.05</ele>
        <time>2016-08-23T13:43:00Z</time>
      </trkpt>
      <trkpt lat="44.77219" lon="5.07269">
        <ele>487.53</ele>
        <time>2016-08-23T13:43:01Z</time>
      </trkpt>
      <trkpt lat="44.7722" lon="5.07268">
        <ele>487.53</ele>
        <time>2016-08-23T13:43:02Z</time>
      </trkpt>
      <trkpt lat="44.77221" lon="5.07268">
        <ele>488.01</ele>
        <time>2016-08-23T13:43:03Z</time>
      </trkpt>
      <trkpt lat="44.77223" lon="5.07268">
        <ele>488.01</ele>
        <time>2016-08-23T13:43:04Z</time>
      </trkpt>
      <trkpt lat="44.77227" lon="5.07267">
        <ele>488.97</ele>
        <time>2016-08-23T13:43:07Z</time>
      </trkpt>
      <trkpt lat="44.77228" lon="5.07268">
        <ele>488.97</ele>
        <time>2016-08-23T13:43:08Z</time>
      </trkpt>
      <trkpt lat="44.77231" lon="5.07267">
        <ele>489.45</ele>
        <time>2016-08-23T13:43:12Z</time>
      </trkpt>
      <trkpt lat="44.77231" lon="5.07265">
        <ele>489.45</ele>
        <time>2016-08-23T13:43:13Z</time>
      </trkpt>
      <trkpt lat="44.77231" lon="5.07263">
        <ele>489.45</ele>
        <time>2016-08-23T13:43:14Z</time>
      </trkpt>
      <trkpt lat="44.77231" lon="5.0726">
        <ele>489.45</ele>
        <time>2016-08-23T13:43:16Z</time>
      </trkpt>
      <trkpt lat="44.77233" lon="5.07252">
        <ele>490.41</ele>
        <time>2016-08-23T13:43:22Z</time>
      </trkpt>
      <trkpt lat="44.77234" lon="5.07241">
        <ele>492.33</ele>
        <time>2016-08-23T13:43:29Z</time>
      </trkpt>
      <trkpt lat="44.77237" lon="5.07227">
        <ele>494.26</ele>
        <time>2016-08-23T13:43:41Z</time>
      </trkpt>
      <trkpt lat="44.77241" lon="5.07207">
        <ele>496.66</ele>
        <time>2016-08-23T13:43:55Z</time>
      </trkpt>
      <trkpt lat="44.77242" lon="5.07194">
        <ele>498.1</ele>
        <time>2016-08-23T13:44:05Z</time>
      </trkpt>
      <trkpt lat="44.77243" lon="5.07181">
        <ele>500.5</ele>
        <time>2016-08-23T13:44:16Z</time>
      </trkpt>
      <trkpt lat="44.77247" lon="5.0717">
        <ele>502.43</ele>
        <time>2016-08-23T13:44:28Z</time>
      </trkpt>
      <trkpt lat="44.77251" lon="5.07162">
        <ele>504.83</ele>
        <time>2016-08-23T13:44:41Z</time>
      </trkpt>
      <trkpt lat="44.7726" lon="5.07154">
        <ele>507.71</ele>
        <time>2016-08-23T13:44:54Z</time>
      </trkpt>
      <trkpt lat="44.77265" lon="5.07144">
        <ele>509.64</ele>
        <time>2016-08-23T13:45:03Z</time>
      </trkpt>
      <trkpt lat="44.77271" lon="5.07133">
        <ele>512.04</ele>
        <time>2016-08-23T13:45:14Z</time>
      </trkpt>
      <trkpt lat="44.77278" lon="5.07118">
        <ele>513.96</ele>
        <time>2016-08-23T13:45:25Z</time>
      </trkpt>
      <trkpt lat="44.77283" lon="5.0711">
        <ele>514.92</ele>
        <time>2016-08-23T13:45:32Z</time>
      </trkpt>
      <trkpt lat="44.77284" lon="5.07106">
        <ele>515.88</ele>
        <time>2016-08-23T13:45:35Z</time>
      </trkpt>
      <trkpt lat="44.77281" lon="5.07094">
        <ele>516.85</ele>
        <time>2016-08-23T13:45:47Z</time>
      </trkpt>
      <trkpt lat="44.77282" lon="5.07089">
        <ele>516.37</ele>
        <time>2016-08-23T13:45:56Z</time>
      </trkpt>
      <trkpt lat="44.77283" lon="5.0708">
        <ele>516.85</ele>
        <time>2016-08-23T13:46:01Z</time>
      </trkpt>
      <trkpt lat="44.77287" lon="5.07054">
        <ele>518.29</ele>
        <time>2016-08-23T13:46:14Z</time>
      </trkpt>
      <trkpt lat="44.77285" lon="5.07033">
        <ele>520.21</ele>
        <time>2016-08-23T13:46:25Z</time>
      </trkpt>
      <trkpt lat="44.77284" lon="5.07026">
        <ele>521.17</ele>
        <time>2016-08-23T13:46:29Z</time>
      </trkpt>
      <trkpt lat="44.77282" lon="5.07021">
        <ele>521.65</ele>
        <time>2016-08-23T13:46:32Z</time>
      </trkpt>
      <trkpt lat="44.7728" lon="5.07014">
        <ele>522.13</ele>
        <time>2016-08-23T13:46:39Z</time>
      </trkpt>
      <trkpt lat="44.77275" lon="5.07006">
        <ele>523.09</ele>
        <time>2016-08-23T13:46:45Z</time>
      </trkpt>
      <trkpt lat="44.77274" lon="5.07003">
        <ele>523.58</ele>
        <time>2016-08-23T13:46:47Z</time>
      </trkpt>
      <trkpt lat="44.77269" lon="5.07">
        <ele>524.54</ele>
        <time>2016-08-23T13:46:52Z</time>
      </trkpt>
      <trkpt lat="44.77268" lon="5.06997">
        <ele>524.54</ele>
        <time>2016-08-23T13:46:54Z</time>
      </trkpt>
      <trkpt lat="44.77265" lon="5.06992">
        <ele>525.02</ele>
        <time>2016-08-23T13:46:58Z</time>
      </trkpt>
      <trkpt lat="44.77259" lon="5.06976">
        <ele>526.46</ele>
        <time>2016-08-23T13:47:08Z</time>
      </trkpt>
      <trkpt lat="44.77258" lon="5.06974">
        <ele>526.94</ele>
        <time>2016-08-23T13:47:10Z</time>
      </trkpt>
      <trkpt lat="44.77251" lon="5.06952">
        <ele>528.86</ele>
        <time>2016-08-23T13:47:24Z</time>
      </trkpt>
      <trkpt lat="44.77251" lon="5.0695">
        <ele>528.86</ele>
        <time>2016-08-23T13:47:25Z</time>
      </trkpt>
      <trkpt lat="44.77248" lon="5.06931">
        <ele>531.75</ele>
        <time>2016-08-23T13:47:38Z</time>
      </trkpt>
      <trkpt lat="44.77246" lon="5.06918">
        <ele>534.15</ele>
        <time>2016-08-23T13:47:50Z</time>
      </trkpt>
      <trkpt lat="44.77244" lon="5.0691">
        <ele>535.11</ele>
        <time>2016-08-23T13:47:58Z</time>
      </trkpt>
      <trkpt lat="44.77242" lon="5.069">
        <ele>536.55</ele>
        <time>2016-08-23T13:48:05Z</time>
      </trkpt>
      <trkpt lat="44.77238" lon="5.06878">
        <ele>538.96</ele>
        <time>2016-08-23T13:48:20Z</time>
      </trkpt>
      <trkpt lat="44.77238" lon="5.06875">
        <ele>539.44</ele>
        <time>2016-08-23T13:48:22Z</time>
      </trkpt>
      <trkpt lat="44.7724" lon="5.06856">
        <ele>541.36</ele>
        <time>2016-08-23T13:48:35Z</time>
      </trkpt>
      <trkpt lat="44.7724" lon="5.06843">
        <ele>542.8</ele>
        <time>2016-08-23T13:48:46Z</time>
      </trkpt>
      <trkpt lat="44.7724" lon="5.06836">
        <ele>544.24</ele>
        <time>2016-08-23T13:48:57Z</time>
      </trkpt>
      <trkpt lat="44.77241" lon="5.06835">
        <ele>544.24</ele>
        <time>2016-08-23T13:49:15Z</time>
      </trkpt>
      <trkpt lat="44.7724" lon="5.06828">
        <ele>545.2</ele>
        <time>2016-08-23T13:49:21Z</time>
      </trkpt>
      <trkpt lat="44.77239" lon="5.06824">
        <ele>545.69</ele>
        <time>2016-08-23T13:49:23Z</time>
      </trkpt>
      <trkpt lat="44.77238" lon="5.06819">
        <ele>546.17</ele>
        <time>2016-08-23T13:49:27Z</time>
      </trkpt>
      <trkpt lat="44.77237" lon="5.06801">
        <ele>548.09</ele>
        <time>2016-08-23T13:49:38Z</time>
      </trkpt>
      <trkpt lat="44.77239" lon="5.06792">
        <ele>549.05</ele>
        <time>2016-08-23T13:49:44Z</time>
      </trkpt>
      <trkpt lat="44.77245" lon="5.06774">
        <ele>550.97</ele>
        <time>2016-08-23T13:49:59Z</time>
      </trkpt>
      <trkpt lat="44.77246" lon="5.06773">
        <ele>551.45</ele>
        <time>2016-08-23T13:50:06Z</time>
      </trkpt>
      <trkpt lat="44.77247" lon="5.0677">
        <ele>551.45</ele>
        <time>2016-08-23T13:50:08Z</time>
      </trkpt>
      <trkpt lat="44.77252" lon="5.06753">
        <ele>553.38</ele>
        <time>2016-08-23T13:50:20Z</time>
      </trkpt>
      <trkpt lat="44.77255" lon="5.06742">
        <ele>553.86</ele>
        <time>2016-08-23T13:50:26Z</time>
      </trkpt>
      <trkpt lat="44.77263" lon="5.06717">
        <ele>556.74</ele>
        <time>2016-08-23T13:50:39Z</time>
      </trkpt>
      <trkpt lat="44.77268" lon="5.06708">
        <ele>557.7</ele>
        <time>2016-08-23T13:50:45Z</time>
      </trkpt>
      <trkpt lat="44.77271" lon="5.06703">
        <ele>558.18</ele>
        <time>2016-08-23T13:50:48Z</time>
      </trkpt>
      <trkpt lat="44.77274" lon="5.06696">
        <ele>558.66</ele>
        <time>2016-08-23T13:50:52Z</time>
      </trkpt>
      <trkpt lat="44.77276" lon="5.06683">
        <ele>561.55</ele>
        <time>2016-08-23T13:51:03Z</time>
      </trkpt>
      <trkpt lat="44.77277" lon="5.06679">
        <ele>561.55</ele>
        <time>2016-08-23T13:51:10Z</time>
      </trkpt>
      <trkpt lat="44.77277" lon="5.06673">
        <ele>562.03</ele>
        <time>2016-08-23T13:51:13Z</time>
      </trkpt>
      <trkpt lat="44.77276" lon="5.06664">
        <ele>562.51</ele>
        <time>2016-08-23T13:51:17Z</time>
      </trkpt>
      <trkpt lat="44.77277" lon="5.06654">
        <ele>563.95</ele>
        <time>2016-08-23T13:51:29Z</time>
      </trkpt>
      <trkpt lat="44.77289" lon="5.06642">
        <ele>565.39</ele>
        <time>2016-08-23T13:51:42Z</time>
      </trkpt>
      <trkpt lat="44.77296" lon="5.06636">
        <ele>566.83</ele>
        <time>2016-08-23T13:51:49Z</time>
      </trkpt>
      <trkpt lat="44.77305" lon="5.06621">
        <ele>569.24</ele>
        <time>2016-08-23T13:52:04Z</time>
      </trkpt>
      <trkpt lat="44.7731" lon="5.06611">
        <ele>570.68</ele>
        <time>2016-08-23T13:52:16Z</time>
      </trkpt>
      <trkpt lat="44.77312" lon="5.06609">
        <ele>570.68</ele>
        <time>2016-08-23T13:52:28Z</time>
      </trkpt>
      <trkpt lat="44.77318" lon="5.06601">
        <ele>571.16</ele>
        <time>2016-08-23T13:52:34Z</time>
      </trkpt>
      <trkpt lat="44.77326" lon="5.06595">
        <ele>572.12</ele>
        <time>2016-08-23T13:52:40Z</time>
      </trkpt>
      <trkpt lat="44.7733" lon="5.06591">
        <ele>572.6</ele>
        <time>2016-08-23T13:52:44Z</time>
      </trkpt>
      <trkpt lat="44.77336" lon="5.06582">
        <ele>573.56</ele>
        <time>2016-08-23T13:52:50Z</time>
      </trkpt>
      <trkpt lat="44.77341" lon="5.06578">
        <ele>574.53</ele>
        <time>2016-08-23T13:52:54Z</time>
      </trkpt>
      <trkpt lat="44.77353" lon="5.06568">
        <ele>575.49</ele>
        <time>2016-08-23T13:53:05Z</time>
      </trkpt>
      <trkpt lat="44.77363" lon="5.06562">
        <ele>576.45</ele>
        <time>2016-08-23T13:53:12Z</time>
      </trkpt>
      <trkpt lat="44.77374" lon="5.06554">
        <ele>577.89</ele>
        <time>2016-08-23T13:53:21Z</time>
      </trkpt>
      <trkpt lat="44.77379" lon="5.06548">
        <ele>578.37</ele>
        <time>2016-08-23T13:53:26Z</time>
      </trkpt>
      <trkpt lat="44.77382" lon="5.06546">
        <ele>579.33</ele>
        <time>2016-08-23T13:53:29Z</time>
      </trkpt>
      <trkpt lat="44.77387" lon="5.06539">
        <ele>579.81</ele>
        <time>2016-08-23T13:53:34Z</time>
      </trkpt>
      <trkpt lat="44.77389" lon="5.06536">
        <ele>580.29</ele>
        <time>2016-08-23T13:53:37Z</time>
      </trkpt>
      <trkpt lat="44.77395" lon="5.06529">
        <ele>580.77</ele>
        <time>2016-08-23T13:53:42Z</time>
      </trkpt>
      <trkpt lat="44.77408" lon="5.0651">
        <ele>582.22</ele>
        <time>2016-08-23T13:53:53Z</time>
      </trkpt>
      <trkpt lat="44.77413" lon="5.06505">
        <ele>582.7</ele>
        <time>2016-08-23T13:53:57Z</time>
      </trkpt>
      <trkpt lat="44.77417" lon="5.06493">
        <ele>583.66</ele>
        <time>2016-08-23T13:54:03Z</time>
      </trkpt>
      <trkpt lat="44.77428" lon="5.06475">
        <ele>586.06</ele>
        <time>2016-08-23T13:54:14Z</time>
      </trkpt>
      <trkpt lat="44.77432" lon="5.06469">
        <ele>586.54</ele>
        <time>2016-08-23T13:54:18Z</time>
      </trkpt>
      <trkpt lat="44.77437" lon="5.06458">
        <ele>587.98</ele>
        <time>2016-08-23T13:54:24Z</time>
      </trkpt>
      <trkpt lat="44.77446" lon="5.06445">
        <ele>589.91</ele>
        <time>2016-08-23T13:54:37Z</time>
      </trkpt>
      <trkpt lat="44.77449" lon="5.06441">
        <ele>590.39</ele>
        <time>2016-08-23T13:54:41Z</time>
      </trkpt>
      <trkpt lat="44.77451" lon="5.06437">
        <ele>590.87</ele>
        <time>2016-08-23T13:54:44Z</time>
      </trkpt>
      <trkpt lat="44.77459" lon="5.06424">
        <ele>592.79</ele>
        <time>2016-08-23T13:54:57Z</time>
      </trkpt>
      <trkpt lat="44.77468" lon="5.06415">
        <ele>594.71</ele>
        <time>2016-08-23T13:55:12Z</time>
      </trkpt>
      <trkpt lat="44.77474" lon="5.06408">
        <ele>596.15</ele>
        <time>2016-08-23T13:55:19Z</time>
      </trkpt>
      <trkpt lat="44.77483" lon="5.06401">
        <ele>599.04</ele>
        <time>2016-08-23T13:55:30Z</time>
      </trkpt>
      <trkpt lat="44.77493" lon="5.06396">
        <ele>601.44</ele>
        <time>2016-08-23T13:55:43Z</time>
      </trkpt>
      <trkpt lat="44.77496" lon="5.06393">
        <ele>602.4</ele>
        <time>2016-08-23T13:55:47Z</time>
      </trkpt>
      <trkpt lat="44.77497" lon="5.06389">
        <ele>602.88</ele>
        <time>2016-08-23T13:55:49Z</time>
      </trkpt>
      <trkpt lat="44.77495" lon="5.06382">
        <ele>603.36</ele>
        <time>2016-08-23T13:55:57Z</time>
      </trkpt>
      <trkpt lat="44.77488" lon="5.06377">
        <ele>602.88</ele>
        <time>2016-08-23T13:56:02Z</time>
      </trkpt>
      <trkpt lat="44.77482" lon="5.06357">
        <ele>603.36</ele>
        <time>2016-08-23T13:56:12Z</time>
      </trkpt>
      <trkpt lat="44.77477" lon="5.06348">
        <ele>603.36</ele>
        <time>2016-08-23T13:56:22Z</time>
      </trkpt>
      <trkpt lat="44.77477" lon="5.06348">
        <ele>603.85</ele>
        <time>2016-08-23T13:56:42Z</time>
      </trkpt>
      <trkpt lat="44.77451" lon="5.06333">
        <ele>601.92</ele>
        <time>2016-08-23T13:56:51Z</time>
      </trkpt>
      <trkpt lat="44.77447" lon="5.06332">
        <ele>601.44</ele>
        <time>2016-08-23T13:56:52Z</time>
      </trkpt>
      <trkpt lat="44.77444" lon="5.06329">
        <ele>601.44</ele>
        <time>2016-08-23T13:56:53Z</time>
      </trkpt>
      <trkpt lat="44.77441" lon="5.06325">
        <ele>601.44</ele>
        <time>2016-08-23T13:56:54Z</time>
      </trkpt>
      <trkpt lat="44.77435" lon="5.06319">
        <ele>601.44</ele>
        <time>2016-08-23T13:56:56Z</time>
      </trkpt>
      <trkpt lat="44.77432" lon="5.06318">
        <ele>601.92</ele>
        <time>2016-08-23T13:56:57Z</time>
      </trkpt>
      <trkpt lat="44.77428" lon="5.06318">
        <ele>601.44</ele>
        <time>2016-08-23T13:56:58Z</time>
      </trkpt>
      <trkpt lat="44.77424" lon="5.06318">
        <ele>601.44</ele>
        <time>2016-08-23T13:56:59Z</time>
      </trkpt>
      <trkpt lat="44.7742" lon="5.06318">
        <ele>600.96</ele>
        <time>2016-08-23T13:57:00Z</time>
      </trkpt>
      <trkpt lat="44.77416" lon="5.06319">
        <ele>600.96</ele>
        <time>2016-08-23T13:57:01Z</time>
      </trkpt>
      <trkpt lat="44.77411" lon="5.06319">
        <ele>600.96</ele>
        <time>2016-08-23T13:57:02Z</time>
      </trkpt>
      <trkpt lat="44.77405" lon="5.06319">
        <ele>599.04</ele>
        <time>2016-08-23T13:57:03Z</time>
      </trkpt>
      <trkpt lat="44.77401" lon="5.06319">
        <ele>598.08</ele>
        <time>2016-08-23T13:57:04Z</time>
      </trkpt>
      <trkpt lat="44.77398" lon="5.06321">
        <ele>597.12</ele>
        <time>2016-08-23T13:57:05Z</time>
      </trkpt>
      <trkpt lat="44.77395" lon="5.06323">
        <ele>596.64</ele>
        <time>2016-08-23T13:57:06Z</time>
      </trkpt>
      <trkpt lat="44.77392" lon="5.06323">
        <ele>596.15</ele>
        <time>2016-08-23T13:57:07Z</time>
      </trkpt>
      <trkpt lat="44.77388" lon="5.06323">
        <ele>595.67</ele>
        <time>2016-08-23T13:57:08Z</time>
      </trkpt>
      <trkpt lat="44.7738" lon="5.06318">
        <ele>594.71</ele>
        <time>2016-08-23T13:57:10Z</time>
      </trkpt>
      <trkpt lat="44.77375" lon="5.06315">
        <ele>593.27</ele>
        <time>2016-08-23T13:57:11Z</time>
      </trkpt>
      <trkpt lat="44.77368" lon="5.06311">
        <ele>592.79</ele>
        <time>2016-08-23T13:57:13Z</time>
      </trkpt>
      <trkpt lat="44.77359" lon="5.0631">
        <ele>591.35</ele>
        <time>2016-08-23T13:57:15Z</time>
      </trkpt>
      <trkpt lat="44.77354" lon="5.06308">
        <ele>590.87</ele>
        <time>2016-08-23T13:57:16Z</time>
      </trkpt>
      <trkpt lat="44.77342" lon="5.06302">
        <ele>589.91</ele>
        <time>2016-08-23T13:57:19Z</time>
      </trkpt>
      <trkpt lat="44.77338" lon="5.06303">
        <ele>589.91</ele>
        <time>2016-08-23T13:57:20Z</time>
      </trkpt>
      <trkpt lat="44.77334" lon="5.06304">
        <ele>589.43</ele>
        <time>2016-08-23T13:57:21Z</time>
      </trkpt>
      <trkpt lat="44.77331" lon="5.06303">
        <ele>589.43</ele>
        <time>2016-08-23T13:57:22Z</time>
      </trkpt>
      <trkpt lat="44.77328" lon="5.06303">
        <ele>588.95</ele>
        <time>2016-08-23T13:57:23Z</time>
      </trkpt>
      <trkpt lat="44.77324" lon="5.06303">
        <ele>588.95</ele>
        <time>2016-08-23T13:57:24Z</time>
      </trkpt>
      <trkpt lat="44.77321" lon="5.06302">
        <ele>588.46</ele>
        <time>2016-08-23T13:57:25Z</time>
      </trkpt>
      <trkpt lat="44.77318" lon="5.06301">
        <ele>587.98</ele>
        <time>2016-08-23T13:57:26Z</time>
      </trkpt>
      <trkpt lat="44.77313" lon="5.063">
        <ele>587.98</ele>
        <time>2016-08-23T13:57:27Z</time>
      </trkpt>
      <trkpt lat="44.77309" lon="5.06298">
        <ele>587.5</ele>
        <time>2016-08-23T13:57:28Z</time>
      </trkpt>
      <trkpt lat="44.77304" lon="5.06298">
        <ele>587.5</ele>
        <time>2016-08-23T13:57:29Z</time>
      </trkpt>
      <trkpt lat="44.77281" lon="5.06295">
        <ele>586.54</ele>
        <time>2016-08-23T13:57:34Z</time>
      </trkpt>
      <trkpt lat="44.77276" lon="5.06294">
        <ele>586.06</ele>
        <time>2016-08-23T13:57:35Z</time>
      </trkpt>
      <trkpt lat="44.77272" lon="5.06293">
        <ele>585.1</ele>
        <time>2016-08-23T13:57:36Z</time>
      </trkpt>
      <trkpt lat="44.77268" lon="5.06293">
        <ele>585.1</ele>
        <time>2016-08-23T13:57:37Z</time>
      </trkpt>
      <trkpt lat="44.77264" lon="5.06293">
        <ele>584.14</ele>
        <time>2016-08-23T13:57:38Z</time>
      </trkpt>
      <trkpt lat="44.7726" lon="5.06292">
        <ele>583.18</ele>
        <time>2016-08-23T13:57:39Z</time>
      </trkpt>
      <trkpt lat="44.77256" lon="5.06293">
        <ele>582.7</ele>
        <time>2016-08-23T13:57:40Z</time>
      </trkpt>
      <trkpt lat="44.77251" lon="5.06295">
        <ele>582.22</ele>
        <time>2016-08-23T13:57:41Z</time>
      </trkpt>
      <trkpt lat="44.77246" lon="5.06298">
        <ele>581.73</ele>
        <time>2016-08-23T13:57:42Z</time>
      </trkpt>
      <trkpt lat="44.7724" lon="5.06301">
        <ele>581.25</ele>
        <time>2016-08-23T13:57:43Z</time>
      </trkpt>
      <trkpt lat="44.77235" lon="5.06303">
        <ele>580.77</ele>
        <time>2016-08-23T13:57:44Z</time>
      </trkpt>
      <trkpt lat="44.7723" lon="5.06305">
        <ele>580.29</ele>
        <time>2016-08-23T13:57:45Z</time>
      </trkpt>
      <trkpt lat="44.77225" lon="5.06308">
        <ele>579.81</ele>
        <time>2016-08-23T13:57:46Z</time>
      </trkpt>
      <trkpt lat="44.77221" lon="5.06309">
        <ele>579.81</ele>
        <time>2016-08-23T13:57:47Z</time>
      </trkpt>
      <trkpt lat="44.77216" lon="5.06309">
        <ele>579.81</ele>
        <time>2016-08-23T13:57:48Z</time>
      </trkpt>
      <trkpt lat="44.77212" lon="5.06309">
        <ele>579.81</ele>
        <time>2016-08-23T13:57:49Z</time>
      </trkpt>
      <trkpt lat="44.7719" lon="5.06313">
        <ele>578.37</ele>
        <time>2016-08-23T13:57:54Z</time>
      </trkpt>
      <trkpt lat="44.77185" lon="5.06313">
        <ele>577.89</ele>
        <time>2016-08-23T13:57:55Z</time>
      </trkpt>
      <trkpt lat="44.7718" lon="5.06313">
        <ele>577.89</ele>
        <time>2016-08-23T13:57:56Z</time>
      </trkpt>
      <trkpt lat="44.7717" lon="5.06315">
        <ele>576.93</ele>
        <time>2016-08-23T13:57:58Z</time>
      </trkpt>
      <trkpt lat="44.77164" lon="5.06315">
        <ele>576.45</ele>
        <time>2016-08-23T13:57:59Z</time>
      </trkpt>
      <trkpt lat="44.77158" lon="5.06315">
        <ele>575.97</ele>
        <time>2016-08-23T13:58:00Z</time>
      </trkpt>
      <trkpt lat="44.7714" lon="5.06316">
        <ele>575.01</ele>
        <time>2016-08-23T13:58:03Z</time>
      </trkpt>
      <trkpt lat="44.77119" lon="5.0631">
        <ele>575.01</ele>
        <time>2016-08-23T13:58:07Z</time>
      </trkpt>
      <trkpt lat="44.77114" lon="5.06308">
        <ele>575.01</ele>
        <time>2016-08-23T13:58:08Z</time>
      </trkpt>
      <trkpt lat="44.77109" lon="5.06305">
        <ele>575.01</ele>
        <time>2016-08-23T13:58:09Z</time>
      </trkpt>
      <trkpt lat="44.77104" lon="5.06302">
        <ele>575.01</ele>
        <time>2016-08-23T13:58:10Z</time>
      </trkpt>
      <trkpt lat="44.771" lon="5.063">
        <ele>575.01</ele>
        <time>2016-08-23T13:58:11Z</time>
      </trkpt>
      <trkpt lat="44.77095" lon="5.06299">
        <ele>575.01</ele>
        <time>2016-08-23T13:58:12Z</time>
      </trkpt>
      <trkpt lat="44.7709" lon="5.06297">
        <ele>574.53</ele>
        <time>2016-08-23T13:58:13Z</time>
      </trkpt>
      <trkpt lat="44.77086" lon="5.06295">
        <ele>574.53</ele>
        <time>2016-08-23T13:58:14Z</time>
      </trkpt>
      <trkpt lat="44.77084" lon="5.06292">
        <ele>574.04</ele>
        <time>2016-08-23T13:58:15Z</time>
      </trkpt>
      <trkpt lat="44.77084" lon="5.06289">
        <ele>574.53</ele>
        <time>2016-08-23T13:58:16Z</time>
      </trkpt>
      <trkpt lat="44.77083" lon="5.06287">
        <ele>574.53</ele>
        <time>2016-08-23T13:58:17Z</time>
      </trkpt>
      <trkpt lat="44.7708" lon="5.06286">
        <ele>574.04</ele>
        <time>2016-08-23T13:58:18Z</time>
      </trkpt>
      <trkpt lat="44.77064" lon="5.06279">
        <ele>572.6</ele>
        <time>2016-08-23T13:58:22Z</time>
      </trkpt>
      <trkpt lat="44.77054" lon="5.06279">
        <ele>571.64</ele>
        <time>2016-08-23T13:58:24Z</time>
      </trkpt>
      <trkpt lat="44.77049" lon="5.06278">
        <ele>571.16</ele>
        <time>2016-08-23T13:58:25Z</time>
      </trkpt>
      <trkpt lat="44.77021" lon="5.06268">
        <ele>570.2</ele>
        <time>2016-08-23T13:58:30Z</time>
      </trkpt>
      <trkpt lat="44.77016" lon="5.06265">
        <ele>569.72</ele>
        <time>2016-08-23T13:58:31Z</time>
      </trkpt>
      <trkpt lat="44.77012" lon="5.06263">
        <ele>569.72</ele>
        <time>2016-08-23T13:58:32Z</time>
      </trkpt>
      <trkpt lat="44.77009" lon="5.06259">
        <ele>569.72</ele>
        <time>2016-08-23T13:58:33Z</time>
      </trkpt>
      <trkpt lat="44.77005" lon="5.06254">
        <ele>569.24</ele>
        <time>2016-08-23T13:58:34Z</time>
      </trkpt>
      <trkpt lat="44.77002" lon="5.06251">
        <ele>568.28</ele>
        <time>2016-08-23T13:58:35Z</time>
      </trkpt>
      <trkpt lat="44.77" lon="5.06249">
        <ele>568.76</ele>
        <time>2016-08-23T13:58:36Z</time>
      </trkpt>
      <trkpt lat="44.76997" lon="5.06246">
        <ele>568.28</ele>
        <time>2016-08-23T13:58:37Z</time>
      </trkpt>
      <trkpt lat="44.76995" lon="5.06242">
        <ele>567.8</ele>
        <time>2016-08-23T13:58:38Z</time>
      </trkpt>
      <trkpt lat="44.76992" lon="5.06238">
        <ele>567.8</ele>
        <time>2016-08-23T13:58:39Z</time>
      </trkpt>
      <trkpt lat="44.76989" lon="5.06234">
        <ele>567.32</ele>
        <time>2016-08-23T13:58:40Z</time>
      </trkpt>
      <trkpt lat="44.76985" lon="5.0623">
        <ele>566.83</ele>
        <time>2016-08-23T13:58:41Z</time>
      </trkpt>
      <trkpt lat="44.76981" lon="5.06226">
        <ele>566.35</ele>
        <time>2016-08-23T13:58:42Z</time>
      </trkpt>
      <trkpt lat="44.76976" lon="5.06222">
        <ele>565.87</ele>
        <time>2016-08-23T13:58:43Z</time>
      </trkpt>
      <trkpt lat="44.76973" lon="5.06217">
        <ele>565.39</ele>
        <time>2016-08-23T13:58:44Z</time>
      </trkpt>
      <trkpt lat="44.76971" lon="5.06211">
        <ele>565.39</ele>
        <time>2016-08-23T13:58:45Z</time>
      </trkpt>
      <trkpt lat="44.76957" lon="5.06179">
        <ele>563.95</ele>
        <time>2016-08-23T13:58:50Z</time>
      </trkpt>
      <trkpt lat="44.76955" lon="5.06172">
        <ele>563.47</ele>
        <time>2016-08-23T13:58:51Z</time>
      </trkpt>
      <trkpt lat="44.76953" lon="5.06165">
        <ele>563.47</ele>
        <time>2016-08-23T13:58:52Z</time>
      </trkpt>
      <trkpt lat="44.7695" lon="5.0616">
        <ele>562.51</ele>
        <time>2016-08-23T13:58:53Z</time>
      </trkpt>
      <trkpt lat="44.76946" lon="5.06156">
        <ele>562.03</ele>
        <time>2016-08-23T13:58:54Z</time>
      </trkpt>
      <trkpt lat="44.76941" lon="5.06153">
        <ele>561.07</ele>
        <time>2016-08-23T13:58:55Z</time>
      </trkpt>
      <trkpt lat="44.76935" lon="5.06151">
        <ele>560.59</ele>
        <time>2016-08-23T13:58:56Z</time>
      </trkpt>
      <trkpt lat="44.76931" lon="5.06152">
        <ele>560.59</ele>
        <time>2016-08-23T13:58:57Z</time>
      </trkpt>
      <trkpt lat="44.76926" lon="5.06154">
        <ele>560.11</ele>
        <time>2016-08-23T13:58:58Z</time>
      </trkpt>
      <trkpt lat="44.76921" lon="5.06155">
        <ele>560.11</ele>
        <time>2016-08-23T13:58:59Z</time>
      </trkpt>
      <trkpt lat="44.76915" lon="5.06154">
        <ele>559.62</ele>
        <time>2016-08-23T13:59:00Z</time>
      </trkpt>
      <trkpt lat="44.7691" lon="5.06154">
        <ele>559.14</ele>
        <time>2016-08-23T13:59:01Z</time>
      </trkpt>
      <trkpt lat="44.76905" lon="5.06154">
        <ele>559.14</ele>
        <time>2016-08-23T13:59:02Z</time>
      </trkpt>
      <trkpt lat="44.769" lon="5.06154">
        <ele>559.14</ele>
        <time>2016-08-23T13:59:03Z</time>
      </trkpt>
      <trkpt lat="44.76896" lon="5.06154">
        <ele>559.14</ele>
        <time>2016-08-23T13:59:04Z</time>
      </trkpt>
      <trkpt lat="44.76893" lon="5.06153">
        <ele>559.14</ele>
        <time>2016-08-23T13:59:05Z</time>
      </trkpt>
      <trkpt lat="44.7689" lon="5.06153">
        <ele>559.62</ele>
        <time>2016-08-23T13:59:06Z</time>
      </trkpt>
      <trkpt lat="44.76886" lon="5.06152">
        <ele>559.62</ele>
        <time>2016-08-23T13:59:07Z</time>
      </trkpt>
      <trkpt lat="44.76882" lon="5.06152">
        <ele>559.62</ele>
        <time>2016-08-23T13:59:08Z</time>
      </trkpt>
      <trkpt lat="44.76878" lon="5.0615">
        <ele>559.62</ele>
        <time>2016-08-23T13:59:09Z</time>
      </trkpt>
      <trkpt lat="44.76874" lon="5.06149">
        <ele>558.66</ele>
        <time>2016-08-23T13:59:10Z</time>
      </trkpt>
      <trkpt lat="44.76869" lon="5.06148">
        <ele>558.18</ele>
        <time>2016-08-23T13:59:11Z</time>
      </trkpt>
      <trkpt lat="44.76858" lon="5.06148">
        <ele>557.7</ele>
        <time>2016-08-23T13:59:13Z</time>
      </trkpt>
      <trkpt lat="44.76852" lon="5.06148">
        <ele>556.74</ele>
        <time>2016-08-23T13:59:14Z</time>
      </trkpt>
      <trkpt lat="44.76847" lon="5.06148">
        <ele>556.74</ele>
        <time>2016-08-23T13:59:15Z</time>
      </trkpt>
      <trkpt lat="44.76841" lon="5.06148">
        <ele>555.78</ele>
        <time>2016-08-23T13:59:16Z</time>
      </trkpt>
      <trkpt lat="44.76836" lon="5.06145">
        <ele>555.78</ele>
        <time>2016-08-23T13:59:17Z</time>
      </trkpt>
      <trkpt lat="44.76832" lon="5.06142">
        <ele>554.82</ele>
        <time>2016-08-23T13:59:18Z</time>
      </trkpt>
      <trkpt lat="44.76829" lon="5.06138">
        <ele>554.82</ele>
        <time>2016-08-23T13:59:19Z</time>
      </trkpt>
      <trkpt lat="44.76826" lon="5.06137">
        <ele>554.34</ele>
        <time>2016-08-23T13:59:20Z</time>
      </trkpt>
      <trkpt lat="44.76824" lon="5.06138">
        <ele>554.34</ele>
        <time>2016-08-23T13:59:21Z</time>
      </trkpt>
      <trkpt lat="44.76821" lon="5.0614">
        <ele>554.34</ele>
        <time>2016-08-23T13:59:22Z</time>
      </trkpt>
      <trkpt lat="44.76817" lon="5.06141">
        <ele>553.38</ele>
        <time>2016-08-23T13:59:23Z</time>
      </trkpt>
      <trkpt lat="44.76812" lon="5.06141">
        <ele>552.9</ele>
        <time>2016-08-23T13:59:24Z</time>
      </trkpt>
      <trkpt lat="44.76807" lon="5.06142">
        <ele>551.93</ele>
        <time>2016-08-23T13:59:25Z</time>
      </trkpt>
      <trkpt lat="44.76786" lon="5.06147">
        <ele>547.61</ele>
        <time>2016-08-23T13:59:30Z</time>
      </trkpt>
      <trkpt lat="44.76777" lon="5.06151">
        <ele>546.17</ele>
        <time>2016-08-23T13:59:33Z</time>
      </trkpt>
      <trkpt lat="44.76775" lon="5.06153">
        <ele>544.72</ele>
        <time>2016-08-23T13:59:34Z</time>
      </trkpt>
      <trkpt lat="44.76772" lon="5.06153">
        <ele>543.76</ele>
        <time>2016-08-23T13:59:35Z</time>
      </trkpt>
      <trkpt lat="44.76768" lon="5.06153">
        <ele>543.28</ele>
        <time>2016-08-23T13:59:36Z</time>
      </trkpt>
      <trkpt lat="44.76765" lon="5.06155">
        <ele>542.32</ele>
        <time>2016-08-23T13:59:37Z</time>
      </trkpt>
      <trkpt lat="44.76763" lon="5.06157">
        <ele>541.36</ele>
        <time>2016-08-23T13:59:38Z</time>
      </trkpt>
      <trkpt lat="44.76759" lon="5.06159">
        <ele>540.88</ele>
        <time>2016-08-23T13:59:39Z</time>
      </trkpt>
      <trkpt lat="44.76755" lon="5.06161">
        <ele>539.92</ele>
        <time>2016-08-23T13:59:40Z</time>
      </trkpt>
      <trkpt lat="44.7675" lon="5.06164">
        <ele>539.44</ele>
        <time>2016-08-23T13:59:41Z</time>
      </trkpt>
      <trkpt lat="44.76745" lon="5.06166">
        <ele>538.96</ele>
        <time>2016-08-23T13:59:42Z</time>
      </trkpt>
      <trkpt lat="44.76741" lon="5.06167">
        <ele>537.99</ele>
        <time>2016-08-23T13:59:43Z</time>
      </trkpt>
      <trkpt lat="44.76731" lon="5.0617">
        <ele>536.55</ele>
        <time>2016-08-23T13:59:45Z</time>
      </trkpt>
      <trkpt lat="44.76726" lon="5.06171">
        <ele>536.07</ele>
        <time>2016-08-23T13:59:46Z</time>
      </trkpt>
      <trkpt lat="44.76722" lon="5.06173">
        <ele>536.07</ele>
        <time>2016-08-23T13:59:47Z</time>
      </trkpt>
      <trkpt lat="44.76719" lon="5.06174">
        <ele>535.59</ele>
        <time>2016-08-23T13:59:48Z</time>
      </trkpt>
      <trkpt lat="44.76715" lon="5.06174">
        <ele>535.11</ele>
        <time>2016-08-23T13:59:49Z</time>
      </trkpt>
      <trkpt lat="44.7671" lon="5.06174">
        <ele>534.63</ele>
        <time>2016-08-23T13:59:50Z</time>
      </trkpt>
      <trkpt lat="44.76701" lon="5.06175">
        <ele>534.15</ele>
        <time>2016-08-23T13:59:52Z</time>
      </trkpt>
      <trkpt lat="44.76696" lon="5.06176">
        <ele>534.15</ele>
        <time>2016-08-23T13:59:53Z</time>
      </trkpt>
      <trkpt lat="44.76691" lon="5.06176">
        <ele>533.67</ele>
        <time>2016-08-23T13:59:54Z</time>
      </trkpt>
      <trkpt lat="44.76686" lon="5.06176">
        <ele>533.19</ele>
        <time>2016-08-23T13:59:55Z</time>
      </trkpt>
      <trkpt lat="44.76681" lon="5.06175">
        <ele>533.19</ele>
        <time>2016-08-23T13:59:56Z</time>
      </trkpt>
      <trkpt lat="44.76643" lon="5.06174">
        <ele>532.23</ele>
        <time>2016-08-23T14:00:03Z</time>
      </trkpt>
      <trkpt lat="44.76637" lon="5.06174">
        <ele>532.23</ele>
        <time>2016-08-23T14:00:04Z</time>
      </trkpt>
      <trkpt lat="44.76632" lon="5.06173">
        <ele>532.23</ele>
        <time>2016-08-23T14:00:05Z</time>
      </trkpt>
      <trkpt lat="44.76622" lon="5.06172">
        <ele>532.23</ele>
        <time>2016-08-23T14:00:07Z</time>
      </trkpt>
      <trkpt lat="44.76608" lon="5.06173">
        <ele>531.27</ele>
        <time>2016-08-23T14:00:10Z</time>
      </trkpt>
      <trkpt lat="44.76602" lon="5.06171">
        <ele>531.27</ele>
        <time>2016-08-23T14:00:11Z</time>
      </trkpt>
      <trkpt lat="44.76591" lon="5.06168">
        <ele>530.79</ele>
        <time>2016-08-23T14:00:13Z</time>
      </trkpt>
      <trkpt lat="44.76571" lon="5.06167">
        <ele>530.3</ele>
        <time>2016-08-23T14:00:17Z</time>
      </trkpt>
      <trkpt lat="44.76565" lon="5.06169">
        <ele>529.82</ele>
        <time>2016-08-23T14:00:18Z</time>
      </trkpt>
      <trkpt lat="44.7656" lon="5.0617">
        <ele>529.82</ele>
        <time>2016-08-23T14:00:19Z</time>
      </trkpt>
      <trkpt lat="44.76556" lon="5.0617">
        <ele>529.34</ele>
        <time>2016-08-23T14:00:20Z</time>
      </trkpt>
      <trkpt lat="44.76552" lon="5.06168">
        <ele>529.34</ele>
        <time>2016-08-23T14:00:21Z</time>
      </trkpt>
      <trkpt lat="44.76549" lon="5.06165">
        <ele>528.86</ele>
        <time>2016-08-23T14:00:22Z</time>
      </trkpt>
      <trkpt lat="44.76539" lon="5.06157">
        <ele>526.94</ele>
        <time>2016-08-23T14:00:24Z</time>
      </trkpt>
      <trkpt lat="44.76533" lon="5.06154">
        <ele>525.98</ele>
        <time>2016-08-23T14:00:25Z</time>
      </trkpt>
      <trkpt lat="44.76528" lon="5.06151">
        <ele>523.09</ele>
        <time>2016-08-23T14:00:26Z</time>
      </trkpt>
      <trkpt lat="44.76523" lon="5.06148">
        <ele>521.65</ele>
        <time>2016-08-23T14:00:27Z</time>
      </trkpt>
      <trkpt lat="44.76518" lon="5.06146">
        <ele>521.17</ele>
        <time>2016-08-23T14:00:28Z</time>
      </trkpt>
      <trkpt lat="44.76514" lon="5.06144">
        <ele>520.21</ele>
        <time>2016-08-23T14:00:29Z</time>
      </trkpt>
      <trkpt lat="44.7651" lon="5.0614">
        <ele>519.25</ele>
        <time>2016-08-23T14:00:30Z</time>
      </trkpt>
      <trkpt lat="44.76505" lon="5.06135">
        <ele>518.29</ele>
        <time>2016-08-23T14:00:31Z</time>
      </trkpt>
      <trkpt lat="44.76489" lon="5.06119">
        <ele>514.92</ele>
        <time>2016-08-23T14:00:34Z</time>
      </trkpt>
      <trkpt lat="44.76483" lon="5.06114">
        <ele>513.96</ele>
        <time>2016-08-23T14:00:35Z</time>
      </trkpt>
      <trkpt lat="44.76477" lon="5.0611">
        <ele>513.48</ele>
        <time>2016-08-23T14:00:36Z</time>
      </trkpt>
      <trkpt lat="44.7647" lon="5.06107">
        <ele>513.48</ele>
        <time>2016-08-23T14:00:37Z</time>
      </trkpt>
      <trkpt lat="44.76459" lon="5.061">
        <ele>513</ele>
        <time>2016-08-23T14:00:39Z</time>
      </trkpt>
      <trkpt lat="44.76454" lon="5.06096">
        <ele>513</ele>
        <time>2016-08-23T14:00:40Z</time>
      </trkpt>
      <trkpt lat="44.76448" lon="5.06092">
        <ele>512.52</ele>
        <time>2016-08-23T14:00:41Z</time>
      </trkpt>
      <trkpt lat="44.76441" lon="5.0609">
        <ele>511.56</ele>
        <time>2016-08-23T14:00:42Z</time>
      </trkpt>
      <trkpt lat="44.76434" lon="5.06087">
        <ele>511.08</ele>
        <time>2016-08-23T14:00:43Z</time>
      </trkpt>
      <trkpt lat="44.76403" lon="5.06076">
        <ele>507.71</ele>
        <time>2016-08-23T14:00:47Z</time>
      </trkpt>
      <trkpt lat="44.76382" lon="5.06071">
        <ele>505.79</ele>
        <time>2016-08-23T14:00:50Z</time>
      </trkpt>
      <trkpt lat="44.76369" lon="5.06073">
        <ele>504.83</ele>
        <time>2016-08-23T14:00:52Z</time>
      </trkpt>
      <trkpt lat="44.76338" lon="5.06072">
        <ele>502.43</ele>
        <time>2016-08-23T14:00:57Z</time>
      </trkpt>
      <trkpt lat="44.76333" lon="5.06073">
        <ele>501.46</ele>
        <time>2016-08-23T14:00:58Z</time>
      </trkpt>
      <trkpt lat="44.76327" lon="5.06075">
        <ele>500.5</ele>
        <time>2016-08-23T14:00:59Z</time>
      </trkpt>
      <trkpt lat="44.76322" lon="5.06076">
        <ele>500.02</ele>
        <time>2016-08-23T14:01:00Z</time>
      </trkpt>
      <trkpt lat="44.76318" lon="5.06077">
        <ele>499.06</ele>
        <time>2016-08-23T14:01:01Z</time>
      </trkpt>
      <trkpt lat="44.76312" lon="5.06078">
        <ele>497.62</ele>
        <time>2016-08-23T14:01:02Z</time>
      </trkpt>
      <trkpt lat="44.76306" lon="5.06079">
        <ele>496.18</ele>
        <time>2016-08-23T14:01:03Z</time>
      </trkpt>
      <trkpt lat="44.7629" lon="5.06084">
        <ele>493.77</ele>
        <time>2016-08-23T14:01:06Z</time>
      </trkpt>
      <trkpt lat="44.76285" lon="5.06088">
        <ele>492.81</ele>
        <time>2016-08-23T14:01:07Z</time>
      </trkpt>
      <trkpt lat="44.76279" lon="5.06091">
        <ele>491.37</ele>
        <time>2016-08-23T14:01:08Z</time>
      </trkpt>
      <trkpt lat="44.76268" lon="5.06095">
        <ele>488.49</ele>
        <time>2016-08-23T14:01:10Z</time>
      </trkpt>
      <trkpt lat="44.76257" lon="5.06099">
        <ele>486.56</ele>
        <time>2016-08-23T14:01:12Z</time>
      </trkpt>
      <trkpt lat="44.76254" lon="5.061">
        <ele>486.08</ele>
        <time>2016-08-23T14:01:13Z</time>
      </trkpt>
      <trkpt lat="44.76246" lon="5.06101">
        <ele>483.68</ele>
        <time>2016-08-23T14:01:15Z</time>
      </trkpt>
      <trkpt lat="44.7622" lon="5.06108">
        <ele>479.84</ele>
        <time>2016-08-23T14:01:19Z</time>
      </trkpt>
      <trkpt lat="44.7619" lon="5.0612">
        <ele>476.47</ele>
        <time>2016-08-23T14:01:23Z</time>
      </trkpt>
      <trkpt lat="44.76153" lon="5.06134">
        <ele>473.11</ele>
        <time>2016-08-23T14:01:28Z</time>
      </trkpt>
      <trkpt lat="44.76147" lon="5.06136">
        <ele>472.63</ele>
        <time>2016-08-23T14:01:29Z</time>
      </trkpt>
      <trkpt lat="44.76129" lon="5.0614">
        <ele>471.66</ele>
        <time>2016-08-23T14:01:32Z</time>
      </trkpt>
      <trkpt lat="44.76123" lon="5.06143">
        <ele>470.7</ele>
        <time>2016-08-23T14:01:33Z</time>
      </trkpt>
      <trkpt lat="44.76111" lon="5.06149">
        <ele>470.22</ele>
        <time>2016-08-23T14:01:35Z</time>
      </trkpt>
      <trkpt lat="44.76098" lon="5.06155">
        <ele>469.74</ele>
        <time>2016-08-23T14:01:37Z</time>
      </trkpt>
      <trkpt lat="44.76093" lon="5.06156">
        <ele>469.74</ele>
        <time>2016-08-23T14:01:38Z</time>
      </trkpt>
      <trkpt lat="44.76088" lon="5.06159">
        <ele>469.74</ele>
        <time>2016-08-23T14:01:39Z</time>
      </trkpt>
      <trkpt lat="44.76079" lon="5.06163">
        <ele>470.22</ele>
        <time>2016-08-23T14:01:41Z</time>
      </trkpt>
      <trkpt lat="44.76073" lon="5.06164">
        <ele>469.74</ele>
        <time>2016-08-23T14:01:42Z</time>
      </trkpt>
      <trkpt lat="44.76063" lon="5.06165">
        <ele>469.26</ele>
        <time>2016-08-23T14:01:44Z</time>
      </trkpt>
      <trkpt lat="44.76058" lon="5.06165">
        <ele>469.26</ele>
        <time>2016-08-23T14:01:45Z</time>
      </trkpt>
      <trkpt lat="44.76029" lon="5.06161">
        <ele>470.22</ele>
        <time>2016-08-23T14:01:51Z</time>
      </trkpt>
      <trkpt lat="44.76025" lon="5.06162">
        <ele>471.18</ele>
        <time>2016-08-23T14:01:52Z</time>
      </trkpt>
      <trkpt lat="44.76021" lon="5.06163">
        <ele>470.7</ele>
        <time>2016-08-23T14:01:53Z</time>
      </trkpt>
      <trkpt lat="44.76001" lon="5.06169">
        <ele>473.59</ele>
        <time>2016-08-23T14:01:59Z</time>
      </trkpt>
      <trkpt lat="44.75997" lon="5.06169">
        <ele>471.66</ele>
        <time>2016-08-23T14:02:00Z</time>
      </trkpt>
      <trkpt lat="44.75956" lon="5.06183">
        <ele>471.18</ele>
        <time>2016-08-23T14:02:11Z</time>
      </trkpt>
      <trkpt lat="44.75951" lon="5.06185">
        <ele>470.7</ele>
        <time>2016-08-23T14:02:12Z</time>
      </trkpt>
      <trkpt lat="44.75937" lon="5.06188">
        <ele>470.22</ele>
        <time>2016-08-23T14:02:15Z</time>
      </trkpt>
      <trkpt lat="44.75932" lon="5.06188">
        <ele>469.74</ele>
        <time>2016-08-23T14:02:16Z</time>
      </trkpt>
      <trkpt lat="44.75917" lon="5.06189">
        <ele>469.26</ele>
        <time>2016-08-23T14:02:19Z</time>
      </trkpt>
      <trkpt lat="44.75913" lon="5.06189">
        <ele>469.74</ele>
        <time>2016-08-23T14:02:20Z</time>
      </trkpt>
      <trkpt lat="44.7591" lon="5.0619">
        <ele>469.74</ele>
        <time>2016-08-23T14:02:21Z</time>
      </trkpt>
      <trkpt lat="44.75906" lon="5.06191">
        <ele>469.74</ele>
        <time>2016-08-23T14:02:22Z</time>
      </trkpt>
      <trkpt lat="44.75902" lon="5.06192">
        <ele>469.74</ele>
        <time>2016-08-23T14:02:23Z</time>
      </trkpt>
      <trkpt lat="44.75899" lon="5.06194">
        <ele>469.74</ele>
        <time>2016-08-23T14:02:24Z</time>
      </trkpt>
      <trkpt lat="44.75895" lon="5.06195">
        <ele>469.26</ele>
        <time>2016-08-23T14:02:25Z</time>
      </trkpt>
      <trkpt lat="44.75891" lon="5.06196">
        <ele>469.26</ele>
        <time>2016-08-23T14:02:26Z</time>
      </trkpt>
      <trkpt lat="44.75887" lon="5.06196">
        <ele>469.26</ele>
        <time>2016-08-23T14:02:27Z</time>
      </trkpt>
      <trkpt lat="44.75883" lon="5.06196">
        <ele>469.26</ele>
        <time>2016-08-23T14:02:28Z</time>
      </trkpt>
      <trkpt lat="44.75878" lon="5.06197">
        <ele>469.26</ele>
        <time>2016-08-23T14:02:29Z</time>
      </trkpt>
      <trkpt lat="44.75874" lon="5.06198">
        <ele>468.3</ele>
        <time>2016-08-23T14:02:30Z</time>
      </trkpt>
      <trkpt lat="44.75868" lon="5.06201">
        <ele>467.82</ele>
        <time>2016-08-23T14:02:31Z</time>
      </trkpt>
      <trkpt lat="44.75863" lon="5.06205">
        <ele>467.34</ele>
        <time>2016-08-23T14:02:32Z</time>
      </trkpt>
      <trkpt lat="44.75858" lon="5.06209">
        <ele>466.86</ele>
        <time>2016-08-23T14:02:33Z</time>
      </trkpt>
      <trkpt lat="44.75853" lon="5.06213">
        <ele>466.38</ele>
        <time>2016-08-23T14:02:34Z</time>
      </trkpt>
      <trkpt lat="44.75848" lon="5.06217">
        <ele>466.38</ele>
        <time>2016-08-23T14:02:35Z</time>
      </trkpt>
      <trkpt lat="44.75842" lon="5.0622">
        <ele>465.9</ele>
        <time>2016-08-23T14:02:36Z</time>
      </trkpt>
      <trkpt lat="44.75821" lon="5.06228">
        <ele>463.49</ele>
        <time>2016-08-23T14:02:40Z</time>
      </trkpt>
      <trkpt lat="44.75808" lon="5.06236">
        <ele>461.09</ele>
        <time>2016-08-23T14:02:43Z</time>
      </trkpt>
      <trkpt lat="44.75803" lon="5.06237">
        <ele>460.13</ele>
        <time>2016-08-23T14:02:44Z</time>
      </trkpt>
      <trkpt lat="44.75778" lon="5.06236">
        <ele>457.72</ele>
        <time>2016-08-23T14:02:48Z</time>
      </trkpt>
      <trkpt lat="44.75743" lon="5.06231">
        <ele>454.84</ele>
        <time>2016-08-23T14:02:53Z</time>
      </trkpt>
      <trkpt lat="44.75725" lon="5.06228">
        <ele>453.4</ele>
        <time>2016-08-23T14:02:56Z</time>
      </trkpt>
      <trkpt lat="44.75722" lon="5.06228">
        <ele>453.4</ele>
        <time>2016-08-23T14:02:57Z</time>
      </trkpt>
      <trkpt lat="44.7572" lon="5.06229">
        <ele>453.88</ele>
        <time>2016-08-23T14:03:05Z</time>
      </trkpt>
      <trkpt lat="44.75719" lon="5.0623">
        <ele>453.4</ele>
        <time>2016-08-23T14:03:06Z</time>
      </trkpt>
      <trkpt lat="44.75716" lon="5.06231">
        <ele>452.92</ele>
        <time>2016-08-23T14:03:07Z</time>
      </trkpt>
      <trkpt lat="44.75714" lon="5.06232">
        <ele>452.92</ele>
        <time>2016-08-23T14:03:08Z</time>
      </trkpt>
      <trkpt lat="44.7571" lon="5.06234">
        <ele>452.44</ele>
        <time>2016-08-23T14:03:09Z</time>
      </trkpt>
      <trkpt lat="44.75707" lon="5.06235">
        <ele>451.96</ele>
        <time>2016-08-23T14:03:10Z</time>
      </trkpt>
      <trkpt lat="44.75703" lon="5.06235">
        <ele>451.48</ele>
        <time>2016-08-23T14:03:11Z</time>
      </trkpt>
      <trkpt lat="44.75699" lon="5.06235">
        <ele>451</ele>
        <time>2016-08-23T14:03:12Z</time>
      </trkpt>
      <trkpt lat="44.75695" lon="5.06235">
        <ele>450.52</ele>
        <time>2016-08-23T14:03:13Z</time>
      </trkpt>
      <trkpt lat="44.7569" lon="5.06236">
        <ele>450.03</ele>
        <time>2016-08-23T14:03:14Z</time>
      </trkpt>
      <trkpt lat="44.75686" lon="5.06237">
        <ele>449.07</ele>
        <time>2016-08-23T14:03:15Z</time>
      </trkpt>
      <trkpt lat="44.75676" lon="5.06241">
        <ele>448.59</ele>
        <time>2016-08-23T14:03:17Z</time>
      </trkpt>
      <trkpt lat="44.75667" lon="5.06242">
        <ele>448.59</ele>
        <time>2016-08-23T14:03:19Z</time>
      </trkpt>
      <trkpt lat="44.75663" lon="5.06242">
        <ele>448.11</ele>
        <time>2016-08-23T14:03:20Z</time>
      </trkpt>
      <trkpt lat="44.75659" lon="5.06242">
        <ele>448.11</ele>
        <time>2016-08-23T14:03:21Z</time>
      </trkpt>
      <trkpt lat="44.75656" lon="5.06242">
        <ele>448.59</ele>
        <time>2016-08-23T14:03:22Z</time>
      </trkpt>
      <trkpt lat="44.75651" lon="5.06242">
        <ele>448.11</ele>
        <time>2016-08-23T14:03:23Z</time>
      </trkpt>
      <trkpt lat="44.75647" lon="5.06241">
        <ele>447.63</ele>
        <time>2016-08-23T14:03:24Z</time>
      </trkpt>
      <trkpt lat="44.75642" lon="5.06241">
        <ele>446.67</ele>
        <time>2016-08-23T14:03:25Z</time>
      </trkpt>
      <trkpt lat="44.75638" lon="5.06242">
        <ele>446.19</ele>
        <time>2016-08-23T14:03:26Z</time>
      </trkpt>
      <trkpt lat="44.75634" lon="5.06243">
        <ele>445.71</ele>
        <time>2016-08-23T14:03:27Z</time>
      </trkpt>
      <trkpt lat="44.7563" lon="5.06244">
        <ele>445.23</ele>
        <time>2016-08-23T14:03:28Z</time>
      </trkpt>
      <trkpt lat="44.75627" lon="5.06245">
        <ele>444.75</ele>
        <time>2016-08-23T14:03:29Z</time>
      </trkpt>
      <trkpt lat="44.75623" lon="5.06247">
        <ele>443.79</ele>
        <time>2016-08-23T14:03:30Z</time>
      </trkpt>
      <trkpt lat="44.75619" lon="5.06249">
        <ele>442.82</ele>
        <time>2016-08-23T14:03:31Z</time>
      </trkpt>
      <trkpt lat="44.75614" lon="5.06252">
        <ele>442.34</ele>
        <time>2016-08-23T14:03:32Z</time>
      </trkpt>
      <trkpt lat="44.7561" lon="5.06254">
        <ele>441.86</ele>
        <time>2016-08-23T14:03:33Z</time>
      </trkpt>
      <trkpt lat="44.75605" lon="5.06254">
        <ele>440.9</ele>
        <time>2016-08-23T14:03:34Z</time>
      </trkpt>
      <trkpt lat="44.75601" lon="5.06252">
        <ele>440.42</ele>
        <time>2016-08-23T14:03:35Z</time>
      </trkpt>
      <trkpt lat="44.75597" lon="5.06249">
        <ele>439.94</ele>
        <time>2016-08-23T14:03:36Z</time>
      </trkpt>
      <trkpt lat="44.75593" lon="5.0625">
        <ele>438.98</ele>
        <time>2016-08-23T14:03:37Z</time>
      </trkpt>
      <trkpt lat="44.75591" lon="5.06251">
        <ele>438.5</ele>
        <time>2016-08-23T14:03:38Z</time>
      </trkpt>
      <trkpt lat="44.7559" lon="5.06254">
        <ele>438.02</ele>
        <time>2016-08-23T14:03:39Z</time>
      </trkpt>
      <trkpt lat="44.75588" lon="5.06258">
        <ele>437.54</ele>
        <time>2016-08-23T14:03:40Z</time>
      </trkpt>
      <trkpt lat="44.75588" lon="5.06262">
        <ele>436.58</ele>
        <time>2016-08-23T14:03:41Z</time>
      </trkpt>
      <trkpt lat="44.75587" lon="5.06264">
        <ele>436.1</ele>
        <time>2016-08-23T14:03:42Z</time>
      </trkpt>
      <trkpt lat="44.75585" lon="5.06267">
        <ele>435.13</ele>
        <time>2016-08-23T14:03:43Z</time>
      </trkpt>
      <trkpt lat="44.75583" lon="5.06269">
        <ele>434.17</ele>
        <time>2016-08-23T14:03:44Z</time>
      </trkpt>
      <trkpt lat="44.75582" lon="5.06269">
        <ele>434.17</ele>
        <time>2016-08-23T14:03:45Z</time>
      </trkpt>
      <trkpt lat="44.7558" lon="5.06269">
        <ele>433.21</ele>
        <time>2016-08-23T14:03:46Z</time>
      </trkpt>
      <trkpt lat="44.75578" lon="5.0627">
        <ele>432.73</ele>
        <time>2016-08-23T14:03:47Z</time>
      </trkpt>
      <trkpt lat="44.75577" lon="5.06272">
        <ele>432.73</ele>
        <time>2016-08-23T14:03:48Z</time>
      </trkpt>
      <trkpt lat="44.75575" lon="5.06276">
        <ele>431.77</ele>
        <time>2016-08-23T14:03:49Z</time>
      </trkpt>
      <trkpt lat="44.75574" lon="5.06278">
        <ele>431.29</ele>
        <time>2016-08-23T14:03:50Z</time>
      </trkpt>
      <trkpt lat="44.75572" lon="5.06277">
        <ele>431.29</ele>
        <time>2016-08-23T14:03:51Z</time>
      </trkpt>
      <trkpt lat="44.7557" lon="5.06275">
        <ele>430.81</ele>
        <time>2016-08-23T14:03:52Z</time>
      </trkpt>
      <trkpt lat="44.75568" lon="5.06272">
        <ele>430.33</ele>
        <time>2016-08-23T14:03:53Z</time>
      </trkpt>
      <trkpt lat="44.75567" lon="5.06269">
        <ele>429.85</ele>
        <time>2016-08-23T14:03:54Z</time>
      </trkpt>
      <trkpt lat="44.75565" lon="5.06267">
        <ele>428.89</ele>
        <time>2016-08-23T14:03:55Z</time>
      </trkpt>
      <trkpt lat="44.75563" lon="5.06268">
        <ele>428.89</ele>
        <time>2016-08-23T14:03:56Z</time>
      </trkpt>
      <trkpt lat="44.75562" lon="5.06271">
        <ele>428.4</ele>
        <time>2016-08-23T14:03:57Z</time>
      </trkpt>
      <trkpt lat="44.75561" lon="5.06273">
        <ele>428.4</ele>
        <time>2016-08-23T14:03:58Z</time>
      </trkpt>
      <trkpt lat="44.75561" lon="5.06276">
        <ele>427.92</ele>
        <time>2016-08-23T14:03:59Z</time>
      </trkpt>
      <trkpt lat="44.7556" lon="5.06279">
        <ele>427.44</ele>
        <time>2016-08-23T14:04:00Z</time>
      </trkpt>
      <trkpt lat="44.75559" lon="5.06282">
        <ele>426.96</ele>
        <time>2016-08-23T14:04:01Z</time>
      </trkpt>
      <trkpt lat="44.75558" lon="5.06284">
        <ele>426.48</ele>
        <time>2016-08-23T14:04:02Z</time>
      </trkpt>
      <trkpt lat="44.75558" lon="5.06287">
        <ele>426</ele>
        <time>2016-08-23T14:04:03Z</time>
      </trkpt>
      <trkpt lat="44.75555" lon="5.06296">
        <ele>424.56</ele>
        <time>2016-08-23T14:04:06Z</time>
      </trkpt>
      <trkpt lat="44.75554" lon="5.06297">
        <ele>424.56</ele>
        <time>2016-08-23T14:04:07Z</time>
      </trkpt>
      <trkpt lat="44.75553" lon="5.06299">
        <ele>424.08</ele>
        <time>2016-08-23T14:04:08Z</time>
      </trkpt>
      <trkpt lat="44.75551" lon="5.06301">
        <ele>424.08</ele>
        <time>2016-08-23T14:04:09Z</time>
      </trkpt>
      <trkpt lat="44.75549" lon="5.06303">
        <ele>422.64</ele>
        <time>2016-08-23T14:04:10Z</time>
      </trkpt>
      <trkpt lat="44.75543" lon="5.06309">
        <ele>420.71</ele>
        <time>2016-08-23T14:04:13Z</time>
      </trkpt>
      <trkpt lat="44.75541" lon="5.06312">
        <ele>419.75</ele>
        <time>2016-08-23T14:04:14Z</time>
      </trkpt>
      <trkpt lat="44.7554" lon="5.06314">
        <ele>419.27</ele>
        <time>2016-08-23T14:04:15Z</time>
      </trkpt>
      <trkpt lat="44.75537" lon="5.06315">
        <ele>418.79</ele>
        <time>2016-08-23T14:04:16Z</time>
      </trkpt>
      <trkpt lat="44.75534" lon="5.06317">
        <ele>417.83</ele>
        <time>2016-08-23T14:04:17Z</time>
      </trkpt>
      <trkpt lat="44.75523" lon="5.06317">
        <ele>415.91</ele>
        <time>2016-08-23T14:04:21Z</time>
      </trkpt>
      <trkpt lat="44.7552" lon="5.06317">
        <ele>414.95</ele>
        <time>2016-08-23T14:04:22Z</time>
      </trkpt>
      <trkpt lat="44.75518" lon="5.06317">
        <ele>414.47</ele>
        <time>2016-08-23T14:04:23Z</time>
      </trkpt>
      <trkpt lat="44.75517" lon="5.06318">
        <ele>414.47</ele>
        <time>2016-08-23T14:04:24Z</time>
      </trkpt>
      <trkpt lat="44.75516" lon="5.06319">
        <ele>414.47</ele>
        <time>2016-08-23T14:04:35Z</time>
      </trkpt>
      <trkpt lat="44.75516" lon="5.06323">
        <ele>413.5</ele>
        <time>2016-08-23T14:04:44Z</time>
      </trkpt>
      <trkpt lat="44.75513" lon="5.06325">
        <ele>413.02</ele>
        <time>2016-08-23T14:04:45Z</time>
      </trkpt>
      <trkpt lat="44.75511" lon="5.06328">
        <ele>412.06</ele>
        <time>2016-08-23T14:04:46Z</time>
      </trkpt>
      <trkpt lat="44.75508" lon="5.0633">
        <ele>411.1</ele>
        <time>2016-08-23T14:04:47Z</time>
      </trkpt>
      <trkpt lat="44.75504" lon="5.0633">
        <ele>410.14</ele>
        <time>2016-08-23T14:04:48Z</time>
      </trkpt>
      <trkpt lat="44.75501" lon="5.06329">
        <ele>409.66</ele>
        <time>2016-08-23T14:04:49Z</time>
      </trkpt>
      <trkpt lat="44.75498" lon="5.06327">
        <ele>409.18</ele>
        <time>2016-08-23T14:04:50Z</time>
      </trkpt>
      <trkpt lat="44.75496" lon="5.06325">
        <ele>409.18</ele>
        <time>2016-08-23T14:04:51Z</time>
      </trkpt>
      <trkpt lat="44.75493" lon="5.06324">
        <ele>409.18</ele>
        <time>2016-08-23T14:04:52Z</time>
      </trkpt>
      <trkpt lat="44.7549" lon="5.06323">
        <ele>408.7</ele>
        <time>2016-08-23T14:04:53Z</time>
      </trkpt>
      <trkpt lat="44.75488" lon="5.06321">
        <ele>408.22</ele>
        <time>2016-08-23T14:04:54Z</time>
      </trkpt>
      <trkpt lat="44.75485" lon="5.06321">
        <ele>407.74</ele>
        <time>2016-08-23T14:04:55Z</time>
      </trkpt>
      <trkpt lat="44.75483" lon="5.06323">
        <ele>407.26</ele>
        <time>2016-08-23T14:04:56Z</time>
      </trkpt>
      <trkpt lat="44.7548" lon="5.06326">
        <ele>406.77</ele>
        <time>2016-08-23T14:04:57Z</time>
      </trkpt>
      <trkpt lat="44.75478" lon="5.06328">
        <ele>405.33</ele>
        <time>2016-08-23T14:04:58Z</time>
      </trkpt>
      <trkpt lat="44.75476" lon="5.06328">
        <ele>405.33</ele>
        <time>2016-08-23T14:04:59Z</time>
      </trkpt>
      <trkpt lat="44.75474" lon="5.06326">
        <ele>404.85</ele>
        <time>2016-08-23T14:05:00Z</time>
      </trkpt>
      <trkpt lat="44.75472" lon="5.06324">
        <ele>404.37</ele>
        <time>2016-08-23T14:05:01Z</time>
      </trkpt>
      <trkpt lat="44.7547" lon="5.06322">
        <ele>404.37</ele>
        <time>2016-08-23T14:05:02Z</time>
      </trkpt>
      <trkpt lat="44.75468" lon="5.06322">
        <ele>403.89</ele>
        <time>2016-08-23T14:05:03Z</time>
      </trkpt>
      <trkpt lat="44.75466" lon="5.06322">
        <ele>403.89</ele>
        <time>2016-08-23T14:05:04Z</time>
      </trkpt>
      <trkpt lat="44.75464" lon="5.06322">
        <ele>402.93</ele>
        <time>2016-08-23T14:05:05Z</time>
      </trkpt>
      <trkpt lat="44.75463" lon="5.06323">
        <ele>402.93</ele>
        <time>2016-08-23T14:05:06Z</time>
      </trkpt>
      <trkpt lat="44.7545" lon="5.06324">
        <ele>400.53</ele>
        <time>2016-08-23T14:05:13Z</time>
      </trkpt>
      <trkpt lat="44.75448" lon="5.06325">
        <ele>400.05</ele>
        <time>2016-08-23T14:05:14Z</time>
      </trkpt>
      <trkpt lat="44.75447" lon="5.06327">
        <ele>399.08</ele>
        <time>2016-08-23T14:05:15Z</time>
      </trkpt>
      <trkpt lat="44.75445" lon="5.06327">
        <ele>399.08</ele>
        <time>2016-08-23T14:05:16Z</time>
      </trkpt>
      <trkpt lat="44.75444" lon="5.06327">
        <ele>398.6</ele>
        <time>2016-08-23T14:05:17Z</time>
      </trkpt>
      <trkpt lat="44.75442" lon="5.06328">
        <ele>398.12</ele>
        <time>2016-08-23T14:05:18Z</time>
      </trkpt>
      <trkpt lat="44.75441" lon="5.06331">
        <ele>398.12</ele>
        <time>2016-08-23T14:05:19Z</time>
      </trkpt>
      <trkpt lat="44.7544" lon="5.06335">
        <ele>398.12</ele>
        <time>2016-08-23T14:05:20Z</time>
      </trkpt>
      <trkpt lat="44.75438" lon="5.06337">
        <ele>397.16</ele>
        <time>2016-08-23T14:05:21Z</time>
      </trkpt>
      <trkpt lat="44.75436" lon="5.06337">
        <ele>396.68</ele>
        <time>2016-08-23T14:05:22Z</time>
      </trkpt>
      <trkpt lat="44.75433" lon="5.06337">
        <ele>396.68</ele>
        <time>2016-08-23T14:05:23Z</time>
      </trkpt>
      <trkpt lat="44.75431" lon="5.06338">
        <ele>394.76</ele>
        <time>2016-08-23T14:05:24Z</time>
      </trkpt>
      <trkpt lat="44.75429" lon="5.06342">
        <ele>393.8</ele>
        <time>2016-08-23T14:05:25Z</time>
      </trkpt>
      <trkpt lat="44.75427" lon="5.06346">
        <ele>393.8</ele>
        <time>2016-08-23T14:05:26Z</time>
      </trkpt>
      <trkpt lat="44.75427" lon="5.06349">
        <ele>393.8</ele>
        <time>2016-08-23T14:05:27Z</time>
      </trkpt>
      <trkpt lat="44.75427" lon="5.06351">
        <ele>393.8</ele>
        <time>2016-08-23T14:05:28Z</time>
      </trkpt>
      <trkpt lat="44.75426" lon="5.06353">
        <ele>393.32</ele>
        <time>2016-08-23T14:05:29Z</time>
      </trkpt>
      <trkpt lat="44.75425" lon="5.06353">
        <ele>392.84</ele>
        <time>2016-08-23T14:05:30Z</time>
      </trkpt>
      <trkpt lat="44.75423" lon="5.06353">
        <ele>391.87</ele>
        <time>2016-08-23T14:05:31Z</time>
      </trkpt>
      <trkpt lat="44.75422" lon="5.06353">
        <ele>391.39</ele>
        <time>2016-08-23T14:05:32Z</time>
      </trkpt>
      <trkpt lat="44.75416" lon="5.06354">
        <ele>390.43</ele>
        <time>2016-08-23T14:05:35Z</time>
      </trkpt>
      <trkpt lat="44.75415" lon="5.06357">
        <ele>389.95</ele>
        <time>2016-08-23T14:05:36Z</time>
      </trkpt>
      <trkpt lat="44.75401" lon="5.06379">
        <ele>389.47</ele>
        <time>2016-08-23T14:05:43Z</time>
      </trkpt>
      <trkpt lat="44.75397" lon="5.06383">
        <ele>388.51</ele>
        <time>2016-08-23T14:05:44Z</time>
      </trkpt>
      <trkpt lat="44.75393" lon="5.06387">
        <ele>388.03</ele>
        <time>2016-08-23T14:05:45Z</time>
      </trkpt>
      <trkpt lat="44.75389" lon="5.06391">
        <ele>387.55</ele>
        <time>2016-08-23T14:05:46Z</time>
      </trkpt>
      <trkpt lat="44.75386" lon="5.06395">
        <ele>386.59</ele>
        <time>2016-08-23T14:05:47Z</time>
      </trkpt>
      <trkpt lat="44.75382" lon="5.06399">
        <ele>386.11</ele>
        <time>2016-08-23T14:05:48Z</time>
      </trkpt>
      <trkpt lat="44.75378" lon="5.06403">
        <ele>385.63</ele>
        <time>2016-08-23T14:05:49Z</time>
      </trkpt>
      <trkpt lat="44.75375" lon="5.06407">
        <ele>385.15</ele>
        <time>2016-08-23T14:05:50Z</time>
      </trkpt>
      <trkpt lat="44.7537" lon="5.06415">
        <ele>385.15</ele>
        <time>2016-08-23T14:05:52Z</time>
      </trkpt>
      <trkpt lat="44.75368" lon="5.0642">
        <ele>384.66</ele>
        <time>2016-08-23T14:05:53Z</time>
      </trkpt>
      <trkpt lat="44.75366" lon="5.06422">
        <ele>384.66</ele>
        <time>2016-08-23T14:05:54Z</time>
      </trkpt>
      <trkpt lat="44.75357" lon="5.06428">
        <ele>384.18</ele>
        <time>2016-08-23T14:05:59Z</time>
      </trkpt>
      <trkpt lat="44.75355" lon="5.06429">
        <ele>384.18</ele>
        <time>2016-08-23T14:06:00Z</time>
      </trkpt>
      <trkpt lat="44.75352" lon="5.0643">
        <ele>383.7</ele>
        <time>2016-08-23T14:06:01Z</time>
      </trkpt>
      <trkpt lat="44.7535" lon="5.06432">
        <ele>384.18</ele>
        <time>2016-08-23T14:06:02Z</time>
      </trkpt>
      <trkpt lat="44.75347" lon="5.06435">
        <ele>383.7</ele>
        <time>2016-08-23T14:06:03Z</time>
      </trkpt>
      <trkpt lat="44.75345" lon="5.06437">
        <ele>384.18</ele>
        <time>2016-08-23T14:06:04Z</time>
      </trkpt>
      <trkpt lat="44.75321" lon="5.06449">
        <ele>383.22</ele>
        <time>2016-08-23T14:06:12Z</time>
      </trkpt>
      <trkpt lat="44.75311" lon="5.06458">
        <ele>384.18</ele>
        <time>2016-08-23T14:06:15Z</time>
      </trkpt>
      <trkpt lat="44.75309" lon="5.06461">
        <ele>385.15</ele>
        <time>2016-08-23T14:06:16Z</time>
      </trkpt>
      <trkpt lat="44.75308" lon="5.06464">
        <ele>385.63</ele>
        <time>2016-08-23T14:06:17Z</time>
      </trkpt>
      <trkpt lat="44.75306" lon="5.06465">
        <ele>385.63</ele>
        <time>2016-08-23T14:06:18Z</time>
      </trkpt>
      <trkpt lat="44.75304" lon="5.06466">
        <ele>385.63</ele>
        <time>2016-08-23T14:06:19Z</time>
      </trkpt>
      <trkpt lat="44.7527" lon="5.06477">
        <ele>385.15</ele>
        <time>2016-08-23T14:06:30Z</time>
      </trkpt>
      <trkpt lat="44.75268" lon="5.06479">
        <ele>385.63</ele>
        <time>2016-08-23T14:06:39Z</time>
      </trkpt>
      <trkpt lat="44.75268" lon="5.06479">
        <ele>385.63</ele>
        <time>2016-08-23T14:06:45Z</time>
      </trkpt>
      <trkpt lat="44.75267" lon="5.06481">
        <ele>385.15</ele>
        <time>2016-08-23T14:06:46Z</time>
      </trkpt>
      <trkpt lat="44.75265" lon="5.06483">
        <ele>385.15</ele>
        <time>2016-08-23T14:06:47Z</time>
      </trkpt>
      <trkpt lat="44.75263" lon="5.06486">
        <ele>384.66</ele>
        <time>2016-08-23T14:06:48Z</time>
      </trkpt>
      <trkpt lat="44.75261" lon="5.06489">
        <ele>384.66</ele>
        <time>2016-08-23T14:06:49Z</time>
      </trkpt>
      <trkpt lat="44.75259" lon="5.06493">
        <ele>384.18</ele>
        <time>2016-08-23T14:06:50Z</time>
      </trkpt>
      <trkpt lat="44.75255" lon="5.06498">
        <ele>383.22</ele>
        <time>2016-08-23T14:06:51Z</time>
      </trkpt>
      <trkpt lat="44.75251" lon="5.06501">
        <ele>382.74</ele>
        <time>2016-08-23T14:06:52Z</time>
      </trkpt>
      <trkpt lat="44.75247" lon="5.06504">
        <ele>382.26</ele>
        <time>2016-08-23T14:06:53Z</time>
      </trkpt>
      <trkpt lat="44.75241" lon="5.06506">
        <ele>381.3</ele>
        <time>2016-08-23T14:06:54Z</time>
      </trkpt>
      <trkpt lat="44.75236" lon="5.06506">
        <ele>380.82</ele>
        <time>2016-08-23T14:06:55Z</time>
      </trkpt>
      <trkpt lat="44.75231" lon="5.06506">
        <ele>380.34</ele>
        <time>2016-08-23T14:06:56Z</time>
      </trkpt>
      <trkpt lat="44.75212" lon="5.065">
        <ele>377.45</ele>
        <time>2016-08-23T14:06:59Z</time>
      </trkpt>
      <trkpt lat="44.7519" lon="5.06481">
        <ele>373.61</ele>
        <time>2016-08-23T14:07:03Z</time>
      </trkpt>
      <trkpt lat="44.75183" lon="5.06477">
        <ele>372.65</ele>
        <time>2016-08-23T14:07:04Z</time>
      </trkpt>
      <trkpt lat="44.75177" lon="5.06475">
        <ele>372.17</ele>
        <time>2016-08-23T14:07:05Z</time>
      </trkpt>
      <trkpt lat="44.75116" lon="5.06457">
        <ele>368.8</ele>
        <time>2016-08-23T14:07:13Z</time>
      </trkpt>
      <trkpt lat="44.75103" lon="5.06451">
        <ele>367.84</ele>
        <time>2016-08-23T14:07:15Z</time>
      </trkpt>
      <trkpt lat="44.7509" lon="5.06447">
        <ele>366.88</ele>
        <time>2016-08-23T14:07:17Z</time>
      </trkpt>
      <trkpt lat="44.75079" lon="5.06445">
        <ele>366.88</ele>
        <time>2016-08-23T14:07:19Z</time>
      </trkpt>
      <trkpt lat="44.75074" lon="5.06444">
        <ele>366.88</ele>
        <time>2016-08-23T14:07:20Z</time>
      </trkpt>
      <trkpt lat="44.75069" lon="5.06443">
        <ele>366.88</ele>
        <time>2016-08-23T14:07:21Z</time>
      </trkpt>
      <trkpt lat="44.75039" lon="5.06436">
        <ele>365.44</ele>
        <time>2016-08-23T14:07:30Z</time>
      </trkpt>
      <trkpt lat="44.75039" lon="5.06436">
        <ele>364.96</ele>
        <time>2016-08-23T14:08:06Z</time>
      </trkpt>
      <trkpt lat="44.75039" lon="5.06436">
        <ele>364.96</ele>
        <time>2016-08-23T14:08:43Z</time>
      </trkpt>
      <trkpt lat="44.75039" lon="5.06436">
        <ele>364</ele>
        <time>2016-08-23T14:09:13Z</time>
      </trkpt>
      <trkpt lat="44.75037" lon="5.06437">
        <ele>366.4</ele>
        <time>2016-08-23T14:09:37Z</time>
      </trkpt>
      <trkpt lat="44.75038" lon="5.06436">
        <ele>365.44</ele>
        <time>2016-08-23T14:09:38Z</time>
      </trkpt>
      <trkpt lat="44.75037" lon="5.06437">
        <ele>364.96</ele>
        <time>2016-08-23T14:09:42Z</time>
      </trkpt>
      <trkpt lat="44.75028" lon="5.06433">
        <ele>364.48</ele>
        <time>2016-08-23T14:09:48Z</time>
      </trkpt>
      <trkpt lat="44.75006" lon="5.06429">
        <ele>362.07</ele>
        <time>2016-08-23T14:09:53Z</time>
      </trkpt>
      <trkpt lat="44.74975" lon="5.06425">
        <ele>359.67</ele>
        <time>2016-08-23T14:09:59Z</time>
      </trkpt>
      <trkpt lat="44.74951" lon="5.06423">
        <ele>358.71</ele>
        <time>2016-08-23T14:10:03Z</time>
      </trkpt>
      <trkpt lat="44.74913" lon="5.06427">
        <ele>355.34</ele>
        <time>2016-08-23T14:10:09Z</time>
      </trkpt>
      <trkpt lat="44.74906" lon="5.06429">
        <ele>354.38</ele>
        <time>2016-08-23T14:10:10Z</time>
      </trkpt>
      <trkpt lat="44.74876" lon="5.06442">
        <ele>351.02</ele>
        <time>2016-08-23T14:10:14Z</time>
      </trkpt>
      <trkpt lat="44.74868" lon="5.06443">
        <ele>350.54</ele>
        <time>2016-08-23T14:10:15Z</time>
      </trkpt>
      <trkpt lat="44.7486" lon="5.06443">
        <ele>349.58</ele>
        <time>2016-08-23T14:10:16Z</time>
      </trkpt>
      <trkpt lat="44.74852" lon="5.06442">
        <ele>349.1</ele>
        <time>2016-08-23T14:10:17Z</time>
      </trkpt>
      <trkpt lat="44.74844" lon="5.06441">
        <ele>348.13</ele>
        <time>2016-08-23T14:10:18Z</time>
      </trkpt>
      <trkpt lat="44.74836" lon="5.0644">
        <ele>348.13</ele>
        <time>2016-08-23T14:10:19Z</time>
      </trkpt>
      <trkpt lat="44.74814" lon="5.06438">
        <ele>347.65</ele>
        <time>2016-08-23T14:10:22Z</time>
      </trkpt>
      <trkpt lat="44.74808" lon="5.06436">
        <ele>347.17</ele>
        <time>2016-08-23T14:10:23Z</time>
      </trkpt>
      <trkpt lat="44.74802" lon="5.06434">
        <ele>347.65</ele>
        <time>2016-08-23T14:10:24Z</time>
      </trkpt>
      <trkpt lat="44.74781" lon="5.06422">
        <ele>347.65</ele>
        <time>2016-08-23T14:10:28Z</time>
      </trkpt>
      <trkpt lat="44.74755" lon="5.06404">
        <ele>347.65</ele>
        <time>2016-08-23T14:10:33Z</time>
      </trkpt>
      <trkpt lat="44.74751" lon="5.06402">
        <ele>347.65</ele>
        <time>2016-08-23T14:10:34Z</time>
      </trkpt>
      <trkpt lat="44.74727" lon="5.06396">
        <ele>346.69</ele>
        <time>2016-08-23T14:10:38Z</time>
      </trkpt>
      <trkpt lat="44.74721" lon="5.06395">
        <ele>346.21</ele>
        <time>2016-08-23T14:10:39Z</time>
      </trkpt>
      <trkpt lat="44.74715" lon="5.06392">
        <ele>346.21</ele>
        <time>2016-08-23T14:10:40Z</time>
      </trkpt>
      <trkpt lat="44.74709" lon="5.06391">
        <ele>346.69</ele>
        <time>2016-08-23T14:10:41Z</time>
      </trkpt>
      <trkpt lat="44.74703" lon="5.0639">
        <ele>346.69</ele>
        <time>2016-08-23T14:10:42Z</time>
      </trkpt>
      <trkpt lat="44.74697" lon="5.06388">
        <ele>346.69</ele>
        <time>2016-08-23T14:10:43Z</time>
      </trkpt>
      <trkpt lat="44.74667" lon="5.06381">
        <ele>349.1</ele>
        <time>2016-08-23T14:10:49Z</time>
      </trkpt>
      <trkpt lat="44.7461" lon="5.06371">
        <ele>351.5</ele>
        <time>2016-08-23T14:11:03Z</time>
      </trkpt>
      <trkpt lat="44.74573" lon="5.0636">
        <ele>353.9</ele>
        <time>2016-08-23T14:11:14Z</time>
      </trkpt>
      <trkpt lat="44.74525" lon="5.0635">
        <ele>355.34</ele>
        <time>2016-08-23T14:11:28Z</time>
      </trkpt>
      <trkpt lat="44.74486" lon="5.06334">
        <ele>357.27</ele>
        <time>2016-08-23T14:11:41Z</time>
      </trkpt>
      <trkpt lat="44.7444" lon="5.06327">
        <ele>357.27</ele>
        <time>2016-08-23T14:11:52Z</time>
      </trkpt>
      <trkpt lat="44.74435" lon="5.06326">
        <ele>357.27</ele>
        <time>2016-08-23T14:11:53Z</time>
      </trkpt>
      <trkpt lat="44.74431" lon="5.06326">
        <ele>356.79</ele>
        <time>2016-08-23T14:11:54Z</time>
      </trkpt>
      <trkpt lat="44.74427" lon="5.06326">
        <ele>356.79</ele>
        <time>2016-08-23T14:11:55Z</time>
      </trkpt>
      <trkpt lat="44.74422" lon="5.06326">
        <ele>356.79</ele>
        <time>2016-08-23T14:11:56Z</time>
      </trkpt>
      <trkpt lat="44.74417" lon="5.06325">
        <ele>356.79</ele>
        <time>2016-08-23T14:11:57Z</time>
      </trkpt>
      <trkpt lat="44.74413" lon="5.06325">
        <ele>356.79</ele>
        <time>2016-08-23T14:11:58Z</time>
      </trkpt>
      <trkpt lat="44.74408" lon="5.06325">
        <ele>356.79</ele>
        <time>2016-08-23T14:11:59Z</time>
      </trkpt>
      <trkpt lat="44.74404" lon="5.06324">
        <ele>356.79</ele>
        <time>2016-08-23T14:12:00Z</time>
      </trkpt>
      <trkpt lat="44.744" lon="5.06323">
        <ele>356.31</ele>
        <time>2016-08-23T14:12:01Z</time>
      </trkpt>
      <trkpt lat="44.74395" lon="5.06323">
        <ele>356.79</ele>
        <time>2016-08-23T14:12:02Z</time>
      </trkpt>
      <trkpt lat="44.74382" lon="5.06323">
        <ele>355.83</ele>
        <time>2016-08-23T14:12:05Z</time>
      </trkpt>
      <trkpt lat="44.74376" lon="5.06323">
        <ele>354.86</ele>
        <time>2016-08-23T14:12:06Z</time>
      </trkpt>
      <trkpt lat="44.74334" lon="5.06329">
        <ele>351.02</ele>
        <time>2016-08-23T14:12:12Z</time>
      </trkpt>
      <trkpt lat="44.7432" lon="5.06334">
        <ele>350.54</ele>
        <time>2016-08-23T14:12:14Z</time>
      </trkpt>
      <trkpt lat="44.74293" lon="5.06339">
        <ele>350.06</ele>
        <time>2016-08-23T14:12:18Z</time>
      </trkpt>
      <trkpt lat="44.74287" lon="5.06338">
        <ele>350.06</ele>
        <time>2016-08-23T14:12:19Z</time>
      </trkpt>
      <trkpt lat="44.74271" lon="5.06336">
        <ele>350.54</ele>
        <time>2016-08-23T14:12:22Z</time>
      </trkpt>
      <trkpt lat="44.74266" lon="5.06337">
        <ele>351.02</ele>
        <time>2016-08-23T14:12:23Z</time>
      </trkpt>
      <trkpt lat="44.74236" lon="5.06343">
        <ele>353.42</ele>
        <time>2016-08-23T14:12:31Z</time>
      </trkpt>
      <trkpt lat="44.74234" lon="5.06341">
        <ele>353.9</ele>
        <time>2016-08-23T14:12:32Z</time>
      </trkpt>
      <trkpt lat="44.74231" lon="5.0634">
        <ele>353.9</ele>
        <time>2016-08-23T14:12:33Z</time>
      </trkpt>
      <trkpt lat="44.74229" lon="5.0634">
        <ele>353.9</ele>
        <time>2016-08-23T14:12:34Z</time>
      </trkpt>
      <trkpt lat="44.74226" lon="5.06339">
        <ele>354.38</ele>
        <time>2016-08-23T14:12:35Z</time>
      </trkpt>
      <trkpt lat="44.74224" lon="5.06339">
        <ele>354.38</ele>
        <time>2016-08-23T14:12:36Z</time>
      </trkpt>
      <trkpt lat="44.74221" lon="5.06338">
        <ele>354.86</ele>
        <time>2016-08-23T14:12:37Z</time>
      </trkpt>
      <trkpt lat="44.74196" lon="5.06337">
        <ele>357.27</ele>
        <time>2016-08-23T14:12:48Z</time>
      </trkpt>
      <trkpt lat="44.74194" lon="5.06336">
        <ele>357.27</ele>
        <time>2016-08-23T14:12:49Z</time>
      </trkpt>
      <trkpt lat="44.7419" lon="5.06335">
        <ele>357.75</ele>
        <time>2016-08-23T14:12:51Z</time>
      </trkpt>
      <trkpt lat="44.74188" lon="5.06335">
        <ele>358.23</ele>
        <time>2016-08-23T14:12:52Z</time>
      </trkpt>
      <trkpt lat="44.74186" lon="5.06335">
        <ele>358.23</ele>
        <time>2016-08-23T14:12:53Z</time>
      </trkpt>
      <trkpt lat="44.74184" lon="5.06334">
        <ele>358.23</ele>
        <time>2016-08-23T14:12:54Z</time>
      </trkpt>
      <trkpt lat="44.74183" lon="5.06334">
        <ele>358.71</ele>
        <time>2016-08-23T14:12:55Z</time>
      </trkpt>
      <trkpt lat="44.74181" lon="5.06333">
        <ele>358.71</ele>
        <time>2016-08-23T14:12:56Z</time>
      </trkpt>
      <trkpt lat="44.74179" lon="5.06334">
        <ele>359.19</ele>
        <time>2016-08-23T14:12:57Z</time>
      </trkpt>
      <trkpt lat="44.74175" lon="5.06334">
        <ele>359.67</ele>
        <time>2016-08-23T14:12:59Z</time>
      </trkpt>
      <trkpt lat="44.74173" lon="5.06334">
        <ele>359.67</ele>
        <time>2016-08-23T14:13:00Z</time>
      </trkpt>
      <trkpt lat="44.74172" lon="5.06334">
        <ele>360.15</ele>
        <time>2016-08-23T14:13:01Z</time>
      </trkpt>
      <trkpt lat="44.7417" lon="5.06333">
        <ele>360.15</ele>
        <time>2016-08-23T14:13:02Z</time>
      </trkpt>
      <trkpt lat="44.74168" lon="5.06333">
        <ele>360.63</ele>
        <time>2016-08-23T14:13:03Z</time>
      </trkpt>
      <trkpt lat="44.74166" lon="5.06332">
        <ele>360.63</ele>
        <time>2016-08-23T14:13:04Z</time>
      </trkpt>
      <trkpt lat="44.74146" lon="5.06328">
        <ele>364</ele>
        <time>2016-08-23T14:13:17Z</time>
      </trkpt>
      <trkpt lat="44.7414" lon="5.06326">
        <ele>364.96</ele>
        <time>2016-08-23T14:13:21Z</time>
      </trkpt>
      <trkpt lat="44.74138" lon="5.06326">
        <ele>365.44</ele>
        <time>2016-08-23T14:13:22Z</time>
      </trkpt>
      <trkpt lat="44.74137" lon="5.06325">
        <ele>365.44</ele>
        <time>2016-08-23T14:13:23Z</time>
      </trkpt>
      <trkpt lat="44.74135" lon="5.06325">
        <ele>365.44</ele>
        <time>2016-08-23T14:13:24Z</time>
      </trkpt>
      <trkpt lat="44.74134" lon="5.06324">
        <ele>365.92</ele>
        <time>2016-08-23T14:13:25Z</time>
      </trkpt>
      <trkpt lat="44.74107" lon="5.06316">
        <ele>367.36</ele>
        <time>2016-08-23T14:13:40Z</time>
      </trkpt>
      <trkpt lat="44.74086" lon="5.06315">
        <ele>368.8</ele>
        <time>2016-08-23T14:13:51Z</time>
      </trkpt>
      <trkpt lat="44.74058" lon="5.06313">
        <ele>370.73</ele>
        <time>2016-08-23T14:14:04Z</time>
      </trkpt>
      <trkpt lat="44.74025" lon="5.06296">
        <ele>370.73</ele>
        <time>2016-08-23T14:14:17Z</time>
      </trkpt>
      <trkpt lat="44.74022" lon="5.06294">
        <ele>370.24</ele>
        <time>2016-08-23T14:14:18Z</time>
      </trkpt>
      <trkpt lat="44.74018" lon="5.06293">
        <ele>370.24</ele>
        <time>2016-08-23T14:14:19Z</time>
      </trkpt>
      <trkpt lat="44.7401" lon="5.06289">
        <ele>369.76</ele>
        <time>2016-08-23T14:14:21Z</time>
      </trkpt>
      <trkpt lat="44.73978" lon="5.06281">
        <ele>369.76</ele>
        <time>2016-08-23T14:14:29Z</time>
      </trkpt>
      <trkpt lat="44.73974" lon="5.0628">
        <ele>369.76</ele>
        <time>2016-08-23T14:14:30Z</time>
      </trkpt>
      <trkpt lat="44.7397" lon="5.06279">
        <ele>370.24</ele>
        <time>2016-08-23T14:14:31Z</time>
      </trkpt>
      <trkpt lat="44.73958" lon="5.06276">
        <ele>369.76</ele>
        <time>2016-08-23T14:14:34Z</time>
      </trkpt>
      <trkpt lat="44.73954" lon="5.06276">
        <ele>369.76</ele>
        <time>2016-08-23T14:14:35Z</time>
      </trkpt>
      <trkpt lat="44.7395" lon="5.06275">
        <ele>369.76</ele>
        <time>2016-08-23T14:14:36Z</time>
      </trkpt>
      <trkpt lat="44.73917" lon="5.06267">
        <ele>370.24</ele>
        <time>2016-08-23T14:14:44Z</time>
      </trkpt>
      <trkpt lat="44.73905" lon="5.06264">
        <ele>370.24</ele>
        <time>2016-08-23T14:14:47Z</time>
      </trkpt>
      <trkpt lat="44.73901" lon="5.06263">
        <ele>370.24</ele>
        <time>2016-08-23T14:14:48Z</time>
      </trkpt>
      <trkpt lat="44.73866" lon="5.06258">
        <ele>371.21</ele>
        <time>2016-08-23T14:14:57Z</time>
      </trkpt>
      <trkpt lat="44.73815" lon="5.06252">
        <ele>373.13</ele>
        <time>2016-08-23T14:15:11Z</time>
      </trkpt>
      <trkpt lat="44.73792" lon="5.06245">
        <ele>372.65</ele>
        <time>2016-08-23T14:15:17Z</time>
      </trkpt>
      <trkpt lat="44.73788" lon="5.06244">
        <ele>372.65</ele>
        <time>2016-08-23T14:15:18Z</time>
      </trkpt>
      <trkpt lat="44.73745" lon="5.06239">
        <ele>371.69</ele>
        <time>2016-08-23T14:15:29Z</time>
      </trkpt>
      <trkpt lat="44.73668" lon="5.06237">
        <ele>369.28</ele>
        <time>2016-08-23T14:15:43Z</time>
      </trkpt>
      <trkpt lat="44.73651" lon="5.06231">
        <ele>368.32</ele>
        <time>2016-08-23T14:15:46Z</time>
      </trkpt>
      <trkpt lat="44.7364" lon="5.06225">
        <ele>367.36</ele>
        <time>2016-08-23T14:15:48Z</time>
      </trkpt>
      <trkpt lat="44.73635" lon="5.06221">
        <ele>367.36</ele>
        <time>2016-08-23T14:15:49Z</time>
      </trkpt>
      <trkpt lat="44.73625" lon="5.06213">
        <ele>366.88</ele>
        <time>2016-08-23T14:15:51Z</time>
      </trkpt>
      <trkpt lat="44.7362" lon="5.0621">
        <ele>366.4</ele>
        <time>2016-08-23T14:15:52Z</time>
      </trkpt>
      <trkpt lat="44.7361" lon="5.06203">
        <ele>366.4</ele>
        <time>2016-08-23T14:15:54Z</time>
      </trkpt>
      <trkpt lat="44.73577" lon="5.06187">
        <ele>364.96</ele>
        <time>2016-08-23T14:16:00Z</time>
      </trkpt>
      <trkpt lat="44.73511" lon="5.06161">
        <ele>363.04</ele>
        <time>2016-08-23T14:16:11Z</time>
      </trkpt>
      <trkpt lat="44.73506" lon="5.06158">
        <ele>363.52</ele>
        <time>2016-08-23T14:16:12Z</time>
      </trkpt>
      <trkpt lat="44.73501" lon="5.06155">
        <ele>363.52</ele>
        <time>2016-08-23T14:16:13Z</time>
      </trkpt>
      <trkpt lat="44.73466" lon="5.0613">
        <ele>362.55</ele>
        <time>2016-08-23T14:16:20Z</time>
      </trkpt>
      <trkpt lat="44.73461" lon="5.06128">
        <ele>362.55</ele>
        <time>2016-08-23T14:16:21Z</time>
      </trkpt>
      <trkpt lat="44.73457" lon="5.06124">
        <ele>362.07</ele>
        <time>2016-08-23T14:16:22Z</time>
      </trkpt>
      <trkpt lat="44.73447" lon="5.06111">
        <ele>362.07</ele>
        <time>2016-08-23T14:16:25Z</time>
      </trkpt>
      <trkpt lat="44.73444" lon="5.06105">
        <ele>362.07</ele>
        <time>2016-08-23T14:16:26Z</time>
      </trkpt>
      <trkpt lat="44.7344" lon="5.061">
        <ele>362.55</ele>
        <time>2016-08-23T14:16:27Z</time>
      </trkpt>
      <trkpt lat="44.73437" lon="5.06095">
        <ele>362.55</ele>
        <time>2016-08-23T14:16:28Z</time>
      </trkpt>
      <trkpt lat="44.73434" lon="5.06091">
        <ele>362.55</ele>
        <time>2016-08-23T14:16:29Z</time>
      </trkpt>
      <trkpt lat="44.73414" lon="5.06072">
        <ele>362.07</ele>
        <time>2016-08-23T14:16:38Z</time>
      </trkpt>
      <trkpt lat="44.73414" lon="5.06072">
        <ele>362.07</ele>
        <time>2016-08-23T14:16:42Z</time>
      </trkpt>
      <trkpt lat="44.73413" lon="5.0607">
        <ele>362.07</ele>
        <time>2016-08-23T14:16:43Z</time>
      </trkpt>
      <trkpt lat="44.73411" lon="5.06068">
        <ele>362.07</ele>
        <time>2016-08-23T14:16:44Z</time>
      </trkpt>
      <trkpt lat="44.73398" lon="5.06058">
        <ele>360.63</ele>
        <time>2016-08-23T14:16:48Z</time>
      </trkpt>
      <trkpt lat="44.73393" lon="5.06055">
        <ele>360.15</ele>
        <time>2016-08-23T14:16:49Z</time>
      </trkpt>
      <trkpt lat="44.73388" lon="5.06052">
        <ele>359.67</ele>
        <time>2016-08-23T14:16:50Z</time>
      </trkpt>
      <trkpt lat="44.73383" lon="5.06048">
        <ele>359.19</ele>
        <time>2016-08-23T14:16:51Z</time>
      </trkpt>
      <trkpt lat="44.73378" lon="5.06046">
        <ele>358.71</ele>
        <time>2016-08-23T14:16:52Z</time>
      </trkpt>
      <trkpt lat="44.73373" lon="5.06043">
        <ele>358.71</ele>
        <time>2016-08-23T14:16:53Z</time>
      </trkpt>
      <trkpt lat="44.73333" lon="5.06021">
        <ele>355.83</ele>
        <time>2016-08-23T14:17:00Z</time>
      </trkpt>
      <trkpt lat="44.73328" lon="5.06017">
        <ele>355.83</ele>
        <time>2016-08-23T14:17:01Z</time>
      </trkpt>
      <trkpt lat="44.73322" lon="5.06013">
        <ele>355.83</ele>
        <time>2016-08-23T14:17:02Z</time>
      </trkpt>
      <trkpt lat="44.73312" lon="5.06007">
        <ele>356.31</ele>
        <time>2016-08-23T14:17:04Z</time>
      </trkpt>
      <trkpt lat="44.73296" lon="5.05991">
        <ele>356.79</ele>
        <time>2016-08-23T14:17:08Z</time>
      </trkpt>
      <trkpt lat="44.73271" lon="5.0595">
        <ele>357.27</ele>
        <time>2016-08-23T14:17:16Z</time>
      </trkpt>
      <trkpt lat="44.73267" lon="5.05945">
        <ele>356.31</ele>
        <time>2016-08-23T14:17:17Z</time>
      </trkpt>
      <trkpt lat="44.73263" lon="5.05941">
        <ele>356.31</ele>
        <time>2016-08-23T14:17:18Z</time>
      </trkpt>
      <trkpt lat="44.73253" lon="5.05933">
        <ele>355.34</ele>
        <time>2016-08-23T14:17:20Z</time>
      </trkpt>
      <trkpt lat="44.73248" lon="5.0593">
        <ele>354.86</ele>
        <time>2016-08-23T14:17:21Z</time>
      </trkpt>
      <trkpt lat="44.73244" lon="5.05927">
        <ele>354.86</ele>
        <time>2016-08-23T14:17:22Z</time>
      </trkpt>
      <trkpt lat="44.73242" lon="5.05924">
        <ele>354.38</ele>
        <time>2016-08-23T14:17:23Z</time>
      </trkpt>
      <trkpt lat="44.73239" lon="5.05922">
        <ele>354.86</ele>
        <time>2016-08-23T14:17:34Z</time>
      </trkpt>
      <trkpt lat="44.73238" lon="5.05922">
        <ele>354.86</ele>
        <time>2016-08-23T14:17:40Z</time>
      </trkpt>
      <trkpt lat="44.73237" lon="5.05923">
        <ele>354.86</ele>
        <time>2016-08-23T14:17:41Z</time>
      </trkpt>
      <trkpt lat="44.73236" lon="5.05924">
        <ele>354.86</ele>
        <time>2016-08-23T14:17:42Z</time>
      </trkpt>
      <trkpt lat="44.73237" lon="5.05925">
        <ele>354.86</ele>
        <time>2016-08-23T14:17:43Z</time>
      </trkpt>
      <trkpt lat="44.73237" lon="5.05926">
        <ele>354.86</ele>
        <time>2016-08-23T14:17:44Z</time>
      </trkpt>
      <trkpt lat="44.73238" lon="5.05926">
        <ele>354.86</ele>
        <time>2016-08-23T14:17:45Z</time>
      </trkpt>
      <trkpt lat="44.7324" lon="5.05923">
        <ele>354.86</ele>
        <time>2016-08-23T14:17:47Z</time>
      </trkpt>
      <trkpt lat="44.7324" lon="5.05922">
        <ele>355.34</ele>
        <time>2016-08-23T14:17:48Z</time>
      </trkpt>
      <trkpt lat="44.7324" lon="5.0592">
        <ele>355.34</ele>
        <time>2016-08-23T14:17:49Z</time>
      </trkpt>
      <trkpt lat="44.7324" lon="5.05919">
        <ele>354.86</ele>
        <time>2016-08-23T14:17:50Z</time>
      </trkpt>
      <trkpt lat="44.73241" lon="5.05917">
        <ele>354.86</ele>
        <time>2016-08-23T14:17:51Z</time>
      </trkpt>
      <trkpt lat="44.73241" lon="5.05914">
        <ele>354.86</ele>
        <time>2016-08-23T14:17:52Z</time>
      </trkpt>
      <trkpt lat="44.7324" lon="5.05911">
        <ele>354.38</ele>
        <time>2016-08-23T14:17:53Z</time>
      </trkpt>
      <trkpt lat="44.7324" lon="5.05907">
        <ele>353.42</ele>
        <time>2016-08-23T14:17:54Z</time>
      </trkpt>
      <trkpt lat="44.73239" lon="5.05893">
        <ele>352.46</ele>
        <time>2016-08-23T14:17:57Z</time>
      </trkpt>
      <trkpt lat="44.73238" lon="5.05889">
        <ele>351.98</ele>
        <time>2016-08-23T14:17:58Z</time>
      </trkpt>
      <trkpt lat="44.73236" lon="5.05887">
        <ele>351.5</ele>
        <time>2016-08-23T14:17:59Z</time>
      </trkpt>
      <trkpt lat="44.73233" lon="5.05882">
        <ele>351.5</ele>
        <time>2016-08-23T14:18:07Z</time>
      </trkpt>
      <trkpt lat="44.73232" lon="5.05881">
        <ele>351.02</ele>
        <time>2016-08-23T14:18:24Z</time>
      </trkpt>
      <trkpt lat="44.73231" lon="5.05878">
        <ele>351.02</ele>
        <time>2016-08-23T14:18:25Z</time>
      </trkpt>
      <trkpt lat="44.7323" lon="5.05875">
        <ele>350.54</ele>
        <time>2016-08-23T14:18:26Z</time>
      </trkpt>
      <trkpt lat="44.73229" lon="5.05871">
        <ele>350.06</ele>
        <time>2016-08-23T14:18:27Z</time>
      </trkpt>
      <trkpt lat="44.73229" lon="5.05866">
        <ele>350.06</ele>
        <time>2016-08-23T14:18:28Z</time>
      </trkpt>
      <trkpt lat="44.73228" lon="5.05862">
        <ele>349.58</ele>
        <time>2016-08-23T14:18:29Z</time>
      </trkpt>
      <trkpt lat="44.73226" lon="5.05858">
        <ele>349.1</ele>
        <time>2016-08-23T14:18:30Z</time>
      </trkpt>
      <trkpt lat="44.73224" lon="5.05853">
        <ele>348.62</ele>
        <time>2016-08-23T14:18:31Z</time>
      </trkpt>
      <trkpt lat="44.73221" lon="5.05847">
        <ele>348.62</ele>
        <time>2016-08-23T14:18:32Z</time>
      </trkpt>
      <trkpt lat="44.7322" lon="5.05842">
        <ele>348.13</ele>
        <time>2016-08-23T14:18:33Z</time>
      </trkpt>
      <trkpt lat="44.73219" lon="5.05838">
        <ele>348.13</ele>
        <time>2016-08-23T14:18:34Z</time>
      </trkpt>
      <trkpt lat="44.73219" lon="5.05834">
        <ele>347.65</ele>
        <time>2016-08-23T14:18:35Z</time>
      </trkpt>
      <trkpt lat="44.73218" lon="5.0583">
        <ele>347.65</ele>
        <time>2016-08-23T14:18:36Z</time>
      </trkpt>
      <trkpt lat="44.73217" lon="5.05826">
        <ele>348.13</ele>
        <time>2016-08-23T14:18:37Z</time>
      </trkpt>
      <trkpt lat="44.73212" lon="5.05811">
        <ele>347.65</ele>
        <time>2016-08-23T14:18:41Z</time>
      </trkpt>
      <trkpt lat="44.7321" lon="5.05808">
        <ele>348.13</ele>
        <time>2016-08-23T14:18:42Z</time>
      </trkpt>
      <trkpt lat="44.73207" lon="5.05786">
        <ele>347.65</ele>
        <time>2016-08-23T14:18:51Z</time>
      </trkpt>
      <trkpt lat="44.73207" lon="5.05784">
        <ele>347.65</ele>
        <time>2016-08-23T14:18:53Z</time>
      </trkpt>
      <trkpt lat="44.73206" lon="5.05779">
        <ele>347.17</ele>
        <time>2016-08-23T14:18:56Z</time>
      </trkpt>
      <trkpt lat="44.73202" lon="5.05756">
        <ele>347.17</ele>
        <time>2016-08-23T14:19:02Z</time>
      </trkpt>
      <trkpt lat="44.73201" lon="5.05752">
        <ele>347.17</ele>
        <time>2016-08-23T14:19:03Z</time>
      </trkpt>
      <trkpt lat="44.73196" lon="5.05734">
        <ele>348.62</ele>
        <time>2016-08-23T14:19:10Z</time>
      </trkpt>
      <trkpt lat="44.73196" lon="5.05732">
        <ele>349.1</ele>
        <time>2016-08-23T14:19:11Z</time>
      </trkpt>
      <trkpt lat="44.73195" lon="5.05729">
        <ele>349.58</ele>
        <time>2016-08-23T14:19:12Z</time>
      </trkpt>
      <trkpt lat="44.73192" lon="5.05719">
        <ele>349.58</ele>
        <time>2016-08-23T14:19:24Z</time>
      </trkpt>
      <trkpt lat="44.7319" lon="5.05707">
        <ele>351.02</ele>
        <time>2016-08-23T14:19:36Z</time>
      </trkpt>
      <trkpt lat="44.73188" lon="5.05704">
        <ele>351.5</ele>
        <time>2016-08-23T14:19:38Z</time>
      </trkpt>
      <trkpt lat="44.73187" lon="5.05703">
        <ele>351.5</ele>
        <time>2016-08-23T14:19:39Z</time>
      </trkpt>
      <trkpt lat="44.73185" lon="5.05701">
        <ele>351.98</ele>
        <time>2016-08-23T14:19:40Z</time>
      </trkpt>
      <trkpt lat="44.73184" lon="5.05699">
        <ele>351.98</ele>
        <time>2016-08-23T14:19:41Z</time>
      </trkpt>
      <trkpt lat="44.73183" lon="5.05696">
        <ele>351.98</ele>
        <time>2016-08-23T14:19:42Z</time>
      </trkpt>
      <trkpt lat="44.7317" lon="5.05652">
        <ele>351.02</ele>
        <time>2016-08-23T14:19:52Z</time>
      </trkpt>
      <trkpt lat="44.73156" lon="5.05617">
        <ele>347.17</ele>
        <time>2016-08-23T14:19:58Z</time>
      </trkpt>
      <trkpt lat="44.73147" lon="5.05598">
        <ele>344.77</ele>
        <time>2016-08-23T14:20:01Z</time>
      </trkpt>
      <trkpt lat="44.73143" lon="5.05592">
        <ele>343.33</ele>
        <time>2016-08-23T14:20:02Z</time>
      </trkpt>
      <trkpt lat="44.7314" lon="5.05586">
        <ele>342.37</ele>
        <time>2016-08-23T14:20:03Z</time>
      </trkpt>
      <trkpt lat="44.73138" lon="5.05579">
        <ele>341.41</ele>
        <time>2016-08-23T14:20:04Z</time>
      </trkpt>
      <trkpt lat="44.73135" lon="5.05573">
        <ele>340.92</ele>
        <time>2016-08-23T14:20:05Z</time>
      </trkpt>
      <trkpt lat="44.73133" lon="5.05568">
        <ele>340.44</ele>
        <time>2016-08-23T14:20:06Z</time>
      </trkpt>
      <trkpt lat="44.73132" lon="5.05562">
        <ele>339.96</ele>
        <time>2016-08-23T14:20:07Z</time>
      </trkpt>
      <trkpt lat="44.73131" lon="5.05558">
        <ele>339</ele>
        <time>2016-08-23T14:20:08Z</time>
      </trkpt>
      <trkpt lat="44.7313" lon="5.05554">
        <ele>338.52</ele>
        <time>2016-08-23T14:20:09Z</time>
      </trkpt>
      <trkpt lat="44.73129" lon="5.0555">
        <ele>337.56</ele>
        <time>2016-08-23T14:20:10Z</time>
      </trkpt>
      <trkpt lat="44.73128" lon="5.05546">
        <ele>337.08</ele>
        <time>2016-08-23T14:20:11Z</time>
      </trkpt>
      <trkpt lat="44.73126" lon="5.05542">
        <ele>336.12</ele>
        <time>2016-08-23T14:20:12Z</time>
      </trkpt>
      <trkpt lat="44.73124" lon="5.05536">
        <ele>335.64</ele>
        <time>2016-08-23T14:20:13Z</time>
      </trkpt>
      <trkpt lat="44.73122" lon="5.0553">
        <ele>334.68</ele>
        <time>2016-08-23T14:20:14Z</time>
      </trkpt>
      <trkpt lat="44.7312" lon="5.05526">
        <ele>334.2</ele>
        <time>2016-08-23T14:20:15Z</time>
      </trkpt>
      <trkpt lat="44.73118" lon="5.0552">
        <ele>333.71</ele>
        <time>2016-08-23T14:20:23Z</time>
      </trkpt>
      <trkpt lat="44.73118" lon="5.0552">
        <ele>333.71</ele>
        <time>2016-08-23T14:20:31Z</time>
      </trkpt>
      <trkpt lat="44.73117" lon="5.05521">
        <ele>334.2</ele>
        <time>2016-08-23T14:20:34Z</time>
      </trkpt>
      <trkpt lat="44.7312" lon="5.05539">
        <ele>337.08</ele>
        <time>2016-08-23T14:20:49Z</time>
      </trkpt>
      <trkpt lat="44.73124" lon="5.05549">
        <ele>338.52</ele>
        <time>2016-08-23T14:20:55Z</time>
      </trkpt>
      <trkpt lat="44.73127" lon="5.05561">
        <ele>339.96</ele>
        <time>2016-08-23T14:21:02Z</time>
      </trkpt>
      <trkpt lat="44.73137" lon="5.0558">
        <ele>342.37</ele>
        <time>2016-08-23T14:21:15Z</time>
      </trkpt>
      <trkpt lat="44.73138" lon="5.05587">
        <ele>343.33</ele>
        <time>2016-08-23T14:21:20Z</time>
      </trkpt>
      <trkpt lat="44.73126" lon="5.05592">
        <ele>342.85</ele>
        <time>2016-08-23T14:21:31Z</time>
      </trkpt>
      <trkpt lat="44.73123" lon="5.05602">
        <ele>340.44</ele>
        <time>2016-08-23T14:21:34Z</time>
      </trkpt>
      <trkpt lat="44.7312" lon="5.05612">
        <ele>337.08</ele>
        <time>2016-08-23T14:21:36Z</time>
      </trkpt>
      <trkpt lat="44.73119" lon="5.05618">
        <ele>336.6</ele>
        <time>2016-08-23T14:21:37Z</time>
      </trkpt>
      <trkpt lat="44.73118" lon="5.05625">
        <ele>336.12</ele>
        <time>2016-08-23T14:21:38Z</time>
      </trkpt>
      <trkpt lat="44.73118" lon="5.05633">
        <ele>335.64</ele>
        <time>2016-08-23T14:21:39Z</time>
      </trkpt>
      <trkpt lat="44.73119" lon="5.0564">
        <ele>335.64</ele>
        <time>2016-08-23T14:21:40Z</time>
      </trkpt>
      <trkpt lat="44.73119" lon="5.05648">
        <ele>336.12</ele>
        <time>2016-08-23T14:21:46Z</time>
      </trkpt>
      <trkpt lat="44.73119" lon="5.05648">
        <ele>336.12</ele>
        <time>2016-08-23T14:21:49Z</time>
      </trkpt>
      <trkpt lat="44.73119" lon="5.0565">
        <ele>336.12</ele>
        <time>2016-08-23T14:21:50Z</time>
      </trkpt>
      <trkpt lat="44.73119" lon="5.05653">
        <ele>335.64</ele>
        <time>2016-08-23T14:21:51Z</time>
      </trkpt>
      <trkpt lat="44.73118" lon="5.05656">
        <ele>335.64</ele>
        <time>2016-08-23T14:21:52Z</time>
      </trkpt>
      <trkpt lat="44.73117" lon="5.0566">
        <ele>335.64</ele>
        <time>2016-08-23T14:21:53Z</time>
      </trkpt>
      <trkpt lat="44.73116" lon="5.05665">
        <ele>335.16</ele>
        <time>2016-08-23T14:21:54Z</time>
      </trkpt>
      <trkpt lat="44.73115" lon="5.05671">
        <ele>334.68</ele>
        <time>2016-08-23T14:21:55Z</time>
      </trkpt>
      <trkpt lat="44.73113" lon="5.05677">
        <ele>333.71</ele>
        <time>2016-08-23T14:21:56Z</time>
      </trkpt>
      <trkpt lat="44.7311" lon="5.05683">
        <ele>333.71</ele>
        <time>2016-08-23T14:21:57Z</time>
      </trkpt>
      <trkpt lat="44.73094" lon="5.05711">
        <ele>332.27</ele>
        <time>2016-08-23T14:22:02Z</time>
      </trkpt>
      <trkpt lat="44.73089" lon="5.05714">
        <ele>332.27</ele>
        <time>2016-08-23T14:22:03Z</time>
      </trkpt>
      <trkpt lat="44.73084" lon="5.05717">
        <ele>332.27</ele>
        <time>2016-08-23T14:22:04Z</time>
      </trkpt>
      <trkpt lat="44.73079" lon="5.05721">
        <ele>331.31</ele>
        <time>2016-08-23T14:22:05Z</time>
      </trkpt>
      <trkpt lat="44.73074" lon="5.05725">
        <ele>330.83</ele>
        <time>2016-08-23T14:22:06Z</time>
      </trkpt>
      <trkpt lat="44.73054" lon="5.05745">
        <ele>329.39</ele>
        <time>2016-08-23T14:22:10Z</time>
      </trkpt>
      <trkpt lat="44.7305" lon="5.0575">
        <ele>329.39</ele>
        <time>2016-08-23T14:22:11Z</time>
      </trkpt>
      <trkpt lat="44.73046" lon="5.05756">
        <ele>328.91</ele>
        <time>2016-08-23T14:22:12Z</time>
      </trkpt>
      <trkpt lat="44.73035" lon="5.05774">
        <ele>329.39</ele>
        <time>2016-08-23T14:22:15Z</time>
      </trkpt>
      <trkpt lat="44.73013" lon="5.058">
        <ele>327.95</ele>
        <time>2016-08-23T14:22:20Z</time>
      </trkpt>
      <trkpt lat="44.73002" lon="5.05809">
        <ele>326.99</ele>
        <time>2016-08-23T14:22:22Z</time>
      </trkpt>
      <trkpt lat="44.72996" lon="5.05812">
        <ele>326.02</ele>
        <time>2016-08-23T14:22:23Z</time>
      </trkpt>
      <trkpt lat="44.7297" lon="5.0582">
        <ele>323.62</ele>
        <time>2016-08-23T14:22:27Z</time>
      </trkpt>
      <trkpt lat="44.7295" lon="5.05828">
        <ele>322.18</ele>
        <time>2016-08-23T14:22:30Z</time>
      </trkpt>
      <trkpt lat="44.72942" lon="5.05834">
        <ele>322.18</ele>
        <time>2016-08-23T14:22:32Z</time>
      </trkpt>
      <trkpt lat="44.72943" lon="5.05838">
        <ele>322.18</ele>
        <time>2016-08-23T14:22:33Z</time>
      </trkpt>
      <trkpt lat="44.72945" lon="5.05841">
        <ele>321.7</ele>
        <time>2016-08-23T14:22:34Z</time>
      </trkpt>
      <trkpt lat="44.72947" lon="5.05844">
        <ele>321.22</ele>
        <time>2016-08-23T14:22:35Z</time>
      </trkpt>
      <trkpt lat="44.72951" lon="5.05845">
        <ele>321.22</ele>
        <time>2016-08-23T14:22:36Z</time>
      </trkpt>
      <trkpt lat="44.72955" lon="5.05846">
        <ele>321.22</ele>
        <time>2016-08-23T14:22:37Z</time>
      </trkpt>
      <trkpt lat="44.72958" lon="5.05848">
        <ele>321.22</ele>
        <time>2016-08-23T14:22:38Z</time>
      </trkpt>
      <trkpt lat="44.72962" lon="5.05849">
        <ele>320.74</ele>
        <time>2016-08-23T14:22:39Z</time>
      </trkpt>
      <trkpt lat="44.7297" lon="5.05852">
        <ele>320.26</ele>
        <time>2016-08-23T14:22:41Z</time>
      </trkpt>
      <trkpt lat="44.72974" lon="5.05854">
        <ele>320.26</ele>
        <time>2016-08-23T14:22:42Z</time>
      </trkpt>
      <trkpt lat="44.72979" lon="5.05855">
        <ele>319.78</ele>
        <time>2016-08-23T14:22:43Z</time>
      </trkpt>
      <trkpt lat="44.72987" lon="5.05859">
        <ele>319.3</ele>
        <time>2016-08-23T14:22:45Z</time>
      </trkpt>
      <trkpt lat="44.72988" lon="5.05861">
        <ele>319.3</ele>
        <time>2016-08-23T14:22:46Z</time>
      </trkpt>
      <trkpt lat="44.72988" lon="5.05864">
        <ele>319.3</ele>
        <time>2016-08-23T14:22:47Z</time>
      </trkpt>
      <trkpt lat="44.72987" lon="5.05865">
        <ele>319.3</ele>
        <time>2016-08-23T14:22:48Z</time>
      </trkpt>
      <trkpt lat="44.72982" lon="5.05868">
        <ele>318.33</ele>
        <time>2016-08-23T14:22:53Z</time>
      </trkpt>
      <trkpt lat="44.72979" lon="5.05869">
        <ele>318.33</ele>
        <time>2016-08-23T14:22:54Z</time>
      </trkpt>
      <trkpt lat="44.72975" lon="5.0587">
        <ele>317.85</ele>
        <time>2016-08-23T14:22:55Z</time>
      </trkpt>
      <trkpt lat="44.72972" lon="5.05872">
        <ele>317.37</ele>
        <time>2016-08-23T14:22:56Z</time>
      </trkpt>
      <trkpt lat="44.72968" lon="5.05874">
        <ele>316.89</ele>
        <time>2016-08-23T14:22:57Z</time>
      </trkpt>
      <trkpt lat="44.72963" lon="5.05875">
        <ele>316.89</ele>
        <time>2016-08-23T14:22:58Z</time>
      </trkpt>
      <trkpt lat="44.72946" lon="5.0588">
        <ele>314.97</ele>
        <time>2016-08-23T14:23:01Z</time>
      </trkpt>
      <trkpt lat="44.72939" lon="5.05883">
        <ele>314.01</ele>
        <time>2016-08-23T14:23:02Z</time>
      </trkpt>
      <trkpt lat="44.72933" lon="5.05887">
        <ele>313.05</ele>
        <time>2016-08-23T14:23:03Z</time>
      </trkpt>
      <trkpt lat="44.72927" lon="5.05892">
        <ele>312.09</ele>
        <time>2016-08-23T14:23:04Z</time>
      </trkpt>
      <trkpt lat="44.7292" lon="5.05898">
        <ele>311.12</ele>
        <time>2016-08-23T14:23:05Z</time>
      </trkpt>
      <trkpt lat="44.72899" lon="5.05917">
        <ele>307.76</ele>
        <time>2016-08-23T14:23:08Z</time>
      </trkpt>
      <trkpt lat="44.72878" lon="5.05938">
        <ele>304.88</ele>
        <time>2016-08-23T14:23:11Z</time>
      </trkpt>
      <trkpt lat="44.72856" lon="5.05961">
        <ele>301.03</ele>
        <time>2016-08-23T14:23:14Z</time>
      </trkpt>
      <trkpt lat="44.72836" lon="5.05979">
        <ele>299.11</ele>
        <time>2016-08-23T14:23:17Z</time>
      </trkpt>
      <trkpt lat="44.72812" lon="5.05998">
        <ele>298.15</ele>
        <time>2016-08-23T14:23:21Z</time>
      </trkpt>
      <trkpt lat="44.7278" lon="5.06032">
        <ele>294.78</ele>
        <time>2016-08-23T14:23:27Z</time>
      </trkpt>
      <trkpt lat="44.72771" lon="5.06044">
        <ele>293.82</ele>
        <time>2016-08-23T14:23:29Z</time>
      </trkpt>
      <trkpt lat="44.72768" lon="5.06049">
        <ele>293.34</ele>
        <time>2016-08-23T14:23:30Z</time>
      </trkpt>
      <trkpt lat="44.72765" lon="5.06054">
        <ele>293.34</ele>
        <time>2016-08-23T14:23:31Z</time>
      </trkpt>
      <trkpt lat="44.72764" lon="5.06059">
        <ele>292.86</ele>
        <time>2016-08-23T14:23:32Z</time>
      </trkpt>
      <trkpt lat="44.72765" lon="5.06063">
        <ele>292.86</ele>
        <time>2016-08-23T14:23:33Z</time>
      </trkpt>
      <trkpt lat="44.72767" lon="5.06066">
        <ele>291.9</ele>
        <time>2016-08-23T14:23:34Z</time>
      </trkpt>
      <trkpt lat="44.72769" lon="5.06066">
        <ele>291.9</ele>
        <time>2016-08-23T14:23:43Z</time>
      </trkpt>
      <trkpt lat="44.72771" lon="5.06066">
        <ele>291.9</ele>
        <time>2016-08-23T14:23:44Z</time>
      </trkpt>
      <trkpt lat="44.72773" lon="5.06067">
        <ele>291.42</ele>
        <time>2016-08-23T14:23:45Z</time>
      </trkpt>
      <trkpt lat="44.72776" lon="5.06067">
        <ele>290.94</ele>
        <time>2016-08-23T14:23:46Z</time>
      </trkpt>
      <trkpt lat="44.7278" lon="5.06065">
        <ele>290.94</ele>
        <time>2016-08-23T14:23:47Z</time>
      </trkpt>
      <trkpt lat="44.72784" lon="5.06063">
        <ele>290.46</ele>
        <time>2016-08-23T14:23:48Z</time>
      </trkpt>
      <trkpt lat="44.72788" lon="5.06061">
        <ele>289.97</ele>
        <time>2016-08-23T14:23:49Z</time>
      </trkpt>
      <trkpt lat="44.72792" lon="5.06061">
        <ele>289.49</ele>
        <time>2016-08-23T14:23:50Z</time>
      </trkpt>
      <trkpt lat="44.72796" lon="5.06063">
        <ele>289.49</ele>
        <time>2016-08-23T14:23:51Z</time>
      </trkpt>
      <trkpt lat="44.72797" lon="5.06067">
        <ele>289.01</ele>
        <time>2016-08-23T14:23:52Z</time>
      </trkpt>
      <trkpt lat="44.72796" lon="5.06072">
        <ele>289.01</ele>
        <time>2016-08-23T14:23:53Z</time>
      </trkpt>
      <trkpt lat="44.72794" lon="5.06077">
        <ele>288.53</ele>
        <time>2016-08-23T14:23:54Z</time>
      </trkpt>
      <trkpt lat="44.7279" lon="5.0608">
        <ele>288.05</ele>
        <time>2016-08-23T14:23:55Z</time>
      </trkpt>
      <trkpt lat="44.72786" lon="5.06082">
        <ele>287.57</ele>
        <time>2016-08-23T14:23:56Z</time>
      </trkpt>
      <trkpt lat="44.72781" lon="5.06085">
        <ele>287.09</ele>
        <time>2016-08-23T14:23:57Z</time>
      </trkpt>
      <trkpt lat="44.72771" lon="5.06091">
        <ele>286.13</ele>
        <time>2016-08-23T14:23:59Z</time>
      </trkpt>
      <trkpt lat="44.72727" lon="5.06117">
        <ele>282.77</ele>
        <time>2016-08-23T14:24:06Z</time>
      </trkpt>
      <trkpt lat="44.7272" lon="5.0612">
        <ele>282.28</ele>
        <time>2016-08-23T14:24:07Z</time>
      </trkpt>
      <trkpt lat="44.72713" lon="5.06122">
        <ele>281.8</ele>
        <time>2016-08-23T14:24:08Z</time>
      </trkpt>
      <trkpt lat="44.72706" lon="5.06123">
        <ele>281.32</ele>
        <time>2016-08-23T14:24:09Z</time>
      </trkpt>
      <trkpt lat="44.72699" lon="5.06123">
        <ele>280.84</ele>
        <time>2016-08-23T14:24:10Z</time>
      </trkpt>
      <trkpt lat="44.72692" lon="5.06122">
        <ele>281.32</ele>
        <time>2016-08-23T14:24:11Z</time>
      </trkpt>
      <trkpt lat="44.7268" lon="5.06119">
        <ele>280.36</ele>
        <time>2016-08-23T14:24:13Z</time>
      </trkpt>
      <trkpt lat="44.72671" lon="5.06114">
        <ele>279.4</ele>
        <time>2016-08-23T14:24:15Z</time>
      </trkpt>
      <trkpt lat="44.72668" lon="5.06114">
        <ele>278.92</ele>
        <time>2016-08-23T14:24:16Z</time>
      </trkpt>
      <trkpt lat="44.72666" lon="5.06117">
        <ele>279.4</ele>
        <time>2016-08-23T14:24:17Z</time>
      </trkpt>
      <trkpt lat="44.72666" lon="5.0612">
        <ele>278.92</ele>
        <time>2016-08-23T14:24:18Z</time>
      </trkpt>
      <trkpt lat="44.72668" lon="5.06125">
        <ele>278.44</ele>
        <time>2016-08-23T14:24:19Z</time>
      </trkpt>
      <trkpt lat="44.7267" lon="5.0613">
        <ele>277.96</ele>
        <time>2016-08-23T14:24:20Z</time>
      </trkpt>
      <trkpt lat="44.72673" lon="5.06136">
        <ele>277</ele>
        <time>2016-08-23T14:24:21Z</time>
      </trkpt>
      <trkpt lat="44.72676" lon="5.0614">
        <ele>276.04</ele>
        <time>2016-08-23T14:24:22Z</time>
      </trkpt>
      <trkpt lat="44.7268" lon="5.06144">
        <ele>275.07</ele>
        <time>2016-08-23T14:24:23Z</time>
      </trkpt>
      <trkpt lat="44.72684" lon="5.06147">
        <ele>274.11</ele>
        <time>2016-08-23T14:24:24Z</time>
      </trkpt>
      <trkpt lat="44.72689" lon="5.06149">
        <ele>273.63</ele>
        <time>2016-08-23T14:24:25Z</time>
      </trkpt>
      <trkpt lat="44.72694" lon="5.06152">
        <ele>272.67</ele>
        <time>2016-08-23T14:24:26Z</time>
      </trkpt>
      <trkpt lat="44.72707" lon="5.06158">
        <ele>269.31</ele>
        <time>2016-08-23T14:24:29Z</time>
      </trkpt>
      <trkpt lat="44.72711" lon="5.06163">
        <ele>268.83</ele>
        <time>2016-08-23T14:24:30Z</time>
      </trkpt>
      <trkpt lat="44.72713" lon="5.06169">
        <ele>268.35</ele>
        <time>2016-08-23T14:24:31Z</time>
      </trkpt>
      <trkpt lat="44.72712" lon="5.06175">
        <ele>267.86</ele>
        <time>2016-08-23T14:24:32Z</time>
      </trkpt>
      <trkpt lat="44.7271" lon="5.06178">
        <ele>267.38</ele>
        <time>2016-08-23T14:24:33Z</time>
      </trkpt>
      <trkpt lat="44.72706" lon="5.06182">
        <ele>266.42</ele>
        <time>2016-08-23T14:24:34Z</time>
      </trkpt>
      <trkpt lat="44.72702" lon="5.06187">
        <ele>265.94</ele>
        <time>2016-08-23T14:24:35Z</time>
      </trkpt>
      <trkpt lat="44.72699" lon="5.06193">
        <ele>264.98</ele>
        <time>2016-08-23T14:24:36Z</time>
      </trkpt>
      <trkpt lat="44.72696" lon="5.062">
        <ele>264.02</ele>
        <time>2016-08-23T14:24:37Z</time>
      </trkpt>
      <trkpt lat="44.72693" lon="5.06207">
        <ele>263.06</ele>
        <time>2016-08-23T14:24:38Z</time>
      </trkpt>
      <trkpt lat="44.72689" lon="5.06214">
        <ele>262.58</ele>
        <time>2016-08-23T14:24:39Z</time>
      </trkpt>
      <trkpt lat="44.72684" lon="5.0622">
        <ele>262.1</ele>
        <time>2016-08-23T14:24:40Z</time>
      </trkpt>
      <trkpt lat="44.7268" lon="5.06226">
        <ele>261.14</ele>
        <time>2016-08-23T14:24:41Z</time>
      </trkpt>
      <trkpt lat="44.72677" lon="5.06234">
        <ele>260.17</ele>
        <time>2016-08-23T14:24:42Z</time>
      </trkpt>
      <trkpt lat="44.72675" lon="5.06242">
        <ele>260.17</ele>
        <time>2016-08-23T14:24:43Z</time>
      </trkpt>
      <trkpt lat="44.72673" lon="5.06251">
        <ele>259.69</ele>
        <time>2016-08-23T14:24:44Z</time>
      </trkpt>
      <trkpt lat="44.72672" lon="5.06259">
        <ele>259.21</ele>
        <time>2016-08-23T14:24:45Z</time>
      </trkpt>
      <trkpt lat="44.72672" lon="5.06266">
        <ele>258.25</ele>
        <time>2016-08-23T14:24:46Z</time>
      </trkpt>
      <trkpt lat="44.72671" lon="5.06289">
        <ele>254.89</ele>
        <time>2016-08-23T14:24:49Z</time>
      </trkpt>
      <trkpt lat="44.72671" lon="5.06296">
        <ele>253.93</ele>
        <time>2016-08-23T14:24:50Z</time>
      </trkpt>
      <trkpt lat="44.7267" lon="5.06302">
        <ele>252.96</ele>
        <time>2016-08-23T14:24:51Z</time>
      </trkpt>
      <trkpt lat="44.72668" lon="5.06309">
        <ele>252.48</ele>
        <time>2016-08-23T14:24:52Z</time>
      </trkpt>
      <trkpt lat="44.72664" lon="5.06316">
        <ele>250.56</ele>
        <time>2016-08-23T14:24:53Z</time>
      </trkpt>
      <trkpt lat="44.7266" lon="5.06321">
        <ele>249.6</ele>
        <time>2016-08-23T14:24:54Z</time>
      </trkpt>
      <trkpt lat="44.72655" lon="5.06327">
        <ele>249.6</ele>
        <time>2016-08-23T14:24:55Z</time>
      </trkpt>
      <trkpt lat="44.72652" lon="5.06332">
        <ele>249.12</ele>
        <time>2016-08-23T14:24:56Z</time>
      </trkpt>
      <trkpt lat="44.72648" lon="5.06337">
        <ele>249.12</ele>
        <time>2016-08-23T14:24:58Z</time>
      </trkpt>
      <trkpt lat="44.72647" lon="5.06339">
        <ele>248.64</ele>
        <time>2016-08-23T14:24:59Z</time>
      </trkpt>
      <trkpt lat="44.72645" lon="5.06339">
        <ele>248.64</ele>
        <time>2016-08-23T14:25:00Z</time>
      </trkpt>
      <trkpt lat="44.72644" lon="5.06337">
        <ele>248.64</ele>
        <time>2016-08-23T14:25:01Z</time>
      </trkpt>
      <trkpt lat="44.72643" lon="5.06335">
        <ele>248.64</ele>
        <time>2016-08-23T14:25:02Z</time>
      </trkpt>
      <trkpt lat="44.7264" lon="5.06335">
        <ele>249.12</ele>
        <time>2016-08-23T14:25:03Z</time>
      </trkpt>
      <trkpt lat="44.72639" lon="5.06334">
        <ele>248.64</ele>
        <time>2016-08-23T14:25:04Z</time>
      </trkpt>
      <trkpt lat="44.72636" lon="5.06334">
        <ele>249.12</ele>
        <time>2016-08-23T14:25:05Z</time>
      </trkpt>
      <trkpt lat="44.72634" lon="5.06333">
        <ele>249.12</ele>
        <time>2016-08-23T14:25:06Z</time>
      </trkpt>
      <trkpt lat="44.72597" lon="5.06321">
        <ele>249.12</ele>
        <time>2016-08-23T14:25:18Z</time>
      </trkpt>
      <trkpt lat="44.72589" lon="5.0632">
        <ele>249.12</ele>
        <time>2016-08-23T14:25:20Z</time>
      </trkpt>
      <trkpt lat="44.72585" lon="5.0632">
        <ele>249.12</ele>
        <time>2016-08-23T14:25:21Z</time>
      </trkpt>
      <trkpt lat="44.72581" lon="5.0632">
        <ele>249.12</ele>
        <time>2016-08-23T14:25:22Z</time>
      </trkpt>
      <trkpt lat="44.72577" lon="5.06318">
        <ele>249.12</ele>
        <time>2016-08-23T14:25:23Z</time>
      </trkpt>
      <trkpt lat="44.72572" lon="5.06316">
        <ele>248.64</ele>
        <time>2016-08-23T14:25:24Z</time>
      </trkpt>
      <trkpt lat="44.72568" lon="5.06315">
        <ele>248.64</ele>
        <time>2016-08-23T14:25:25Z</time>
      </trkpt>
      <trkpt lat="44.72563" lon="5.06314">
        <ele>248.64</ele>
        <time>2016-08-23T14:25:26Z</time>
      </trkpt>
      <trkpt lat="44.72478" lon="5.06281">
        <ele>246.23</ele>
        <time>2016-08-23T14:25:44Z</time>
      </trkpt>
      <trkpt lat="44.72441" lon="5.06279">
        <ele>245.75</ele>
        <time>2016-08-23T14:25:51Z</time>
      </trkpt>
      <trkpt lat="44.72344" lon="5.06306">
        <ele>242.87</ele>
        <time>2016-08-23T14:26:07Z</time>
      </trkpt>
      <trkpt lat="44.72293" lon="5.06304">
        <ele>239.99</ele>
        <time>2016-08-23T14:26:14Z</time>
      </trkpt>
      <trkpt lat="44.72285" lon="5.06302">
        <ele>239.99</ele>
        <time>2016-08-23T14:26:15Z</time>
      </trkpt>
      <trkpt lat="44.72278" lon="5.06298">
        <ele>239.51</ele>
        <time>2016-08-23T14:26:16Z</time>
      </trkpt>
      <trkpt lat="44.72185" lon="5.06245">
        <ele>236.14</ele>
        <time>2016-08-23T14:26:29Z</time>
      </trkpt>
      <trkpt lat="44.721" lon="5.06185">
        <ele>234.22</ele>
        <time>2016-08-23T14:26:43Z</time>
      </trkpt>
      <trkpt lat="44.72082" lon="5.06175">
        <ele>234.22</ele>
        <time>2016-08-23T14:26:46Z</time>
      </trkpt>
      <trkpt lat="44.72038" lon="5.0616">
        <ele>232.78</ele>
        <time>2016-08-23T14:26:53Z</time>
      </trkpt>
      <trkpt lat="44.72032" lon="5.06157">
        <ele>232.78</ele>
        <time>2016-08-23T14:26:54Z</time>
      </trkpt>
      <trkpt lat="44.72027" lon="5.06152">
        <ele>232.78</ele>
        <time>2016-08-23T14:26:55Z</time>
      </trkpt>
      <trkpt lat="44.72021" lon="5.06147">
        <ele>232.78</ele>
        <time>2016-08-23T14:26:56Z</time>
      </trkpt>
      <trkpt lat="44.72016" lon="5.0614">
        <ele>232.3</ele>
        <time>2016-08-23T14:26:57Z</time>
      </trkpt>
      <trkpt lat="44.72012" lon="5.06134">
        <ele>232.3</ele>
        <time>2016-08-23T14:26:58Z</time>
      </trkpt>
      <trkpt lat="44.71972" lon="5.0608">
        <ele>231.33</ele>
        <time>2016-08-23T14:27:07Z</time>
      </trkpt>
      <trkpt lat="44.71954" lon="5.06065">
        <ele>231.33</ele>
        <time>2016-08-23T14:27:11Z</time>
      </trkpt>
      <trkpt lat="44.71951" lon="5.06065">
        <ele>231.33</ele>
        <time>2016-08-23T14:27:12Z</time>
      </trkpt>
      <trkpt lat="44.71948" lon="5.06066">
        <ele>231.81</ele>
        <time>2016-08-23T14:27:13Z</time>
      </trkpt>
      <trkpt lat="44.71947" lon="5.06067">
        <ele>231.81</ele>
        <time>2016-08-23T14:27:14Z</time>
      </trkpt>
    </trkseg>
  </trk>
</gpx>